[[{"header":{"parameterUnit":"m.s-1","parameterCategory":1,"la1":31.0,"la2":29.5877,"lo1":-88.7671,"lo2":-86.6584,"dy":0.0162,"dx":0.0185,"nx":115,"ny":88,"refTime":"2024-08-14T06:00:00:Z","depth":0,"parameterNumber":2,"parameterNumberName":"U-component_of_WINDS"},"data":[0.0,0.0,0.0,0.0,0.0,0.0,0.0,0.0,0.0,0.0,0.0,0.0,0.0,0.0,0.0,0.0,0.0,0.0,0.0,0.0,0.0,0.0,0.0,0.0,0.0,0.0,0.0,0.0,0.0,0.0,0.0,0.0,0.0,0.0,0.0,0.0,0.0,0.0,0.0,0.0,0.0,0.0,0.0,0.0,0.0,0.0,0.0,0.0,0.0,0.0,0.0,0.0,0.0,0.0,0.0,0.0,0.0,0.0,0.0,0.0,0.0,0.0,0.0,0.0,0.0,0.0,0.0,0.0,0.0,0.0,0.0,0.0,0.0,0.0,0.0,0.0,0.0,0.0,0.0,0.0,0.0,0.0,0.0,0.0,0.0,0.0,0.0,0.0,0.0,0.0,0.0,0.0,0.0,0.0,0.0,0.0,0.0,0.0,0.0,0.0,0.0,0.0,0.0,0.0,0.0,0.0,0.0,0.0,0.0,0.0,0.0,0.0,0.0,0.0,0.0,0.0,0.0,0.0,0.0,0.0,0.0,0.0,0.0,0.0,0.0,0.0,0.0,0.0,0.0,0.0,0.0,0.0,0.0,0.0,0.0,0.0,0.0,0.0,0.0,0.0,0.0,0.0,0.0,0.0,0.0,0.0,0.0,0.0,0.0,0.0,0.0,0.0,0.0,0.0,0.0,0.0,0.0,0.0,0.0,0.0,0.0,0.0,0.0,0.0,0.0,0.0,0.0,0.0,0.0,0.0,0.0,0.0,0.0,0.0,0.0,0.0,0.0,0.0,0.0,0.0,0.0,0.0,0.0,0.0,0.0,0.0,0.0,0.0,0.0,0.0,0.0,0.0,0.0,0.0,0.0,0.0,0.0,0.0,0.0,0.0,0.0,0.0,0.0,0.0,0.0,0.0,0.0,0.0,0.0,0.0,0.0,0.0,0.0,0.0,0.0,0.0,0.0,0.0,0.0,0.0,0.0,0.0,0.0,0.0,0.0,0.0,0.0,0.0,0.0,0.0,0.0,0.0,0.0,0.0,0.0,0.0,0.0,0.0,0.0,0.0,0.0,0.0,0.0,0.0,0.0,0.0,0.0,0.0,0.0,0.0,0.0,0.0,0.0,0.0,0.0,0.0,0.0,0.0,0.0,0.0,0.0,0.0,0.0,0.0,0.0,0.0,0.0,0.0,0.0,0.0,0.0,0.0,0.0,0.0,0.0,0.0,0.0,0.0,0.0,0.0,0.0,0.0,0.0,0.0,0.0,0.0,0.0,0.0,0.0,0.0,0.0,0.0,0.0,0.0,0.0,0.0,0.0,0.0,0.0,0.0,0.0,0.0,0.0,0.0,0.0,0.0,0.0,0.0,0.0,0.0,0.0,0.0,0.0,0.0,0.0,0.0,0.0,0.0,0.0,0.0,0.0,0.0,0.0,0.0,0.0,0.0,0.0,0.0,0.0,0.0,0.0,0.0,0.0,0.0,0.0,0.0,0.0,0.0,0.0,0.0,0.0,0.0,0.0,0.0,0.0,0.0,0.0,0.0,0.0,0.0,0.0,0.0,0.0,0.0,0.0,0.0,0.0,0.0,0.0,0.0,0.0,0.0,0.0,0.0,0.0,0.0,0.0,0.0,0.0,0.0,0.0,0.0,0.0,0.0,0.0,0.0,0.0,0.0,0.0,0.0,0.0,0.0,0.0,0.0,0.0,0.0,0.0,0.0,0.0,0.0,0.0,0.0,0.0,0.0,0.0,0.0,0.0,0.0,0.0,0.0,0.0,0.0,0.0,0.0,0.0,0.0,0.0,0.0,0.0,0.0,0.0,0.0,0.0,0.0,0.0,0.0,0.0,0.0,0.0,0.0,0.0,0.0,0.0,0.0,0.0,0.0,0.0,0.0,0.0,0.0,0.0,0.0,0.0,0.0,0.0,0.0,0.0,0.0,0.0,0.0,0.0,0.0,0.0,0.0,0.0,0.0,0.0,0.0,0.0,0.0,0.0,0.0,0.0,0.0,0.0,0.0,0.0,0.0,0.0,0.0,0.0,0.0,0.0,0.0,0.0,0.0,0.0,0.0,0.0,0.0,0.0,0.0,0.0,0.0,0.0,0.0,0.0,0.0,0.0,0.0,0.0,0.0,0.0,0.0,0.0,0.0,0.0,0.0,0.0,0.0,0.0,0.0,0.0,0.0,0.0,0.0,0.0,0.0,0.0,0.0,0.0,0.0,0.0,0.0,0.0,0.0,0.0,0.0,0.0,0.0,0.0,0.0,0.0,0.0,0.0,0.0,0.0,0.0,0.0,0.0,0.0,0.0,0.0,0.0,0.0,0.0,0.0,0.0,0.0,0.0,0.0,0.0,0.0,0.0,0.0,0.0,0.0,0.0,0.0,0.0,0.0,0.0,0.0,0.0,0.0,0.0,0.0,0.0,0.0,0.0,0.0,0.0,0.0,0.0,0.0,0.0,0.0,0.0,0.0,0.0,0.0,0.0,0.0,0.0,0.0,0.0,0.0,0.0,0.0,0.0,0.0,0.0,0.0,0.0,0.0,0.0,0.0,0.0,0.0,0.0,0.0,0.0,0.0,0.0,0.0,0.0,0.0,0.0,0.0,0.0,0.0,0.0,0.0,0.0,0.0,0.0,0.0,0.0,0.0,0.0,0.0,0.0,0.0,0.0,0.0,0.0,0.0,0.0,0.0,0.0,0.0,0.0,0.0,0.0,0.0,0.0,0.0,0.0,0.0,0.0,0.0,0.0,0.0,0.0,0.0,0.0,0.0,0.0,0.0,0.0,0.0,0.0,0.0,0.0,0.0,0.0,0.0,0.0,0.0,0.0,0.0,0.0,0.0,0.0,0.0,0.0,0.0,0.0,0.0,0.0,0.0,0.0,0.0,0.0,0.0,0.0,0.0,0.0,0.0,0.0,0.0,0.0,0.0,0.0,0.0,0.0,0.0,0.0,0.0,0.0,0.0,0.0,0.0,0.0,0.0,0.0,0.0,0.0,0.0,0.0,0.0,0.0,0.0,0.0,0.0,0.0,0.0,0.0,0.0,0.0,0.0,0.0,0.0,0.0,0.0,0.0,0.0,0.0,0.0,0.0,0.0,0.0,0.0,0.0,0.0,0.0,0.0,0.0,0.0,0.0,0.0,0.0,0.0,0.0,0.0,0.0,0.0,0.0,0.0,0.0,0.0,0.0,0.0,0.0,0.0,0.0,0.0,0.0,0.0,0.0,0.0,0.0,0.0,0.0,0.0,0.0,0.0,0.0,0.0,0.0,0.0,0.0,0.0,0.0,0.0,0.0,0.0,0.0,0.0,0.0,0.0,0.0,0.0,0.0,0.0,0.0,0.0,0.0,0.0,0.0,0.0,0.0,0.0,0.0,0.0,0.0,0.0,0.0,0.0,0.0,0.0,0.0,0.0,0.0,0.0,0.0,0.0,0.0,0.0,0.0,0.0,0.0,0.0,0.0,0.0,0.0,0.0,0.0,0.0,0.0,0.0,0.0,0.0,0.0,0.0,0.0,0.0,0.0,0.0,0.0,0.0,0.0,0.0,0.0,0.0,0.0,0.0,0.0,0.0,0.0,0.0,0.0,0.0,0.0,0.0,0.0,0.0,0.0,0.0,0.0,0.0,0.0,0.0,0.0,0.0,0.0,0.0,0.0,0.0,0.0,0.0,0.0,0.0,0.0,0.0,0.0,0.0,0.0,0.0,0.0,0.0,0.0,0.0,0.0,0.0,0.0,0.0,0.0,0.0,0.0,0.0,0.0,0.0,0.0,0.0,0.0,0.0,0.0,0.0,0.0,0.0,0.0,0.0,0.0,0.0,0.0,0.0,0.0,0.0,0.0,0.0,0.0,0.0,0.0,0.0,0.0,0.0,0.0,0.0,0.0,0.0,0.0,0.0,0.0,0.0,0.0,0.0,0.0,0.0,0.0,0.0,0.0,0.0,0.0,0.0,0.0,0.0,0.0,0.0,0.0,0.0,0.0,0.0,0.0,0.0,0.0,0.0,0.0,0.0,0.0,0.0,0.0,0.0,0.0,0.0,0.0,0.0,0.0,0.0,0.0,0.0,0.0,0.0,0.0,0.0,0.0,0.0,0.0,0.0,0.0,0.0,0.0,0.0,0.0,0.0,0.0,0.0,0.0,0.0,0.0,0.0,0.0,0.0,0.0,0.0,0.0,0.0,0.0,0.0,0.0,0.0,0.0,0.0,0.0,0.0,0.0,0.0,0.0,0.0,0.0,0.0,0.0,0.0,0.0,0.0,0.0,0.5005,0.0,0.0,0.0,0.0,0.0,0.0,0.0,0.0,0.0,0.0,0.0,0.0,0.0,0.0,0.0,0.0,0.0,0.0,0.0,0.0,0.0,0.0,0.0,0.0,0.0,0.0,0.0,0.0,0.0,0.0,0.0,0.0,0.0,0.0,0.0,0.0,0.0,0.0,0.0,0.0,0.0,0.0,0.0,0.0,0.0,0.0,0.0,0.0,0.0,0.0,0.0,0.0,0.0,0.0,0.0,0.0,0.0,0.0,0.0,0.0,0.0,0.0,0.0,0.0,0.0,0.0,0.0,0.0,0.0,0.0,0.0,0.0,0.0,0.0,0.0,0.0,0.0,0.0,0.0,0.0,0.0,0.0,0.0,0.0,0.0,0.0,0.0,0.0,0.0,0.0,0.0,0.0,0.0,0.0,0.0,0.0,0.0,0.0,0.0,0.0,0.0,0.0,0.0,0.0,0.0,0.0,0.0,0.0,0.0,0.0,0.4981,0.4997,0.4981,0.4975,0.5005,0.0,0.0,0.0,0.0,0.0,0.0,0.0,0.0,0.0,0.0,0.0,0.0,0.0,0.0,0.0,0.0,0.0,0.0,0.0,0.0,0.0,0.0,0.0,0.0,0.0,0.0,0.0,0.0,0.0,0.0,0.0,0.0,0.0,0.0,0.0,0.0,0.0,0.0,0.0,0.0,0.0,0.0,0.0,0.0,0.0,0.0,0.0,0.0,0.0,0.0,0.0,0.0,0.0,0.0,0.0,0.0,0.0,0.0,0.0,0.0,0.0,0.0,0.0,0.0,0.0,0.0,0.0,0.0,0.0,0.0,0.0,0.0,0.0,0.0,0.0,0.0,0.0,0.0,0.0,0.0,0.0,0.0,0.0,0.0,0.0,0.0,0.0,0.0,0.0,0.0,0.0,0.0,0.0,0.0,0.0,0.0,0.0,0.0,0.0,0.0,0.0,0.0,0.0,0.0,0.0,0.0,0.0,0.0,0.0,0.0,0.0,0.0,0.526,0.5248,0.5238,0.0,0.0,0.0,0.0,0.0,0.0,0.0,0.0,0.0,0.0,0.0,0.0,0.0,0.0,0.0,0.0,0.0,0.0,0.0,0.0,0.0,0.0,0.0,0.0,0.0,0.0,0.0,0.0,0.0,0.0,0.0,0.0,0.0,0.0,0.0,0.0,0.0,0.0,0.0,0.0,0.0,0.0,0.0,0.0,0.0,0.0,0.0,0.0,0.0,0.0,0.0,0.0,0.0,0.0,0.0,0.0,0.0,0.0,0.0,0.0,0.0,0.0,0.0,0.0,0.0,0.0,0.0,0.0,0.0,0.0,0.0,0.0,0.0,0.0,0.0,0.0,0.0,0.0,0.0,0.0,0.0,0.0,0.0,0.0,0.0,0.0,0.0,0.0,0.0,0.0,0.0,0.0,0.0,0.0,0.0,0.0,0.0,0.0,0.0,0.0,0.0,0.0,0.0,0.0,0.0,0.0,0.0,0.0,0.0,0.0,0.538,0.6157,0.6053,0.0,0.5905,0.0,0.0,0.0,0.0,0.0,0.0,0.0,0.0,0.0,0.0,0.0,0.0,0.0,0.0,0.0,0.0,0.0,0.0,0.0,0.0,0.0,0.0,0.0,0.0,0.0,0.0,0.0,0.0,0.0,0.0,0.0,0.0,0.0,0.0,0.0,0.0,0.0,0.0,0.0,0.0,0.0,0.0,0.0,0.0,0.0,0.0,0.0,0.0,0.0,0.0,0.0,0.0,0.0,0.0,0.0,0.0,0.0,0.0,0.0,0.0,0.0,0.0,0.0,0.0,0.0,0.0,0.0,0.0,0.0,0.0,0.0,0.0,0.0,0.0,0.0,0.0,0.0,0.0,0.0,0.0,0.0,0.0,0.0,0.0,0.0,0.0,0.0,0.0,0.0,0.0,0.0,0.0,0.0,0.0,0.0,0.0,0.0,0.0,0.0,0.0,0.0,0.0,0.0,0.0,0.0,0.0,0.0,0.0,0.0,0.0,0.588,0.6229,0.615,0.608,0.0,0.0,0.0,0.0,0.0,0.0,0.0,0.0,0.0,0.0,0.0,0.0,0.0,0.0,0.0,0.0,0.0,0.0,0.0,0.0,0.0,0.0,0.0,0.0,0.0,0.0,0.0,0.0,0.0,0.0,0.0,0.0,0.0,0.0,0.0,0.0,0.0,0.0,0.0,0.0,0.0,0.0,0.0,0.0,0.0,0.0,0.0,0.0,0.0,0.0,0.0,0.0,0.0,0.0,0.0,0.0,0.0,0.0,0.0,0.0,0.0,0.0,0.0,0.0,0.0,0.0,0.0,0.0,0.0,0.0,0.0,0.0,0.0,0.0,0.0,0.0,0.0,0.0,0.0,0.0,0.0,0.0,0.0,0.0,0.0,0.0,0.0,0.0,0.0,0.0,0.0,0.0,0.0,0.0,0.0,0.0,0.0,0.0,0.0,0.0,0.0,0.0,0.0,0.0,0.0,0.0,0.0,0.0,0.0,0.0,0.6084,0.0,0.6516,0.6488,0.6307,0.6039,0.0,0.0,0.0,0.0,0.0,0.0,0.0,0.0,0.0,0.0,0.0,0.0,0.0,0.0,0.0,0.0,0.0,0.0,0.0,0.0,0.0,0.0,0.0,0.0,0.0,0.0,0.0,0.0,0.0,0.0,0.0,0.0,0.0,0.0,0.0,0.0,0.0,0.0,0.0,0.0,0.0,0.0,0.0,0.0,0.0,0.0,0.0,0.0,0.0,0.0,0.0,0.0,0.0,0.0,0.0,0.0,0.0,0.0,0.0,0.0,0.0,0.0,0.0,0.0,0.0,0.0,0.0,0.0,0.0,0.0,0.0,0.0,0.0,0.0,0.0,0.0,0.0,0.0,0.0,0.0,0.0,0.0,0.0,0.0,0.0,0.0,0.0,0.0,0.0,0.0,0.0,0.0,0.0,0.0,0.0,0.0,0.0,0.0,0.0,0.0,0.0,0.0,0.0,0.0,0.0,0.0,0.0,0.0,0.0,0.6699,0.6651,0.7305,0.7322,0.6948,0.0,0.0,0.0,0.0,0.0,0.0,0.0,0.0,0.0,0.0,0.0,0.0,0.0,0.0,0.0,0.0,0.0,0.0,0.0,0.0,0.0,0.0,0.0,0.0,0.0,0.0,0.0,0.0,0.0,0.0,0.0,0.0,0.0,0.0,0.0,0.0,0.0,0.0,0.0,0.0,0.0,0.0,0.0,0.0,0.0,0.0,0.0,0.0,0.0,0.0,0.0,0.0,0.0,0.0,0.0,0.0,0.0,0.0,0.0,0.0,0.0,0.0,0.0,0.0,0.0,0.0,0.0,0.0,0.0,0.0,0.0,0.0,0.0,0.0,0.0,0.0,0.0,0.0,0.0,0.0,0.0,0.0,0.0,0.0,0.0,0.0,0.0,0.0,0.0,0.0,0.0,0.0,0.0,0.0,0.0,0.0,0.0,0.0,0.0,0.0,0.0,0.0,0.0,0.0,0.0,0.0,0.0,0.0,0.0,0.5969,0.6153,0.6881,0.8126,0.7167,0.6687,0.0,0.0,0.0,0.0,0.0,0.0,0.0,0.0,0.0,0.0,0.0,0.0,0.0,0.0,0.0,0.0,0.0,0.0,0.0,0.0,0.0,0.0,0.0,0.0,0.0,0.0,0.0,0.0,0.0,0.0,0.0,0.0,0.0,0.0,0.0,0.0,0.0,0.0,0.0,0.0,0.0,0.0,0.0,0.0,0.0,0.0,0.0,0.0,0.0,0.0,0.0,0.0,0.0,0.0,0.0,0.0,0.0,0.0,0.0,0.0,0.0,0.0,0.0,0.0,0.0,0.0,0.0,0.0,0.0,0.0,0.0,0.0,0.0,0.0,0.0,0.0,0.0,0.0,0.0,0.0,0.0,0.0,0.0,0.0,0.0,0.0,0.0,0.0,0.0,0.0,0.0,0.0,0.0,0.0,0.0,0.0,0.0,0.0,0.0,0.0,0.0,0.0,0.0,0.0,0.0,0.0,0.0,0.0,0.0,0.5907,0.0,0.747,0.0,0.7184,0.6598,0.0,0.0,0.0,0.0,0.0,0.0,0.0,0.0,0.0,0.0,0.0,0.0,0.0,0.0,0.0,0.0,0.0,0.0,0.0,0.0,0.0,0.0,0.0,0.0,0.0,0.0,0.0,0.0,0.0,0.0,0.0,0.0,0.0,0.0,0.0,0.0,0.0,0.0,0.0,0.0,0.0,0.0,0.0,0.0,0.0,0.0,0.0,0.0,0.0,0.0,0.0,0.0,0.0,0.0,0.0,0.0,0.0,0.0,0.0,0.0,0.0,0.0,0.0,0.0,0.0,0.0,0.0,0.0,0.0,0.0,0.0,0.0,0.0,0.0,0.0,0.0,0.0,0.0,0.0,0.0,0.0,0.0,0.0,0.0,0.0,0.0,0.0,0.0,0.0,0.0,0.0,0.0,0.0,0.0,0.0,0.0,0.0,0.0,0.0,0.0,0.0,0.0,0.0,0.0,0.0,0.0,0.0,0.0,0.593,0.7504,0.8349,0.8394,0.7588,0.7502,0.6714,0.0,0.0,0.0,0.0,0.0,0.0,0.0,0.0,0.0,0.0,0.0,0.0,0.0,0.0,0.0,0.0,0.0,0.0,0.0,0.0,0.0,0.0,0.0,0.0,0.0,0.0,0.0,0.0,0.0,0.0,0.0,0.0,0.0,0.0,0.0,0.0,0.0,0.0,0.0,0.0,0.0,0.0,0.0,0.0,0.0,0.0,0.0,0.0,0.0,0.0,0.0,0.0,0.0,0.0,0.0,0.0,0.0,0.0,0.0,0.0,0.0,0.0,0.0,0.0,0.0,0.0,0.0,0.0,0.0,0.0,0.0,0.0,0.0,0.0,0.0,0.0,0.0,0.0,0.0,0.0,0.0,0.0,0.0,0.0,0.0,0.0,0.0,0.0,0.0,0.0,0.0,0.0,0.0,0.0,0.0,0.0,0.0,0.0,0.0,0.0,0.0,0.0,0.0,0.0,0.0,0.0,0.0,0.0,0.0,0.6795,0.7623,0.8488,0.9256,0.7592,0.6987,0.0,0.0,0.0,0.0,0.0,0.0,0.0,0.0,0.0,0.0,0.0,0.0,0.0,0.0,0.0,0.0,0.0,0.0,0.0,0.0,0.0,0.0,0.0,0.0,0.0,0.0,0.0,0.0,0.0,0.0,0.0,0.0,0.0,0.0,0.0,0.0,0.0,0.0,0.0,0.0,0.0,0.0,0.0,0.0,0.0,0.0,0.0,0.0,0.0,0.0,0.0,0.0,0.0,0.0,0.0,0.0,0.0,0.0,0.0,0.0,0.0,0.0,0.0,0.0,0.0,0.0,0.0,0.0,0.0,0.0,0.0,0.0,0.0,0.0,0.0,0.0,0.0,0.0,0.0,0.0,0.0,0.0,0.0,0.0,0.0,0.0,0.0,0.0,0.0,0.0,0.0,0.0,0.0,0.0,0.0,0.0,0.0,0.0,0.0,0.0,0.0,0.0,0.0,0.0,0.0,0.0,0.0,0.0,0.0,0.834,0.9151,0.9942,1.066,0.8779,0.7817,0.7909,0.0,0.0,0.0,0.0,0.0,0.0,0.0,0.0,0.0,0.0,0.0,0.0,0.0,0.0,0.0,0.0,0.0,0.0,0.0,0.0,0.0,0.0,0.0,0.0,0.0,0.0,0.0,0.0,0.0,0.0,0.0,0.0,0.0,0.0,0.0,0.0,0.0,0.0,0.0,0.0,0.0,0.0,0.0,0.0,0.0,0.0,0.0,0.0,0.0,0.0,0.0,0.0,0.0,0.0,0.0,0.0,0.0,0.0,0.0,0.0,0.0,0.0,0.0,0.0,0.0,0.0,0.0,0.0,0.0,0.0,0.0,0.0,0.0,0.0,0.0,0.0,0.0,0.0,0.0,0.0,0.0,0.0,0.0,0.0,0.0,0.0,0.0,0.0,0.0,0.0,0.0,0.0,0.0,0.0,0.0,0.0,0.0,0.0,0.0,0.0,0.0,0.0,0.0,0.0,0.0,0.0,0.0,0.0,1.1638,1.2636,1.2731,1.1846,1.0806,0.9132,0.0,0.0,0.0,0.0,0.0,0.0,0.0,0.0,0.0,0.0,0.0,0.0,0.0,0.0,0.0,0.0,0.0,0.0,0.0,0.0,0.0,0.0,0.0,0.0,0.0,0.0,0.0,0.0,0.0,0.0,0.0,0.0,0.0,0.0,0.0,0.0,0.0,0.0,0.0,0.0,0.0,0.0,0.0,0.0,0.0,0.0,0.0,0.0,0.0,0.0,0.0,0.0,0.0,0.0,0.0,0.0,0.0,0.0,0.0,0.0,0.0,0.0,0.0,0.0,0.0,0.0,0.0,0.0,0.0,0.0,0.0,0.0,0.0,0.0,0.0,0.0,0.0,0.0,0.0,0.0,0.0,0.0,0.0,0.0,0.0,0.0,0.0,0.0,0.0,0.0,0.0,0.0,0.0,0.0,0.0,0.0,0.0,0.0,0.0,0.0,0.0,0.0,0.0,0.0,0.0,0.0,0.0,0.0,0.0,1.3401,1.6107,1.6816,1.533,1.2673,1.0935,0.0,0.0,0.0,0.0,0.0,0.0,0.0,0.0,0.0,0.0,0.0,0.0,0.0,0.0,0.0,0.0,0.0,0.0,0.0,0.0,0.0,0.0,0.0,0.0,0.0,0.0,0.0,0.0,0.0,0.0,0.0,0.0,0.0,0.0,0.0,0.0,0.0,0.0,0.0,0.0,0.0,0.0,0.0,0.0,0.0,0.0,0.0,0.0,0.0,0.0,0.0,0.0,0.0,0.0,0.0,0.0,0.0,0.0,0.0,0.0,0.0,0.0,0.0,0.0,0.0,0.0,0.0,0.0,0.0,0.0,0.0,0.0,0.0,0.0,0.0,0.0,0.0,0.0,0.0,0.0,0.0,0.0,0.0,0.0,0.0,0.0,0.0,0.0,0.0,0.0,0.0,0.0,0.0,0.0,0.0,0.0,0.0,0.0,0.0,0.0,0.0,0.0,0.0,0.0,0.0,0.0,0.0,0.0,1.3024,1.5643,1.9001,2.0336,1.9414,1.6094,1.3242,0.0,0.0,0.0,0.0,0.0,0.0,0.0,0.0,0.0,0.0,0.0,0.0,0.0,0.0,0.0,0.0,0.0,0.0,0.0,0.0,0.0,0.0,0.0,0.0,0.0,0.0,0.0,0.0,0.0,0.0,0.0,0.0,0.0,0.0,0.0,0.0,0.0,0.0,0.0,0.0,0.0,0.0,0.0,0.0,0.0,0.0,0.0,0.0,0.0,0.0,0.0,0.0,0.0,0.0,0.0,0.0,0.0,0.0,0.0,0.0,0.0,0.0,0.0,0.0,0.0,0.0,0.0,0.0,0.0,0.0,0.0,0.0,0.0,0.0,0.0,0.0,0.0,0.0,0.0,0.0,0.0,0.0,0.0,0.0,0.0,0.0,0.0,0.0,0.0,0.0,0.0,0.0,0.0,0.0,0.0,0.0,0.0,0.0,0.0,0.0,0.0,0.0,0.0,0.0,0.0,0.0,0.0,0.0,1.5299,1.7905,2.1275,2.3091,2.3118,1.9823,1.5742,0.0,0.0,0.0,0.0,0.0,0.0,0.0,0.0,0.0,0.0,0.0,0.0,0.0,0.0,0.0,0.0,0.0,0.0,0.0,0.0,0.0,0.0,0.0,0.0,0.0,0.0,0.0,0.0,0.0,0.0,0.0,0.0,0.0,0.0,0.0,0.0,0.0,0.0,0.0,0.0,0.0,0.0,0.0,0.0,0.0,0.0,0.0,0.0,0.0,0.0,0.0,0.0,0.0,0.0,0.0,0.0,0.0,0.0,0.0,0.0,0.0,0.0,0.0,0.0,0.0,0.0,0.0,0.0,0.0,0.0,0.0,0.0,0.0,0.0,0.0,0.0,0.0,0.0,0.0,0.0,0.0,0.0,0.0,0.0,0.0,0.0,0.0,0.0,0.0,0.0,0.0,0.0,0.0,0.0,0.0,0.0,0.0,0.0,0.0,0.0,0.0,0.0,0.0,0.0,0.0,0.0,0.0,0.0,1.6195,1.8799,2.2161,2.3967,2.4018,2.008,1.6797,0.0,0.0,0.0,0.0,0.0,0.0,0.0,0.0,0.0,0.0,0.0,0.0,0.0,0.0,0.0,0.0,0.0,0.0,0.0,0.0,0.0,0.0,0.0,0.0,0.0,0.0,0.0,0.0,0.0,0.0,0.0,0.0,0.0,0.0,0.0,0.0,0.0,0.0,0.0,0.0,0.0,0.0,0.0,0.0,0.0,0.0,0.0,0.0,1.0005,0.0,0.0,0.0,0.0,0.0,0.0,0.0,0.0,0.0,0.0,0.0,0.0,0.0,0.0,0.0,0.0,0.0,0.0,0.0,0.0,0.0,0.0,0.0,0.0,0.0,0.0,0.0,0.0,0.0,0.0,0.0,0.0,0.0,0.0,0.0,0.0,0.0,0.0,0.0,0.0,0.0,0.0,0.0,0.0,0.0,0.0,0.0,0.0,0.0,0.0,0.0,0.0,0.0,0.0,0.0,0.0,0.0,0.0,0.0,1.7214,2.0093,2.3131,2.4755,2.4688,2.1483,1.815,0.0,0.0,0.0,0.0,0.0,0.0,0.0,0.0,0.0,0.0,0.0,0.0,0.0,0.0,0.0,0.0,0.0,0.0,0.0,0.0,0.0,0.0,0.0,0.0,0.0,0.0,0.0,0.0,0.0,0.0,0.0,0.0,0.0,0.0,0.0,0.0,0.0,0.0,0.0,0.0,0.0,0.0,0.0,0.0,0.0,0.0,0.0,0.0,0.0,0.0,0.0,0.0,0.0,0.0,0.0,0.0,0.0,0.0,0.0,0.0,0.0,0.0,0.0,0.0,0.0,0.0,0.0,0.0,0.0,0.0,0.0,0.0,0.0,0.0,0.0,0.0,0.0,0.0,0.0,0.0,0.0,0.0,0.0,0.0,0.0,0.0,0.0,0.0,0.0,0.0,0.0,0.0,0.0,0.0,0.0,0.0,0.0,0.0,0.0,0.0,0.0,0.0,0.0,0.0,0.0,0.0,0.0,1.4749,1.8067,2.1355,2.3945,2.5283,2.5313,2.2965,1.936,1.4511,0.0,0.0,0.0,0.0,0.0,0.0,0.0,0.0,0.0,0.0,0.0,0.0,0.0,0.0,0.0,0.0,0.0,0.0,0.0,0.0,0.0,0.0,0.0,0.0,0.0,0.0,0.0,0.0,0.0,0.0,0.0,0.0,0.0,0.0,0.0,0.0,0.0,0.0,1.0616,1.1679,0.0,0.0,0.0,0.0,0.0,0.0,0.0,0.0,1.595,0.0,0.0,0.0,0.0,0.0,0.0,0.0,0.0,0.0,0.0,0.0,0.0,0.0,0.0,0.0,0.0,0.0,0.0,0.0,0.0,0.0,0.0,0.0,0.0,0.0,0.0,0.0,0.0,0.0,0.0,0.0,0.0,0.0,0.0,0.0,0.0,0.0,0.0,0.0,0.0,0.0,0.0,0.0,0.0,0.0,0.0,0.0,0.0,0.0,0.0,0.0,0.0,0.0,0.0,0.0,0.0,1.3042,1.5119,1.8097,2.2036,2.4048,2.5083,2.5081,2.2849,1.9558,1.5324,0.0,0.0,0.0,0.0,0.0,0.0,0.0,0.0,0.0,0.0,0.0,0.0,0.0,0.0,0.0,0.0,0.0,0.0,0.0,0.0,0.0,0.0,0.0,0.0,0.0,0.0,0.0,0.0,0.0,0.0,0.0,0.0,0.0,0.0,0.0,0.0,0.0,0.0,0.0,1.5209,1.6229,0.0,0.0,0.0,0.0,0.0,0.0,0.0,0.0,2.1433,0.0,0.0,0.0,0.0,0.0,0.0,0.0,0.0,0.0,0.0,0.0,0.0,0.0,0.0,0.0,0.0,0.0,0.0,0.0,0.0,0.0,0.0,0.0,0.0,0.0,0.0,0.0,0.0,0.0,0.0,0.0,0.0,0.0,0.0,0.0,0.0,0.0,0.0,0.0,0.0,0.0,0.0,0.0,0.0,0.0,0.0,0.0,0.0,0.0,0.0,0.0,0.0,0.0,0.0,0.0,1.278,1.6202,1.9329,2.2079,2.4012,2.5027,2.4988,2.197,1.8693,0.0,0.0,0.0,0.0,0.0,0.0,0.0,0.0,0.0,0.0,0.0,0.0,0.0,0.0,0.0,0.0,0.0,0.0,0.0,0.0,0.0,0.0,0.0,0.0,0.0,0.0,0.0,0.0,0.0,0.0,0.0,0.0,0.0,0.0,0.0,0.0,0.0,0.0,0.0,0.0,1.6296,1.7351,1.9561,0.0,0.0,0.0,0.0,0.0,0.0,2.0908,2.2633,0.0,0.0,0.0,0.0,0.0,0.0,0.0,0.0,0.0,0.0,0.0,0.0,0.0,0.0,0.0,0.0,0.0,0.0,0.0,0.0,0.0,0.0,0.0,0.0,0.0,0.0,0.0,0.0,0.0,0.0,0.0,0.0,0.0,0.0,0.0,0.0,0.0,0.0,0.0,0.0,0.0,0.0,0.0,0.0,0.0,0.0,0.0,0.0,0.0,0.0,0.0,0.0,0.0,0.0,0.0,1.2196,1.6899,2.0223,2.1928,2.3893,2.4924,2.4885,2.1264,1.8002,0.0,0.0,0.0,0.0,0.0,0.0,0.0,0.0,0.0,0.0,0.0,0.0,0.0,0.0,0.0,0.0,0.0,0.0,0.0,0.0,0.0,0.0,0.0,0.0,0.0,0.0,0.0,0.0,0.0,0.0,0.0,0.0,0.0,0.0,0.0,0.0,0.0,0.0,0.0,0.0,0.0,1.8546,2.128,1.9204,0.0,0.0,0.0,0.0,1.7748,2.1647,0.0,0.0,0.0,0.0,0.0,0.0,0.0,0.0,0.0,0.0,0.0,0.0,0.0,0.0,0.0,0.0,0.0,0.0,0.0,0.0,0.0,0.0,0.0,0.0,0.0,0.0,0.0,0.0,0.0,0.0,0.0,0.0,0.0,0.0,0.0,0.0,0.0,0.0,0.0,0.0,0.0,0.0,0.0,0.0,0.0,0.0,0.0,0.0,0.0,0.0,0.0,0.0,0.0,0.0,0.0,0.0,1.215,1.6189,1.9442,2.1762,2.3624,2.4654,2.4776,2.162,1.8427,0.0,0.0,0.0,0.0,0.0,0.0,0.0,0.0,0.0,0.0,0.0,0.0,0.0,0.0,0.0,0.0,0.0,0.0,0.0,0.0,0.0,0.0,0.0,0.0,0.0,0.0,0.0,0.0,0.0,0.0,0.0,0.0,0.0,0.0,0.0,0.0,0.0,0.0,0.0,0.0,0.0,2.1165,2.1646,2.0656,1.9943,0.0,0.0,1.7796,1.9715,2.0499,0.0,0.0,0.0,0.0,0.0,0.0,0.0,0.0,0.0,0.0,0.0,0.0,0.0,0.0,0.0,0.0,0.0,0.0,0.0,0.0,0.0,0.0,0.0,0.0,0.0,0.0,0.0,0.0,0.0,0.0,0.0,0.0,0.0,0.0,0.0,0.0,0.0,0.0,0.0,0.0,0.0,0.0,0.0,0.0,0.0,0.0,0.0,0.0,0.0,0.0,0.0,0.0,0.0,0.0,0.0,1.1068,1.2242,1.7436,2.0737,2.1803,2.3557,2.4321,2.3945,2.0429,1.7223,0.0,0.0,0.0,0.0,0.0,0.0,0.0,0.0,0.0,0.0,0.0,0.0,0.0,0.0,0.0,0.0,0.0,0.0,0.0,0.0,0.0,0.0,0.0,0.0,0.0,0.0,0.0,0.0,0.0,0.0,0.0,0.0,0.0,0.0,0.0,0.0,0.0,0.0,0.0,0.0,0.0,0.0,2.235,2.1688,0.0,0.0,0.0,1.8795,2.143,0.0,0.0,0.0,0.0,0.0,0.0,0.0,0.0,0.0,0.0,0.0,0.0,0.0,0.0,0.0,0.0,0.0,0.0,0.0,0.0,0.0,0.0,0.0,0.0,0.0,0.0,0.0,0.0,0.0,0.0,0.0,0.0,0.0,0.0,0.0,0.0,0.0,0.0,0.0,0.0,0.0,0.0,0.0,0.0,0.0,0.0,0.0,0.0,0.0,0.0,0.0,0.0,0.0,0.0,0.0,0.0,0.0,1.2499,1.8607,2.1896,2.2133,2.3617,2.4165,2.3561,2.0176,0.0,0.0,0.0,0.0,0.0,0.0,0.0,0.0,0.0,0.0,0.0,0.0,0.0,0.0,0.0,0.0,0.0,0.0,0.0,0.0,0.0,0.0,0.0,0.0,0.0,0.0,0.0,0.5594,0.0,0.0,0.0,0.0,0.0,0.0,0.0,0.0,0.0,0.0,0.0,0.0,0.0,0.0,2.171,2.2917,2.2637,2.273,0.0,0.0,1.9814,2.3154,2.4632,2.4234,0.0,0.0,0.0,0.0,0.0,0.0,0.0,0.0,0.0,0.0,0.0,0.0,0.0,0.0,0.0,0.0,0.0,0.0,0.0,0.0,0.0,0.0,0.0,0.0,0.0,0.0,0.0,0.0,0.0,0.0,0.0,0.0,0.0,0.0,0.0,0.0,0.0,0.0,0.0,0.0,0.0,0.0,0.0,0.0,0.0,0.0,0.0,0.0,0.0,0.0,0.0,0.0,0.0,0.0,0.0,1.339,1.8882,2.2152,2.2923,2.3768,2.4284,2.4364,2.2042,1.8859,0.0,0.0,0.0,0.0,0.0,0.0,0.0,0.0,0.0,0.0,0.0,0.0,0.0,0.0,0.0,0.0,0.0,0.0,0.0,0.0,0.0,0.0,0.0,0.0,0.0,0.0,0.0,0.0,0.0,0.0,0.0,0.0,0.0,0.0,0.0,0.0,0.0,0.0,0.0,0.0,0.0,2.3686,2.3114,2.3605,2.465,0.0,2.3105,2.1621,2.498,2.5586,2.4449,2.0887,0.0,0.0,0.0,0.0,0.0,0.0,0.0,0.0,0.0,0.0,0.0,0.0,0.0,0.0,0.0,0.0,0.0,0.0,0.0,0.0,0.0,0.0,0.0,0.0,0.0,0.0,0.0,0.0,0.0,0.0,0.0,0.0,0.0,0.0,0.0,0.0,0.0,0.0,0.0,0.0,0.0,0.0,0.0,0.0,0.0,0.0,0.0,0.0,0.0,0.0,0.0,0.0,0.0,1.2499,1.3353,1.8919,2.2189,2.2978,2.3786,2.4008,2.3583,2.1913,1.9037,0.0,0.0,0.0,0.0,0.0,0.0,0.0,0.0,0.0,0.0,0.0,0.0,0.0,0.0,0.0,0.0,0.0,0.0,0.0,0.0,0.0,0.0,0.0,0.0,0.0,0.0,0.0,0.0,0.7989,0.8197,0.7661,0.0,0.0,0.0,0.0,0.0,0.0,0.0,0.0,0.0,0.0,2.3732,2.4492,2.5284,0.0,0.0,2.5703,2.4609,2.416,2.5,2.5213,2.3834,1.9593,0.0,0.0,0.0,0.0,0.0,0.0,0.0,0.0,0.0,0.0,0.0,0.0,0.0,0.0,0.0,0.0,0.0,0.0,0.0,0.0,0.0,0.0,0.0,0.0,0.0,0.0,0.0,0.0,0.0,0.0,0.0,0.0,0.0,0.0,0.0,0.0,0.0,0.0,0.0,0.0,0.0,0.0,0.0,0.0,0.0,0.0,0.0,0.0,0.0,0.0,0.0,0.0,1.2719,1.4033,1.9158,2.2299,2.3345,2.3914,2.3933,2.3345,2.2312,1.9864,0.0,0.0,0.0,0.0,0.0,0.0,0.0,0.0,0.0,0.0,0.0,0.0,0.0,0.0,0.0,0.0,0.0,0.0,0.0,0.0,0.0,0.0,0.0,0.0,0.0,0.0,0.0,0.0,0.8174,0.8271,0.7661,0.0,0.0,0.0,0.0,0.0,0.0,0.0,0.0,0.0,0.0,2.4571,2.5807,2.6477,2.6939,2.7234,2.6768,2.6152,2.5527,2.4746,2.414,2.4102,0.0,0.0,0.0,0.0,0.0,0.0,0.0,0.0,0.0,0.0,0.0,0.0,0.0,0.0,0.0,0.0,0.0,0.0,0.0,0.0,0.0,0.0,0.0,0.0,0.0,0.0,0.0,0.5697,0.0,0.0,0.4567,0.0,0.0,0.0,0.0,0.0,0.0,0.0,0.0,0.0,0.0,0.0,0.0,0.0,0.0,0.0,0.0,0.0,0.0,0.0,0.0,0.0,0.0,1.3269,1.5637,1.9711,2.2575,2.4098,2.419,2.419,2.4154,2.3683,2.1819,1.8334,0.0,0.0,0.0,0.0,0.0,0.0,0.0,0.0,0.0,0.0,0.0,0.0,0.0,0.0,0.0,0.0,0.0,0.0,0.0,0.0,0.0,0.0,0.0,0.0,0.0,0.0,0.5385,0.6688,0.7642,0.0,0.0,0.0,0.0,0.0,0.0,0.0,0.0,0.0,2.4694,2.6169,2.6738,2.6848,2.6909,2.7248,2.8038,2.5931,2.5644,2.9805,2.5098,2.0648,0.0,0.0,0.0,0.0,0.0,0.0,0.0,0.0,0.0,0.0,0.0,0.0,0.0,0.0,0.0,0.0,0.0,0.0,0.0,0.0,0.0,0.0,0.0,0.0,0.0,0.0,0.0,0.9337,0.8213,0.0,0.0,0.0,0.0,0.0,0.0,0.0,0.0,0.0,0.0,0.0,1.4845,1.5529,0.0,0.0,0.0,0.0,0.0,0.0,0.0,0.0,0.0,0.0,0.0,0.0,1.3831,1.5802,2.0024,2.2901,2.4171,2.3976,2.3958,2.419,2.3611,2.155,1.784,0.0,0.0,0.0,0.0,0.0,0.0,0.0,0.0,0.0,0.0,0.0,0.0,0.0,0.0,0.0,0.0,0.0,0.0,0.0,0.0,0.0,0.0,0.0,0.0,0.0,0.661,0.0,0.0,0.0,0.0,0.0,0.0,0.0,0.0,0.0,0.0,0.0,2.0962,2.4994,2.5774,2.616,2.6815,2.7891,2.8746,0.0,0.0,0.0,0.0,0.0,0.0,0.0,0.0,0.0,0.0,0.0,0.0,0.0,0.0,2.0871,1.566,1.5252,1.5154,1.332,0.0,0.0,0.0,0.0,0.0,0.0,0.0,0.0,0.0,0.0,0.0,0.0,0.0,0.0,1.2256,1.1136,1.1365,0.0,0.0,0.0,0.0,0.0,0.0,0.0,0.0,1.6752,1.8095,1.8577,1.9243,1.8969,1.7876,1.7514,1.5347,0.0,0.0,0.0,0.0,0.0,0.0,0.0,0.0,1.4946,1.6893,2.0572,2.2937,2.3801,2.3753,2.3816,2.4016,2.3558,2.2004,1.9248,1.7463,1.5228,0.0,0.0,0.0,0.0,0.0,0.0,0.0,0.0,0.0,0.0,0.0,0.0,0.0,0.0,0.0,0.0,0.0,0.0,0.0,0.0,0.0,0.0,0.0,0.768,0.0,0.0,0.0,0.0,0.0,0.0,0.0,0.0,0.0,1.8715,2.0408,2.2821,2.5986,2.6411,2.664,2.7304,0.0,0.0,0.0,0.0,0.0,0.0,0.0,2.6476,3.1368,3.0519,2.9014,2.8501,2.8037,2.7504,2.6827,0.0,0.0,1.9729,1.8935,1.8332,1.5971,1.5748,1.5586,1.4184,1.3584,1.2687,0.0,0.0,0.0,0.0,1.1336,0.0,0.0,0.0,1.5422,1.5113,0.0,1.4386,0.0,0.0,0.0,0.0,1.1303,1.4933,0.0,0.0,2.1539,2.3393,2.3371,2.3579,2.2986,2.1567,2.176,2.0355,1.7354,1.4295,0.0,0.0,0.0,0.0,0.0,0.0,1.6589,1.886,2.1269,2.2747,2.3194,2.3482,2.3671,2.3696,2.3607,2.3207,2.2467,2.0335,1.8355,1.6657,1.3406,0.0,0.0,0.0,0.0,0.0,0.0,0.0,0.0,0.0,0.0,0.0,0.0,0.0,0.0,0.0,0.0,0.0,0.0,0.0,0.0,0.8581,0.0,0.0,0.0,0.0,0.0,0.0,0.0,0.0,0.0,0.0,2.463,2.4601,2.5187,2.773,0.0,0.0,0.0,0.0,2.9062,2.7461,2.7168,2.6934,2.6055,2.4478,2.6108,3.4139,0.0,0.0,2.9945,2.9136,2.8546,2.7217,2.7656,2.689,2.3874,2.2454,2.1354,2.0077,1.9289,1.7975,1.5288,1.4408,1.3849,1.5588,0.0,0.0,0.0,0.0,1.6068,1.7469,1.9653,1.9546,1.9075,1.8341,1.8128,0.0,0.0,0.0,0.0,0.0,0.0,1.888,2.0471,2.2082,2.331,2.4171,2.4245,2.4054,2.3629,2.3699,2.3283,2.2385,2.096,1.7501,1.2234,0.0,0.0,0.0,0.0,1.763,1.9416,2.1527,2.2816,2.3189,2.3069,2.3212,2.3674,2.4025,2.3904,2.3226,2.2685,2.1436,1.9285,1.708,0.0,0.0,0.0,0.0,0.0,0.0,0.0,0.0,0.0,0.0,0.0,0.0,0.0,0.0,0.0,0.0,0.0,0.0,0.0,1.217,1.1306,1.079,0.0,0.0,0.0,0.0,0.0,0.0,0.0,0.0,0.0,2.5187,2.6534,2.7566,0.0,0.0,2.8152,2.8279,2.957,3.0351,2.9863,3.0312,0.0,2.9551,2.7939,2.8769,3.4576,3.4932,3.4086,3.301,3.3677,3.3962,3.266,3.2284,3.1408,2.9231,2.6419,2.4071,2.2528,2.1534,1.9843,1.6448,1.5041,1.391,1.8628,1.7334,1.7088,1.7661,1.8702,1.8839,1.9989,2.1843,2.1707,2.1384,2.0971,2.0784,1.9693,1.7996,1.8174,0.0,0.0,0.0,2.1575,2.3315,2.3735,2.4384,2.5141,2.5192,2.4877,2.4365,2.4529,2.4476,2.4191,2.3671,2.1044,1.6504,0.0,1.4898,1.5263,1.7439,1.9136,2.0371,2.1895,2.2764,2.2849,2.2764,2.3021,2.3671,2.408,2.4163,2.3923,2.3834,2.3144,2.1723,1.9462,1.6984,0.0,0.0,0.0,0.0,0.0,0.0,0.0,0.0,0.0,0.0,0.0,0.8254,0.7061,0.0,0.0,0.0,0.7836,1.1115,1.4825,1.4112,0.0,0.0,0.0,0.0,0.0,0.0,0.0,2.0804,2.3428,2.5822,2.7168,2.9698,3.1056,3.0113,2.9747,2.9622,2.9743,0.0,3.1758,3.1445,3.2129,3.25,3.1973,3.1002,3.1746,3.5815,3.5978,3.5571,3.545,3.6123,3.6297,3.5343,3.4641,3.3793,3.2349,2.977,2.7121,2.49,2.3376,2.1197,1.7338,1.5568,1.4116,2.0603,2.0508,1.9065,1.9106,2.0109,2.0677,2.1595,2.2573,2.2546,2.2528,2.2538,2.2497,2.1841,2.087,2.1261,0.0,2.254,2.3491,2.4666,2.6027,2.6027,2.6141,2.627,2.6254,2.56,2.4377,2.4736,2.4572,2.3933,2.3677,2.3169,2.2389,2.0969,1.9975,1.9527,2.0246,2.0984,2.1652,2.2306,2.2537,2.231,2.2563,2.2996,2.3588,2.381,2.41,2.4422,2.403,2.3826,2.3774,2.0937,1.965,2.0246,0.0,0.0,0.0,0.0,0.0,0.0,0.0,0.0,0.0,0.0,0.0,0.0,0.0,0.0,0.0,1.2368,0.0,1.6645,1.6971,0.0,0.0,0.0,2.0949,2.3332,2.5343,2.6289,2.56,0.0,0.0,3.0398,3.3545,3.4922,3.3325,3.2413,3.1949,3.2098,3.2793,3.3164,3.2539,3.3105,3.3594,3.3633,3.3711,3.4722,3.7294,3.7182,3.6785,3.706,3.7113,3.6682,3.5978,3.5361,3.476,3.3768,3.2504,3.0741,2.7561,2.5262,2.2477,1.8267,1.6165,1.4576,2.0603,2.06,2.0918,2.1544,2.2454,2.2176,2.2975,2.4381,2.393,2.3755,2.3898,2.3393,2.299,2.279,2.3406,2.3795,2.3987,2.4792,2.5572,2.6274,2.629,2.6549,2.6946,2.6946,2.6771,2.6461,2.6054,2.5779,2.5587,2.5061,2.4305,2.3373,2.2704,2.1812,2.0824,2.1513,2.2235,2.2949,2.2592,2.236,2.231,2.2563,2.2754,2.2947,2.3241,2.3623,2.41,2.4005,2.4132,2.4487,2.2704,2.1819,2.2092,1.5792,0.0,0.0,0.0,0.0,0.0,0.0,0.0,0.0,0.0,1.2985,0.919,0.0,1.3059,0.0,1.3358,1.9377,2.0884,1.9752,0.0,0.0,2.3222,2.4124,2.5981,2.7744,2.8442,2.7415,2.9506,3.1891,3.4026,3.5007,3.5359,3.4903,3.3622,3.2798,3.2995,3.3754,3.4238,3.4219,3.4824,3.5371,3.5391,3.6521,3.7479,3.7932,3.8358,3.8508,3.808,3.8512,3.8588,3.7594,3.7266,3.6626,3.5361,3.4813,3.3567,3.0822,2.7919,2.4028,1.8559,1.6975,1.5544,2.0569,2.0642,2.1136,2.184,2.27,2.2826,2.3426,2.4293,2.4387,2.4442,2.4601,2.453,2.4496,2.4552,2.5259,2.5671,2.5796,2.6156,2.656,2.693,2.693,2.6949,2.6915,2.696,2.676,2.6494,2.6322,2.6277,2.6304,2.6172,2.5644,2.4827,2.4585,2.3845,2.2519,2.1972,2.201,2.2571,2.2311,2.2186,2.217,2.2315,2.218,2.1759,2.2039,2.2289,2.244,2.2698,2.283,2.2858,2.1783,2.1657,2.263,1.6969,1.1957,0.0,0.0,0.0,0.0,0.0,0.0,0.0,0.0,0.0,0.0,0.0,1.8146,1.3316,1.8743,2.2759,2.3253,2.2905,2.3673,2.619,2.6832,2.7743,2.9376,3.0478,3.0958,3.0601,3.2397,3.4522,3.6587,3.6524,3.6366,3.6642,3.5725,3.4974,3.4999,3.5667,3.6272,3.6367,3.6582,3.6543,3.6113,3.8125,3.968,3.9473,3.9391,3.933,3.9185,3.9378,3.9346,3.8608,3.8125,3.7755,3.7079,3.6165,3.5052,3.3483,3.0837,2.7103,2.2422,1.9813,1.7209,2.0654,2.0732,2.0732,2.1258,2.2077,2.286,2.3232,2.3317,2.4152,2.4546,2.4678,2.5293,2.5657,2.5795,2.6566,2.6993,2.713,2.7227,2.735,2.7542,2.7578,2.73,2.6722,2.6707,2.6422,2.5869,2.6245,2.6426,2.6411,2.682,2.6667,2.6084,2.6012,2.537,2.4053,2.2096,2.1295,2.1655,2.1988,2.2093,2.2013,2.1804,2.1279,2.048,2.0594,2.0569,2.0397,2.0868,2.0934,2.0506,1.9915,2.0421,2.2135,1.7671,1.4511,0.0,1.2815,0.0,0.0,0.0,0.0,0.0,0.0,0.0,0.0,2.0037,2.153,2.2777,2.5401,2.6426,2.4926,2.6073,2.7556,2.9114,2.9963,3.103,3.2454,3.3025,3.3401,3.376,3.426,3.5624,3.8158,3.7882,3.7572,3.8137,3.785,3.7375,3.7309,3.7693,3.8098,3.8379,3.8066,3.7539,3.7344,3.9297,4.1094,4.1035,4.0315,3.975,4.0069,3.989,3.9534,3.9133,3.8517,3.8212,3.8658,3.7193,3.6011,3.5481,3.3499,3.0793,2.7181,2.3167,1.9488,2.0679,2.1641,2.1631,2.1794,2.1979,2.2573,2.2794,2.2781,2.3003,2.327,2.3568,2.3743,2.4226,2.5052,2.5795,2.6134,2.621,2.6795,2.7187,2.7339,2.7339,2.7392,2.7395,2.743,2.732,2.722,2.6808,2.6585,2.657,2.6121,2.5726,2.5443,2.507,2.4594,2.3875,0.0,0.0,0.0,2.2559,2.2604,2.1963,2.062,1.9972,2.0054,1.9295,0.0,1.9663,2.0062,2.0333,2.047,2.0137,0.0,0.0,0.0,0.0,0.0,0.0,0.0,0.0,0.0,0.0,0.0,1.9426,1.9306,1.9265,2.0694,2.2355,2.4212,2.7415,2.9053,2.8124,2.8271,2.9101,3.0676,3.135,3.2062,3.2984,3.3991,3.443,3.387,3.3921,3.52,3.8065,3.8493,3.8607,3.9091,3.8893,3.8668,3.8823,3.8483,3.8249,3.834,3.8516,3.8926,4.0059,4.0742,4.1191,4.1133,4.0877,4.0449,4.0246,4.0098,3.9775,3.9238,3.899,3.881,3.8732,3.8368,3.7506,3.5907,3.5161,3.3556,2.9378,2.5411,2.1162,1.9443,2.0054,2.0063,2.0063,0.0,2.0961,2.1341,2.1433,2.2603,2.3213,2.3409,2.3409,2.3989,2.4927,2.5282,2.5753,2.6327,2.6689,2.6977,2.7172,2.7584,2.7845,2.7974,2.8062,2.8068,2.8053,2.7395,2.7066,2.7051,2.6376,2.581,2.5416,2.481,2.4239,2.3644,2.2644,2.1915,2.1411,2.1764,2.1764,2.1382,2.0533,1.9723,1.9036,1.8668,0.0,0.0,0.0,0.0,0.0,0.0,0.0,0.0,0.0,0.0,2.1587,1.9372,1.7751,1.7459,1.9021,2.095,2.3073,2.3512,2.3209,2.2133,2.3344,2.4735,2.6142,2.8914,3.0488,3.0118,2.9836,3.0268,3.1711,3.2424,3.2967,3.344,3.4253,3.4862,3.4975,3.4994,3.5828,3.769,3.8433,3.8773,3.9127,3.9209,3.9296,3.9618,3.9541,3.9472,3.9726,3.9824,4.0176,4.0976,4.1191,4.1191,4.1172,4.0968,4.0723,4.0526,4.0267,3.9903,3.9438,3.9212,3.9008,3.8762,3.8707,3.8368,3.7396,3.6746,3.5345,3.1867,2.8395,2.4584,1.8264,1.8431,1.8431,1.8431,1.8518,1.9393,1.9835,2.015,2.2273,0.0,0.0,2.3475,2.3948,2.4848,2.5004,2.5595,2.6401,2.6609,2.6794,2.6958,2.7687,2.8009,2.8054,2.8265,2.8257,2.8178,2.7617,2.7292,2.7188,2.6616,2.6012,2.546,2.4892,2.4147,2.34,2.2852,2.2038,2.0989,2.0836,2.0809,2.0809,2.0498,1.9658,1.8166,1.8252,1.7817,1.6928,1.7535,1.7669,1.72,1.7646,1.8055,1.8364,1.9126,2.0327,2.1998,2.21,2.2081,2.2244,2.3601,2.4802,2.5647,2.6574,2.6606,2.5434,2.6263,2.7254,2.8212,3.0055,3.1273,3.1469,3.1142,3.1366,3.2546,3.3265,3.3682,3.3757,3.4429,3.5173,3.581,3.614,3.6712,3.7452,3.8201,3.8707,3.878,3.9127,3.9679,4.0041,4.0339,4.061,4.084,4.0879,4.1133,4.1191,4.1191,4.1191,4.1191,4.1003,4.0835,4.0742,4.0475,4.0081,3.9754,3.9414,3.9136,3.8862,3.8768,3.8707,3.8707,3.805,3.6752,3.4325,3.1628,2.8339,1.8347,1.934,1.934,1.934,1.9315,1.909,1.9393,2.0111,2.1535,2.2534,2.3361,2.3372,2.3697,2.4314,2.5145,2.5373,2.532,2.6096,2.6591,2.6707,2.6897,2.6991,2.7166,2.7187,2.6954,2.6552,2.644,2.6176,2.5715,2.5632,2.5508,2.5438,2.5315,2.4627,2.3415,2.2736,2.2126,2.1419,2.1019,2.0809,2.0795,1.932,1.8602,1.8643,1.7866,1.7475,1.7641,1.762,1.7541,1.7444,1.7783,1.8298,1.8977,2.0643,2.2146,2.3204,2.43,2.4603,2.3931,2.4772,2.5664,2.649,2.7853,2.8311,2.748,2.7573,2.8423,2.9988,3.0817,3.1443,3.2063,3.229,3.2629,3.3197,3.3694,3.4034,3.4029,3.4981,3.5553,3.5276,3.6302,3.7397,3.8162,3.8546,3.8707,3.8726,3.9003,3.9378,3.9998,4.0435,4.0673,4.079,4.1017,4.1172,4.1191,4.1191,4.1191,4.1191,4.1074,4.092,4.0835,4.0681,4.0435,4.0081,3.9754,3.947,3.9229,3.8929,3.8719,3.8707,3.8483,3.7641,3.5549,3.3984,3.1474,1.703,1.7483,1.7483,1.7475,1.7561,1.7965,1.8799,1.9798,2.1039,2.1909,2.2503,2.2574,2.2998,2.3705,2.3908,2.4206,2.4595,2.4753,2.4897,2.505,2.5992,2.6517,2.6698,2.725,2.7404,2.7143,2.6799,2.6345,2.5809,2.5439,2.5118,2.4821,2.4394,2.3858,2.3238,2.2642,2.2204,2.1895,2.1146,2.0738,2.0725,1.9623,1.8995,1.8897,1.8421,1.81,1.8004,1.8219,1.8329,1.8311,1.8742,1.9382,2.0318,2.0945,2.1921,2.337,2.4289,2.4895,2.5091,2.6272,2.7158,2.7604,2.8459,2.9022,2.9058,2.9078,2.9449,3.024,3.0849,3.1506,3.2258,3.3515,3.403,3.3446,3.3956,3.432,3.4404,3.5143,3.5604,3.5427,3.5897,3.6746,3.7738,3.835,3.8707,3.8707,3.8944,3.9354,3.9981,4.0252,4.0454,4.0673,4.0839,4.0984,4.1074,4.1172,4.1191,4.1191,4.1094,4.0957,4.0829,4.0739,4.054,4.0196,3.9943,3.9724,3.9406,3.8958,3.8768,3.8707,3.8707,3.8109,3.718,3.5607,3.2179,1.5825,1.5825,1.5825,1.5825,1.592,1.6857,1.7956,1.9139,2.0124,2.0968,2.1767,2.2074,2.2506,2.3063,2.3043,2.3321,2.3776,2.3713,2.3626,2.3649,2.4968,2.5669,2.5758,2.6556,2.6905,2.6746,2.6298,2.5722,2.5187,2.4674,2.4234,2.3855,2.3175,2.2884,2.3125,2.2711,2.2498,2.2435,2.1531,2.1033,2.0894,2.03,1.9798,1.9434,1.9258,1.9007,1.8581,1.8845,1.9003,1.9044,1.9383,1.9988,2.0775,2.0946,2.1614,2.3048,2.3922,2.4792,2.5918,2.7213,2.8018,2.8125,2.856,2.9075,2.9616,3.0108,3.0422,3.0594,3.1004,3.1625,3.2815,3.4406,3.5133,3.4091,3.4399,3.4762,3.48,3.5267,3.5639,3.5639,3.5639,3.5968,3.6746,3.7506,3.808,3.8413,3.8849,3.9314,3.9775,3.9922,4.0139,4.0463,4.0655,4.0811,4.0957,4.1113,4.1191,4.1191,4.1133,4.0996,4.0855,4.0745,4.0604,4.0289,4.0139,3.9998,3.962,3.9073,3.875,3.8707,3.8707,3.859,3.8227,3.6452,3.3134,1.5825,1.5825,1.5825,1.5825,1.5832,1.592,1.6756,1.7777,1.8048,1.9289,2.1237,2.2475,2.2783,2.2725,2.3442,2.3458,2.296,2.3754,2.3877,2.3497,2.3649,2.3795,2.3795,2.3944,2.3693,2.3374,2.3329,2.311,2.2648,2.2343,2.2382,2.2619,2.2241,2.2384,2.2992,2.3002,2.299,2.299,2.246,2.192,2.1418,2.0932,2.0564,2.0514,2.0012,1.971,1.9661,1.9258,1.8996,1.8993,1.9098,1.9152,1.9423,2.0939,2.2139,2.2632,2.3894,2.5088,2.61,2.6913,2.7406,2.7378,2.8051,2.8442,2.863,3.0092,3.1375,3.1776,3.1489,3.2286,3.4006,3.5084,3.5493,3.5296,3.5346,3.5493,3.5487,3.5526,3.5639,3.5639,3.5639,3.565,3.5854,3.6054,3.6566,3.7871,3.8467,3.8906,3.9122,3.9395,3.9694,4.0062,4.0351,4.0643,4.0898,4.1094,4.1172,4.1191,4.1191,4.1074,4.0909,4.0792,4.0719,4.0502,4.025,4.0158,4.0046,3.9539,3.881,3.8914,3.8835,3.8559,3.8018,3.7084,3.4693,1.5825,1.5825,1.5825,1.5825,1.5825,1.5825,1.6109,1.6574,1.7412,1.8319,1.9314,2.1212,2.2299,2.2861,2.3033,2.2955,2.2583,2.2459,2.2346,2.2139,2.2477,2.2627,2.2702,2.322,2.3402,2.3162,2.3151,2.2894,2.2377,2.2054,2.1868,2.1738,2.1583,2.1557,2.1678,2.214,2.2384,2.2372,2.266,2.2686,2.2397,2.1606,2.1154,2.1129,2.0916,2.0815,2.0759,2.0574,2.0353,2.0027,2.0016,2.0191,2.0512,2.0684,2.147,2.2914,2.4312,2.5441,2.6277,2.7273,2.7886,2.7869,2.8556,2.893,2.8974,2.9686,3.0566,3.1736,3.3004,3.41,3.4474,3.5152,3.5639,3.5639,3.5639,3.5639,3.5639,3.5639,3.5639,3.5639,3.5639,3.5639,3.5639,3.5639,3.6122,3.7214,3.7823,3.8085,3.8235,3.8615,3.8995,3.9359,3.9967,4.054,4.0781,4.0929,4.1035,4.1152,4.1191,4.1113,4.0957,4.084,4.0754,4.0639,4.0447,4.0364,4.0444,4.0233,3.9769,3.9608,3.8973,3.859,3.8237,3.8097,3.6913,1.5825,1.5825,1.5825,1.5825,1.5825,1.5825,1.5825,1.592,1.6763,1.7347,1.7852,1.9604,2.1212,2.2454,2.263,2.2637,2.2441,2.1865,2.1514,2.1448,2.1703,2.1788,2.1855,2.2392,2.2713,2.2713,2.2627,2.2455,2.2088,2.1575,2.1296,2.1177,2.1107,2.0941,2.0868,2.1432,2.1685,2.1604,2.2125,2.2445,2.2323,2.1866,2.1629,2.1719,2.1556,2.1462,2.151,2.1504,2.1348,2.0949,2.092,2.1094,2.1483,2.0741,2.1155,2.3165,2.459,2.5589,2.6133,2.7349,2.8093,2.8141,2.8604,2.8998,2.9108,2.9014,2.9738,3.1437,3.334,3.4133,3.441,3.4742,3.5114,3.5285,3.5358,3.5383,3.5577,3.5639,3.5639,3.5639,3.5639,3.5639,3.5639,3.5622,3.5975,3.6766,3.7147,3.725,3.7506,3.7995,3.8433,3.8541,3.9491,4.0272,4.0511,4.0674,4.0862,4.1055,4.1133,4.1152,4.1016,4.0879,4.08,4.0687,4.0603,4.055,4.0511,4.0488,4.0398,4.0138,3.9619,3.9128,3.9249,3.9397,3.9229,1.5825,1.5825,1.5825,1.5825,1.5825,1.5825,1.5825,1.5825,1.592,1.6571,1.7523,1.7845,1.9222,2.1302,2.2356,2.2794,2.2549,2.2441,2.2187,2.1836,2.1477,2.1271,2.1252,2.0928,2.0799,2.1071,2.1021,2.0914,2.0777,2.0305,2.0451,2.1084,2.0811,2.0823,2.1019,2.1128,2.1023,2.0789,2.085,2.0805,2.0858,2.1506,2.1946,2.2097,2.1782,2.1587,2.1536,2.1536,2.1517,2.1451,2.1485,2.1499,2.1499,2.1486,2.1952,2.3127,2.4599,2.5465,2.5693,2.6816,2.7645,2.767,2.7816,2.8011,2.8722,2.8359,2.9092,3.1334,3.1782,3.2385,3.3365,3.3583,3.3959,3.4586,3.4627,3.4932,3.5453,3.5453,3.556,3.556,3.5577,3.5622,3.5639,3.5639,3.5881,3.644,3.6904,3.7241,3.7397,3.7881,3.8148,3.8184,3.8875,3.9881,4.008,4.0281,4.0552,4.0827,4.0996,4.1094,4.0996,4.0873,4.0811,4.0761,4.0703,4.0635,4.0527,4.0427,4.0326,4.0212,4.0198,4.0019,4.0478,4.0611,4.051,1.5825,1.5825,1.5825,1.5825,1.5825,1.5825,1.5825,1.5825,1.5825,1.6042,1.6557,1.734,1.8141,1.9047,2.0223,2.1603,2.2804,2.2637,2.2432,2.2227,2.1863,2.1666,2.1572,2.1224,2.1036,2.0928,2.0703,2.0576,2.0557,2.04,2.0328,2.0327,2.0237,2.0149,2.0134,2.0537,2.0722,2.0651,2.083,2.0984,2.0951,2.1081,2.1385,2.2056,2.234,2.2548,2.2548,2.2548,2.2362,2.2031,2.2014,2.202,2.2046,2.2347,2.2698,2.317,2.4125,2.4941,2.5469,2.6344,2.7074,2.7515,2.8017,2.8517,2.9026,2.9041,2.941,3.0516,3.1227,3.1788,3.2028,3.2251,3.2726,3.3734,3.3971,3.4056,3.4345,3.4667,3.4894,3.4911,3.5207,3.5622,3.5707,3.5639,3.5881,3.6522,3.6844,3.7154,3.7629,3.8131,3.8402,3.8286,3.85,3.8833,3.9173,3.9643,4.0062,4.0472,4.0742,4.082,4.0801,4.0801,4.0765,4.0769,4.0742,4.0675,4.0579,4.0473,4.0398,4.1224,4.1151,4.1338,4.1863,4.1919,4.1872,1.5825,1.5825,1.5825,1.5825,1.5825,1.5825,1.5825,1.5825,1.5825,1.5825,1.6015,1.6763,1.7318,1.7777,1.8588,2.0223,2.2287,2.2206,2.2351,2.2646,2.2247,2.207,2.2046,2.1627,2.1361,2.1162,2.0781,2.0576,2.0576,2.0576,2.04,2.0166,2.012,1.9908,1.9683,2.0062,2.0337,2.0247,2.0418,2.0604,2.054,2.0477,2.062,2.1319,2.2221,2.2811,2.3078,2.3125,2.2955,2.2613,2.258,2.2573,2.2623,2.2865,2.3125,2.3185,2.3872,2.4509,2.5134,2.6155,2.7032,2.751,2.837,2.919,2.9774,2.9699,2.9924,3.0567,3.1063,3.1467,3.1467,3.1539,3.1996,3.3036,3.3266,3.336,3.3591,3.3986,3.4399,3.48,3.527,3.5763,3.6248,3.6366,3.6637,3.711,3.7144,3.7398,3.7818,3.8342,3.8614,3.8476,3.8715,3.8709,3.8431,3.8355,3.9008,3.949,4.0174,4.0356,4.0587,4.0636,4.0714,4.0741,4.0742,4.0694,4.0602,4.0534,4.1162,4.2162,4.2558,4.2642,4.3003,4.3219,4.3033,1.5825,1.5825,1.5825,1.5825,1.5825,1.5825,1.5825,1.5825,1.5825,1.5825,1.5832,1.592,1.6574,1.7412,1.7598,1.8948,2.0836,2.1159,2.1878,2.293,2.2663,2.2487,2.249,2.2078,2.1593,2.123,2.0781,2.0576,2.0576,2.0576,2.0537,2.0547,2.0527,2.0342,1.9912,2.0013,1.9826,1.958,1.9618,1.9495,1.9374,1.9745,1.9981,2.0201,2.1206,2.2197,2.2982,2.309,2.3065,2.3053,2.304,2.3113,2.3062,2.3113,2.3125,2.3185,2.3826,2.423,2.4557,2.6159,2.7115,2.7584,2.8726,2.9724,3.0131,3.0018,3.0238,3.115,3.1407,3.1467,3.1467,3.1467,3.1775,3.247,3.2593,3.2828,3.3254,3.3543,3.4037,3.5118,3.5723,3.6337,3.7337,3.7793,3.7891,3.7855,3.7889,3.8007,3.8261,3.8764,3.8681,3.8512,3.8962,3.9345,3.8116,3.6968,3.7701,3.8394,3.9169,3.9701,4.0118,4.0301,4.049,4.0552,4.0858,4.0822,4.0801,4.0823,4.1465,4.2345,4.2953,4.3689,4.4077,4.421,4.4031,1.5825,1.5825,1.5825,1.5825,1.5825,1.5825,1.5825,1.5825,1.5825,1.5825,1.5825,1.5825,1.6015,1.6298,1.6386,1.7304,1.8864,1.967,2.1132,2.2746,2.2959,2.2891,2.2814,2.2534,2.1861,2.1228,2.0781,2.0576,2.0586,2.0576,2.0576,2.0576,2.0576,2.0508,2.0352,2.0409,2.033,2.0146,1.9873,1.9717,1.9678,1.9578,1.9768,2.0341,2.0479,2.0952,2.1788,2.2628,2.3078,2.3078,2.3125,2.3125,2.3125,2.3125,2.3125,2.3138,2.3305,2.3666,2.4172,2.521,2.6326,2.7174,2.8535,2.9624,3.0353,3.07,3.1004,3.1452,3.1467,3.1467,3.1467,3.1467,3.1599,3.1835,3.185,3.1983,3.2324,3.2764,3.338,3.4426,3.6819,3.7845,3.7102,3.7676,3.8923,3.8548,3.8548,3.8768,3.9276,3.9462,3.9715,3.9529,3.9952,3.9986,3.9022,3.8516,3.8946,3.9031,3.9287,3.952,3.9872,3.9966,4.0162,4.0455,4.0749,4.0957,4.0925,4.1182,4.1729,4.2555,4.3307,4.4102,4.4913,4.5034,4.4767,1.5825,1.5825,1.5825,1.5825,1.5825,1.5825,1.5825,1.5825,1.5825,1.5825,1.5825,1.5825,1.5825,1.5825,1.5825,1.648,1.7692,1.8503,2.0133,2.2227,2.296,2.3047,2.3008,2.2737,2.2235,2.1656,2.1094,2.081,2.081,2.0654,2.0576,2.0576,2.0576,2.0566,2.0576,2.0576,2.0576,2.0527,2.0293,2.0156,2.0068,1.9736,1.9806,2.0236,2.0193,2.0461,2.1024,2.2062,2.2648,2.2714,2.2884,2.3065,2.3125,2.3078,2.3253,2.3665,2.3615,2.3715,2.428,2.5299,2.606,2.7,2.8312,2.9312,2.994,3.0763,3.1467,3.1467,3.1467,3.1467,3.1467,3.1467,3.1467,3.1467,3.1539,3.1644,3.1884,3.2318,3.2913,3.4013,3.5943,3.6695,3.6614,3.7674,3.941,3.9193,3.9292,3.9462,4.0019,4.0037,4.007,4.007,4.0054,4.0054,4.007,4.0127,4.0389,4.0077,3.9738,3.9755,3.9864,3.9702,3.9716,4.0181,4.0548,4.0901,4.0937,4.1074,4.1493,4.2529,4.3548,4.4523,4.5297,4.549,4.5341,1.5825,1.5825,1.5825,1.5825,1.5825,1.5825,1.5825,1.5825,1.5825,1.5825,1.5825,1.5825,1.5825,1.5825,1.5825,1.6386,1.7404,1.7777,1.9039,2.1033,2.2217,2.2862,2.3008,2.2668,2.2415,2.2305,2.1572,2.1221,2.1133,2.0762,2.0576,2.0576,2.0576,2.0576,2.0576,2.0576,2.0576,2.0557,2.0537,2.0527,2.0508,2.0166,1.9951,1.9997,2.0327,2.0502,2.0623,2.1337,2.1888,2.2064,2.2924,2.3278,2.3188,2.3175,2.3803,2.4594,2.4293,2.4381,2.4936,2.5807,2.662,2.6881,2.8025,2.8939,2.9115,3.0072,3.1087,3.1409,3.1292,3.116,3.1159,3.1422,3.1467,3.1541,3.1646,3.1943,3.2467,3.2677,3.3051,3.3502,3.3995,3.4577,3.5479,3.7294,3.8625,3.9462,3.9682,3.98,3.9901,3.9885,4.0054,4.007,4.007,4.0087,4.0054,3.8594,3.8791,3.8955,3.9281,4.0215,3.9861,3.9548,3.9505,3.9985,4.0482,4.0791,4.1234,4.1507,4.1738,4.2432,4.3575,4.481,4.5459,4.5673,4.5726,1.5825,1.5825,1.5825,1.5825,1.5825,1.5825,1.5825,1.5825,1.5825,1.5825,1.5825,1.5825,1.5825,1.5825,1.5825,1.6015,1.648,1.7225,1.8411,1.9943,2.1203,2.2306,2.2872,2.2725,2.2529,2.2412,2.1738,2.124,2.1191,2.082,2.0596,2.0576,2.0576,2.0576,2.0576,2.0576,2.0576,2.0576,2.0576,2.0576,2.0557,2.0469,2.04,2.0428,2.0262,2.0118,2.0142,2.0637,2.1636,2.2935,2.3833,2.3904,2.329,2.3891,2.4481,2.477,2.4757,2.4833,2.535,2.5775,2.6174,2.6637,2.7499,2.8051,2.8051,2.8607,2.9813,3.0718,3.051,2.9708,2.9856,3.0791,3.1558,3.2168,3.2243,3.2557,3.314,3.3664,3.3888,3.3679,3.4487,3.513,3.5691,3.6569,3.7721,3.8302,3.8833,3.9249,3.9323,3.9631,3.9731,4.002,4.007,4.007,3.9529,3.7736,3.7024,3.7329,3.855,4.0777,4.0207,3.9528,3.965,3.9966,4.0515,4.0893,4.1803,4.2446,4.2619,4.2829,4.4117,4.552,4.5658,4.5822,4.5809,1.5825,1.5825,1.5825,1.5825,1.5825,1.5825,1.5825,1.5825,1.5825,1.5825,1.5825,1.5825,1.5825,1.5825,1.5825,1.5825,1.592,1.6574,1.7584,1.8864,2.0576,2.1943,2.2804,2.2852,2.2783,2.2705,2.209,2.1719,2.1475,2.1064,2.0771,2.0596,2.0576,2.0576,2.0576,2.0576,2.0576,2.0576,2.0576,2.0576,2.0576,2.0576,2.0566,2.0527,2.0303,2.0185,2.0299,2.1251,2.2366,2.3194,2.3808,2.402,2.3942,2.4431,2.5021,2.5398,2.5297,2.5385,2.5837,2.595,2.6101,2.6514,2.6973,2.7162,2.7229,2.7338,2.8233,2.8876,2.8989,2.8927,2.8983,3.0251,3.1558,3.2267,3.2972,3.3484,3.3888,3.4218,3.4427,3.4532,3.4981,3.5489,3.5489,3.6305,3.6714,3.7042,3.7866,3.8172,3.8498,3.8962,3.9332,3.9506,3.9901,4.002,3.9462,3.7855,3.6857,3.6933,3.8503,4.077,4.0294,3.9504,3.9674,3.9981,4.0513,4.1112,4.1834,4.2742,4.3606,4.4142,4.5273,4.5597,4.5634,4.588,4.5881,1.5825,1.5825,1.5825,1.5825,1.5825,1.5825,1.5825,1.5825,1.5825,1.5825,1.5825,1.5825,1.5825,1.5825,1.5825,1.5825,1.5825,1.592,1.6669,1.8226,2.0124,2.1845,2.258,2.2999,2.2979,2.2998,2.2695,2.2295,2.1885,2.1465,2.1035,2.0752,2.0635,2.0576,2.0576,2.0576,2.0576,2.0576,2.0576,2.0576,2.0576,2.0576,2.0576,2.0557,2.0547,2.0498,2.0951,2.2062,2.3232,2.3276,2.351,2.4274,2.4931,2.5021,2.5435,2.6076,2.5937,2.5925,2.6395,2.6433,2.6483,2.6521,2.6521,2.6521,2.6577,2.6714,2.6837,2.7095,2.792,2.8292,2.8516,2.9924,3.1282,3.2248,3.3608,3.4312,3.4577,3.4592,3.4831,3.5385,3.5489,3.5489,3.5668,3.5943,3.6306,3.6245,3.693,3.7446,3.7742,3.8117,3.8486,3.8761,3.9279,3.9969,3.9125,3.8041,3.7398,3.7199,3.9026,4.0584,4.0053,3.9583,3.9706,3.9991,4.0491,4.0862,4.1265,4.237,4.3876,4.4843,4.5526,4.5422,4.5281,4.5716,4.5897,1.5825,1.5825,1.5825,1.5825,1.5825,1.5825,1.5825,1.5825,1.5825,1.5825,1.5825,1.5825,1.5825,1.5825,1.5825,1.5825,1.5825,1.5825,1.648,1.7863,2.0215,2.1293,2.1933,2.2501,2.3047,2.3047,2.2715,2.2461,2.2207,2.165,2.1191,2.1064,2.0713,2.0576,2.0576,2.0576,2.0576,2.0576,2.0576,2.0576,2.0576,2.0576,2.0576,2.0576,2.0576,2.0576,2.0789,2.1669,2.2678,2.3618,2.4821,2.5611,2.5907,2.6013,2.6163,2.6302,2.6433,2.6314,2.6496,2.6521,2.6521,2.6521,2.6521,2.6521,2.6521,2.6521,2.6521,2.6521,2.6875,2.7451,2.8157,2.9132,3.0788,3.2397,3.3593,3.4494,3.5041,3.5265,3.5325,3.5429,3.5489,3.5489,3.5489,3.5604,3.5733,3.5619,3.607,3.6722,3.7024,3.7279,3.7616,3.7889,3.8652,3.9348,3.9682,3.8903,3.8514,3.799,3.9414,4.0389,3.9866,3.9822,4.0038,4.0212,4.0407,4.0776,4.1146,4.2824,4.4512,4.5112,4.5648,4.557,4.5569,4.583,4.5962,1.5825,1.5825,1.5825,1.5825,1.5825,1.5825,1.5825,1.5825,1.5825,1.5825,1.5825,1.5825,1.5825,1.5825,1.5825,1.5825,1.5825,1.5825,1.6103,1.7124,1.8764,1.9852,2.0657,2.1676,2.2492,2.2911,2.293,2.2725,2.2383,2.1904,2.1445,2.1211,2.0801,2.0596,2.0576,2.0576,2.0576,2.0576,2.0576,2.0576,2.0576,2.0576,2.0576,2.0576,2.0576,2.0576,2.0644,2.1507,2.2478,2.3588,2.4992,2.6025,2.6452,2.6521,2.6521,2.6521,2.6521,2.6521,2.6521,2.6521,2.6521,2.6521,2.6521,2.6521,2.6521,2.6521,2.6521,2.6521,2.6609,2.6961,2.8044,2.9823,3.1289,3.2302,3.3816,3.489,3.5359,3.5489,3.5489,3.5489,3.5489,3.5489,3.5489,3.5489,3.5489,3.5554,3.5554,3.6102,3.6102,3.6368,3.6753,3.7144,3.7905,3.8723,3.9731,3.9851,3.9766,3.946,3.9742,4.0178,3.9954,4.0176,4.0513,4.0582,4.0635,4.0896,4.1508,4.3313,4.4649,4.5266,4.564,4.5738,4.5831,4.5847,4.5988,1.5825,1.5825,1.5825,1.5825,1.5825,1.5825,1.5825,1.5825,1.5825,1.5825,1.5825,1.5825,1.5825,1.5825,1.5825,1.5825,1.5825,1.5825,1.6015,1.6197,1.7404,1.8503,1.9405,2.0666,2.1845,2.2775,2.2999,2.291,2.2607,2.2187,2.1787,2.1357,2.0908,2.0684,2.0605,2.0576,2.0576,2.0576,2.0576,2.0576,2.0576,2.0576,2.0576,2.0576,2.0576,2.0576,2.0789,2.1527,2.2403,2.3294,2.4348,2.5441,2.6233,2.6521,2.6521,2.6521,2.6521,2.6521,2.6521,2.6521,2.6521,2.6521,2.6521,2.6521,2.6521,2.6521,2.6521,2.6666,2.6892,2.7607,2.8445,2.968,3.1092,3.2152,3.3955,3.4963,3.5439,3.5489,3.5489,3.5489,3.5489,3.5489,3.5489,3.5489,3.5489,3.5489,3.5489,3.5489,3.5489,3.5619,3.607,3.6461,3.71,3.8541,3.9679,4.0087,4.0087,4.0104,4.0086,4.0069,4.0035,4.0199,4.0429,4.0717,4.0885,4.1252,4.1867,4.3157,4.432,4.5186,4.5605,4.568,4.5754,4.5815,4.5976,1.5825,1.5825,1.5825,1.5825,1.5825,1.5825,1.5825,1.5825,1.5825,1.5825,1.5825,1.5825,1.5825,1.5825,1.5825,1.5825,1.5825,1.5825,1.5825,1.6015,1.6951,1.7863,1.8503,2.0124,2.1302,2.1836,2.2492,2.3066,2.293,2.2617,2.2148,2.1748,2.1299,2.0947,2.0732,2.0576,2.0596,2.0644,2.0605,2.0576,2.0576,2.0576,2.0576,2.0576,2.0576,2.0576,2.0789,2.1451,2.2103,2.2403,2.4047,2.537,2.6233,2.6521,2.6521,2.6521,2.6521,2.6521,2.6521,2.6521,2.6521,2.6521,2.6521,2.6521,2.6521,2.6571,2.6672,2.7226,2.8134,2.9227,2.9453,2.9847,3.062,3.1874,3.3,3.3984,3.5059,3.5489,3.5489,3.5489,3.5489,3.5489,3.5489,3.5489,3.5489,3.5489,3.5489,3.5489,3.5489,3.5489,3.5668,3.6006,3.6337,3.8003,3.9679,3.9969,4.0087,4.0087,4.0087,4.0087,4.0087,4.0104,4.0319,4.056,4.135,4.2082,4.274,4.3361,4.4005,4.4839,4.5223,4.5568,4.5668,4.5757,4.5802,1.5825,1.5825,1.5825,1.5825,1.5825,1.5825,1.5825,1.5825,1.5825,1.5825,1.5825,1.5825,1.5825,1.5825,1.5825,1.5825,1.5825,1.5825,1.5825,1.6015,1.648,1.7131,1.7684,1.9588,2.0666,2.148,2.2492,2.3047,2.3096,2.2705,2.2412,2.2109,2.1582,2.1221,2.1123,2.0801,2.0762,2.0801,2.0703,2.0576,2.0576,2.0576,2.0576,2.0576,2.0576,2.0576,2.0722,2.0934,2.1517,2.2178,2.343,2.4921,2.5943,2.6521,2.6521,2.6521,2.6521,2.6521,2.6521,2.6521,2.6521,2.6521,2.6533,2.6521,2.6521,2.6596,2.6967,2.8122,2.8725,2.9779,2.9741,2.9894,3.095,3.2195,3.2958,3.392,3.4999,3.5394,3.5489,3.5489,3.5489,3.5489,3.5489,3.5489,3.5489,3.5489,3.5489,3.5489,3.5489,3.5489,3.5489,3.5668,3.5991,3.7263,3.8995,3.9782,4.007,4.0087,4.0087,4.0087,4.0087,4.0121,4.0171,4.0343,4.1296,4.2144,4.3014,4.3437,4.3979,4.4508,4.4992,4.54,4.555,4.5654,4.5746,1.5825,1.5825,1.5825,1.5825,1.5825,1.5825,1.5825,1.5825,1.5825,1.5825,1.5825,1.5825,1.5825,1.5825,1.5825,1.5825,1.5825,1.5825,1.5825,1.5825,1.592,1.648,1.7404,1.8588,1.967,2.0755,2.2022,2.2862,2.3008,2.2852,2.2637,2.2353,2.1748,2.1562,2.165,2.1094,2.1064,2.0967,2.081,2.0586,2.0576,2.0576,2.0576,2.0576,2.0576,2.0576,2.0644,2.0644,2.1001,2.1821,2.2925,2.4253,2.5639,2.6314,2.6465,2.6521,2.6521,2.6521,2.6521,2.6521,2.6521,2.6521,2.6647,2.6684,2.6716,2.7017,2.762,2.9302,2.9779,2.9779,2.9894,3.0431,3.1346,3.2407,3.3282,3.4103,3.5041,3.5489,3.5489,3.5489,3.5489,3.5489,3.5489,3.5489,3.5489,3.5489,3.5489,3.5489,3.5489,3.5489,3.5489,3.5489,3.5894,3.6707,3.8076,3.9506,3.985,4.0087,4.0087,4.0087,4.0087,4.0087,4.0171,4.0204,4.0417,4.1268,4.2386,4.3321,4.3726,4.4175,4.4815,4.5283,4.5495,4.5624,4.5709,1.5825,1.5825,1.5825,1.5825,1.5825,1.5825,1.5825,1.5825,1.5825,1.5825,1.5825,1.5825,1.5825,1.5825,1.5825,1.5825,1.5825,1.5825,1.5825,1.5825,1.5825,1.592,1.6298,1.7318,1.8772,2.0034,2.1114,2.212,2.2843,2.3057,2.2852,2.2539,2.2383,2.2246,2.1992,2.1455,2.1211,2.1172,2.083,2.0586,2.0576,2.0576,2.0576,2.0576,2.0576,2.0576,2.0576,2.0576,2.0789,2.1011,2.2563,2.3514,2.4097,2.5639,2.6302,2.6521,2.6521,2.6521,2.6521,2.654,2.6565,2.6666,2.6929,2.7118,2.7306,2.7607,2.8285,2.9541,2.9779,2.9779,2.9779,2.9919,3.0885,3.186,3.2727,3.3806,3.4851,3.5489,3.5489,3.5489,3.5489,3.5489,3.5489,3.5489,3.5489,3.5489,3.5489,3.5489,3.5489,3.5489,3.5489,3.5489,3.5489,3.6243,3.7055,3.8541,3.961,3.9969,4.007,4.007,4.0087,4.0087,4.0087,4.0171,4.0286,4.0319,4.1105,4.2044,4.3014,4.3772,4.4318,4.4947,4.5513,4.5607,4.559,1.5825,1.5825,1.5825,1.5825,1.5825,1.5825,1.5825,1.5825,1.5825,1.5825,1.5825,1.5825,1.5825,1.5825,1.5825,1.5825,1.5825,1.5825,1.5825,1.5825,1.5825,1.5825,1.6103,1.7131,1.8319,1.9497,2.0747,2.2031,2.2765,2.3125,2.3008,2.2861,2.2646,2.2588,2.2412,2.1914,2.1836,2.1709,2.1348,2.084,2.0644,2.0576,2.0576,2.0576,2.0576,2.0576,2.0576,2.0576,2.0576,2.0934,2.2489,2.3441,2.3952,2.5276,2.6521,2.6521,2.6521,2.6521,2.649,2.6791,2.6904,2.7067,2.7431,2.7821,2.8009,2.8147,2.8624,2.9679,2.9779,2.9779,2.9779,2.9779,3.0558,3.1441,3.2384,3.3451,3.453,3.513,3.5489,3.5489,3.5489,3.5489,3.5489,3.5489,3.5489,3.5489,3.5489,3.5489,3.5489,3.5489,3.5489,3.5489,3.5489,3.5668,3.6368,3.7397,3.9049,3.9627,4.0037,4.0037,4.007,4.0087,4.0087,4.0087,4.0171,4.0204,4.0204,4.0814,4.1835,4.2793,4.3777,4.4346,4.4924,4.5263,4.5321,1.5825,1.5825,1.5825,1.5825,1.5825,1.5825,1.5825,1.5825,1.5825,1.5825,1.5825,1.5825,1.5825,1.5825,1.5825,1.5825,1.5825,1.5825,1.5825,1.5825,1.5825,1.5825,1.6197,1.7131,1.8326,1.9588,2.0747,2.1933,2.2765,2.3135,2.3135,2.3125,2.2861,2.2852,2.2852,2.2451,2.2119,2.209,2.1533,2.1074,2.081,2.0625,2.0586,2.0576,2.0576,2.0576,2.0576,2.0576,2.0576,2.0934,2.2113,2.3073,2.3661,2.4981,2.6164,2.6396,2.6653,2.6665,2.6754,2.6924,2.7306,2.7585,2.8009,2.8486,2.8863,2.8699,2.875,2.9754,2.9779,2.9779,2.9779,2.9779,3.0558,3.1435,3.2264,3.3232,3.4109,3.4978,3.5489,3.5489,3.5489,3.5489,3.5489,3.5489,3.5489,3.5489,3.5489,3.5489,3.5489,3.5489,3.5489,3.5489,3.5489,3.5489,3.5846,3.6768,3.8262,3.9246,3.9664,3.9969,3.9986,4.007,4.0087,4.0087,4.0087,4.0121,4.0171,4.0385,4.0767,4.235,4.3664,4.3823,4.4223,4.4638,4.5052,1.5825,1.5825,1.5825,1.5825,1.5825,1.5825,1.5825,1.5825,1.5825,1.5825,1.5825,1.5825,1.5825,1.5825,1.5825,1.5825,1.5825,1.5825,1.5825,1.5825,1.5825,1.592,1.6386,1.7225,1.8419,1.967,2.0755,2.1933,2.2862,2.3144,2.3144,2.3115,2.3027,2.3086,2.3018,2.2715,2.2295,2.2139,2.1631,2.1367,2.1103,2.0879,2.0654,2.0644,2.0605,2.0576,2.0576,2.0586,2.0566,2.0644,2.1745,2.2414,2.3147,2.4646,2.5703,2.6223,2.698,2.7031,2.7088,2.7309,2.7637,2.8061,2.855,2.9063,2.944,2.9628,2.9754,2.9754,2.9779,2.9779,2.9779,2.9921,3.057,3.1256,3.2079,3.3095,3.4042,3.4993,3.5439,3.5489,3.5489,3.5489,3.5489,3.5489,3.5489,3.5489,3.5489,3.5489,3.5489,3.5489,3.5489,3.5489,3.5489,3.5489,3.5489,3.6368,3.7175,3.8221,3.899,3.9493,3.9851,3.9919,4.007,4.0087,4.0087,4.0087,4.0121,4.0254,4.0891,4.2582,4.3563,4.3726,4.3931,4.429,4.4707,1.5825,1.5825,1.5825,1.5825,1.5825,1.5825,1.5825,1.5825,1.5825,1.5825,1.5825,1.5825,1.5825,1.5825,1.5825,1.5825,1.5825,1.5825,1.5825,1.5825,1.5825,1.6292,1.685,1.7677,1.868,2.0305,2.1203,2.1943,2.296,2.3057,2.3144,2.3144,2.3144,2.3135,2.3047,2.2949,2.2666,2.2353,2.208,2.1914,2.1553,2.125,2.1103,2.1357,2.0713,2.0781,2.0889,2.0684,2.0615,2.0809,2.1558,2.1883,2.238,2.4101,2.5407,2.6165,2.708,2.7697,2.786,2.8094,2.855,2.9038,2.9326,2.9541,2.9779,2.9779,2.9779,2.9779,2.9779,2.9779,2.9779,2.9792,3.0203,3.0987,3.1932,3.2986,3.3907,3.4876,3.5439,3.5489,3.5489,3.5489,3.5489,3.5489,3.5489,3.5489,3.5489,3.5489,3.5489,3.5489,3.5489,3.5489,3.5489,3.5489,3.5489,3.5733,3.6022,3.7125,3.8368,3.89,3.9508,3.9986,4.0087,4.0087,4.0087,4.0087,4.0087,4.0087,4.0938,4.2329,4.3195,4.3612,4.3836,4.4035,4.4346,1.5825,1.5825,1.5825,1.5825,1.5825,1.5825,1.5825,1.5825,1.5825,1.5825,1.5825,1.5825,1.5825,1.5825,1.5825,1.5825,1.5825,1.5825,1.5825,1.5825,1.592,1.6574,1.7404,1.8319,1.9314,2.1025,2.1854,2.2501,2.3047,2.3135,2.3144,2.3144,2.3144,2.3144,2.3144,2.3115,2.2988,2.2764,2.2519,2.2412,2.2021,2.168,2.1514,2.1758,2.1279,2.1203,2.133,2.1222,2.1115,2.1224,2.1489,2.1527,2.2092,2.3209,2.505,2.6184,2.7248,2.8408,2.8657,2.9101,2.9347,2.9576,2.9704,2.9741,2.9779,2.9779,2.9779,2.9779,2.9779,2.9779,2.9779,2.9792,3.015,3.0888,3.1981,3.2979,3.3825,3.4691,3.5133,3.5489,3.5489,3.5489,3.5489,3.5489,3.5489,3.5489,3.5489,3.5489,3.5489,3.5489,3.5489,3.5489,3.5489,3.5489,3.5489,3.5668,3.591,3.6814,3.7866,3.8498,3.9016,3.961,4.002,4.0087,4.0087,4.0087,4.0087,4.0087,4.0891,4.1961,4.2627,4.3198,4.3631,4.3823,4.3986,1.5825,1.5825,1.5825,1.5825,1.5825,1.5825,1.5825,1.5825,1.5825,1.5825,1.5825,1.5825,1.5825,1.5825,1.5825,1.5825,1.5825,1.5825,1.5825,1.5825,1.5825,1.6574,1.777,1.8864,1.9943,2.1302,2.2217,2.2862,2.3144,2.3144,2.3144,2.3144,2.3144,2.3144,2.3144,2.3144,2.3125,2.2979,2.2715,2.2578,2.2432,2.209,2.1973,2.2012,2.1777,2.1683,2.1784,2.1693,2.1605,2.1727,2.1725,2.1666,2.1699,2.2914,2.4537,2.6078,2.7766,2.8634,2.8812,2.9402,2.9704,2.9779,2.9779,2.9779,2.9779,2.9779,2.9779,2.9779,2.9779,2.9779,2.9779,2.9804,3.0291,3.0999,3.1983,3.2911,3.3772,3.4691,3.5213,3.5489,3.5489,3.5489,3.5489,3.5489,3.5489,3.5489,3.5489,3.5489,3.5489,3.5489,3.5489,3.5489,3.5489,3.5489,3.5489,3.5489,3.5846,3.6662,3.7338,3.7889,3.8619,3.9315,3.9679,3.9969,4.0087,4.0087,4.0087,4.0087,4.072,4.1305,4.2098,4.2713,4.3167,4.3597,4.3772,1.5825,1.5825,1.5825,1.5825,1.5825,1.5825,1.5825,1.5825,1.5825,1.5825,1.5825,1.5825,1.5825,1.5825,1.5825,1.5825,1.5825,1.5825,1.5825,1.5825,1.6015,1.7203,1.8495,1.9497,2.0576,2.2129,2.3047,2.3144,2.3144,2.3144,2.3144,2.3144,2.3144,2.3144,2.3144,2.3144,2.3135,2.3038,2.2988,2.292,2.2871,2.2549,2.2412,2.2617,2.2207,2.2085,2.23,2.2134,2.1982,2.1973,2.1977,2.1904,2.2063,2.3143,2.4282,2.5699,2.737,2.9416,2.9428,2.9716,2.9767,2.9779,2.9779,2.9779,2.9779,2.9779,2.9779,2.9779,2.9779,2.9779,2.9779,2.9779,3.0177,3.1063,3.2013,3.2998,3.3844,3.4795,3.5489,3.5489,3.5489,3.5489,3.5489,3.5489,3.5489,3.5489,3.5489,3.5489,3.5489,3.5489,3.5489,3.5489,3.5489,3.5489,3.5489,3.5489,3.5489,3.6022,3.6646,3.7247,3.8003,3.8924,3.9542,3.9952,4.002,4.0087,4.0087,4.0087,4.0087,4.0565,4.1492,4.2323,4.2887,4.3286,4.3563,1.5825,1.5825,1.5825,1.5825,1.5825,1.5825,1.5825,1.5825,1.5825,1.5825,1.5825,1.5825,1.5825,1.5825,1.5825,1.5825,1.5825,1.6292,1.648,1.6567,1.7023,1.8395,1.9579,2.0223,2.1311,2.2687,2.3144,2.3144,2.3144,2.3144,2.3144,2.3144,2.3144,2.3144,2.3144,2.3144,2.3144,2.3135,2.3086,2.3096,2.3027,2.291,2.2861,2.2891,2.2705,2.2441,2.2595,2.2461,2.2279,2.2252,2.2298,2.2295,2.2681,2.319,2.4169,2.5261,2.7117,2.9094,2.9599,2.9754,2.9779,2.9779,2.9779,2.9779,2.9779,2.9779,2.9779,2.9779,2.9779,2.9779,2.9779,2.9779,3.0177,3.1003,3.1965,3.2891,3.3571,3.4528,3.5489,3.5489,3.5489,3.5489,3.5489,3.5489,3.5489,3.5489,3.5489,3.5489,3.5489,3.5489,3.5489,3.5489,3.5489,3.5489,3.5489,3.5489,3.5489,3.5489,3.6039,3.6767,3.7658,3.8652,3.9262,3.9833,4.0003,4.007,4.007,4.0087,4.0087,4.0426,4.1129,4.1846,4.2523,4.2976,4.3356,1.5825,1.5825,1.5825,1.5825,1.5825,1.5825,1.5825,1.5825,1.5825,1.5825,1.5825,1.5825,1.5825,1.5832,1.592,1.6015,1.6292,1.7217,1.7584,1.7948,1.8495,1.9943,2.0666,2.1203,2.1854,2.2589,2.3144,2.3144,2.3144,2.3144,2.3144,2.3144,2.3144,2.3144,2.3144,2.3144,2.3144,2.3144,2.3144,2.3144,2.3096,2.3105,2.3066,2.3066,2.2988,2.2939,2.2978,2.2959,2.2988,2.294,2.3047,2.3066,2.3096,2.3125,2.379,2.5115,2.7105,2.8327,2.9624,2.9779,2.9779,2.9779,2.9779,2.9779,2.9779,2.9779,2.9779,2.9779,2.9779,2.9779,2.9779,2.9804,2.9882,3.0869,3.1775,3.2536,3.3157,3.4041,3.5133,3.5489,3.5489,3.5489,3.5489,3.5489,3.5489,3.5489,3.5489,3.5489,3.5489,3.5489,3.5489,3.5489,3.5489,3.5489,3.5489,3.5489,3.5489,3.5489,3.5882,3.6538,3.7451,3.8262,3.887,3.9437,3.9901,4.007,4.007,4.0087,4.0087,4.047,4.0854,4.1478,4.2144,4.279,4.316,1.5825,1.5825,1.5825,1.5825,1.5825,1.5825,1.5825,1.5825,1.5825,1.5825,1.5825,1.5825,1.5825,1.5825,1.6756,1.7037,1.7591,1.8226,1.8772,1.9222,1.9588,2.0395,2.0935,2.148,2.212,2.2677,2.3144,2.3144,2.3144,2.3144,2.3144,2.3144,2.3144,2.3144,2.3144,2.3144,2.3144,2.3144,2.3144,2.3144,2.3144,2.3144,2.3144,2.3144,2.3144,2.3144,2.3144,2.3144,2.3144,2.3144,2.3144,2.3144,2.3144,2.3222,2.38,2.5746,2.6926,2.7685,2.9337,2.9779,2.9779,2.9779,2.9779,2.9779,2.9779,2.9779,2.9779,2.9779,2.9779,2.9779,2.9779,2.9792,3.0022,3.0649,3.1669,3.2577,3.3269,3.4312,3.5264,3.5489,3.5489,3.5489,3.5489,3.5489,3.5489,3.5489,3.5489,3.5489,3.5489,3.5489,3.5489,3.5489,3.5489,3.5489,3.5489,3.5489,3.5489,3.5539,3.5882,3.626,3.6933,3.7674,3.8414,3.9102,3.9782,4.002,4.007,4.0087,4.0087,4.0121,4.046,4.1098,4.1732,4.2386,4.3032,1.5825,1.5825,1.5825,1.5825,1.5825,1.5825,1.5825,1.5825,1.5825,1.5825,1.5825,1.5825,1.6103,1.6662,1.7311,1.7956,1.8495,1.9579,2.0206,2.0305,2.0584,2.14,2.1845,2.2031,2.2492,2.296,2.3144,2.3144,2.3144,2.3144,2.3144,2.3144,2.3144,2.3144,2.3144,2.3144,2.3144,2.3144,2.3144,2.3144,2.3144,2.3144,2.3144,2.3144,2.3144,2.3144,2.3144,2.3144,2.3144,2.3144,2.3144,2.3144,2.3144,2.3222,2.4145,2.5924,2.6561,2.7754,2.9312,2.9779,2.9779,2.9779,2.9779,2.9779,2.9779,2.9779,2.9779,2.9779,2.9779,2.9779,2.9779,2.9804,3.0175,3.0547,3.1628,3.2761,3.3713,3.4728,3.5169,3.5409,3.5489,3.5489,3.5489,3.5489,3.5489,3.5489,3.5489,3.5489,3.5489,3.5489,3.5489,3.5489,3.5489,3.5489,3.5489,3.5489,3.5489,3.5489,3.5604,3.5976,3.6508,3.7381,3.8302,3.9102,3.9782,3.9952,4.0087,4.0087,4.0087,4.0121,4.0336,4.1059,4.1664,4.2044,4.2696,1.5825,1.5825,1.5825,1.5825,1.5825,1.592,1.6028,1.5933,1.6204,1.6015,1.592,1.592,1.6669,1.7404,1.8141,1.8956,1.9761,2.0845,2.148,2.148,2.2129,2.2677,2.2775,2.3047,2.296,2.3047,2.3144,2.3144,2.3144,2.3144,2.3144,2.3144,2.3144,2.3144,2.3144,2.3144,2.3144,2.3144,2.3144,2.3144,2.3144,2.3144,2.3144,2.3144,2.3144,2.3144,2.3144,2.3144,2.3144,2.3144,2.3144,2.3144,2.3144,2.3135,2.4478,2.5441,2.613,2.7544,2.8876,2.9639,2.9779,2.9779,2.9779,2.9779,2.9779,2.9779,2.9779,2.9779,2.9779,2.9779,2.9779,2.9779,3.0035,3.0586,3.1492,3.2335,3.3127,3.4234,3.5329,3.5489,3.5489,3.5489,3.5489,3.5489,3.5489,3.5489,3.5489,3.5489,3.5489,3.5489,3.5489,3.5489,3.5489,3.5489,3.5489,3.5489,3.5489,3.5489,3.5489,3.5668,3.6117,3.716,3.8318,3.9156,3.9952,4.002,4.0087,4.0087,4.0121,4.0171,4.0466,4.115,4.1621,4.1919,4.2523,1.5825,1.5825,1.5825,1.5825,1.592,1.6857,1.7211,1.7312,1.828,1.7475,1.6292,1.685,1.7498,1.8048,1.9588,2.0486,2.1025,2.1854,2.2492,2.2589,2.3047,2.3047,2.3144,2.3144,2.3144,2.3144,2.3144,2.3144,2.3144,2.3144,2.3144,2.3144,2.3144,2.3144,2.3144,2.3144,2.3144,2.3144,2.3144,2.3144,2.3144,2.3144,2.3144,2.3144,2.3144,2.3144,2.3144,2.3144,2.3144,2.3144,2.3144,2.3144,2.3144,2.3144,2.3299,2.4029,2.5666,2.7208,2.8409,2.9372,2.9767,2.9779,2.9779,2.9779,2.9779,2.9779,2.9779,2.9779,2.9779,2.9779,2.9779,2.9779,2.9869,3.0623,3.1343,3.1951,3.257,3.396,3.5329,3.5489,3.5489,3.5489,3.5489,3.5489,3.5489,3.5489,3.5489,3.5489,3.5489,3.5489,3.5489,3.5489,3.5489,3.5489,3.5489,3.5489,3.5489,3.5489,3.5489,3.5668,3.5894,3.6995,3.8262,3.9332,4.007,4.0087,4.0087,4.0087,4.0121,4.0171,4.0336,4.0844,4.1534,4.1937,4.2562,1.5825,1.5825,1.5825,1.5825,1.6015,1.7138,1.7702,1.7908,1.8952,1.8724,1.768,1.8187,1.8772,1.9222,2.0755,2.1747,2.2031,2.2687,2.296,2.3047,2.3144,2.3135,2.3144,2.3144,2.3144,2.3144,2.3144,2.3144,2.3144,2.3144,2.3144,2.3144,2.3144,2.3144,2.3144,2.3144,2.3144,2.3144,2.3144,2.3144,2.3144,2.3144,2.3144,2.3144,2.3144,2.3144,2.3144,2.3144,2.3144,2.3144,2.3144,2.3144,2.3144,2.3144,2.3144,2.378,2.5187,2.699,2.8065,2.9003,2.9767,2.9779,2.9779,2.9779,2.9779,2.9779,2.9779,2.9779,2.9779,2.9779,2.9779,2.9779,2.9779,3.0203,3.1097,3.1897,3.3044,3.4441,3.5264,3.5489,3.5489,3.5489,3.5489,3.5489,3.5489,3.5489,3.5489,3.5489,3.5489,3.5489,3.5489,3.5489,3.5489,3.5489,3.5489,3.5489,3.5489,3.5489,3.5489,3.607,3.66,3.7294,3.8206,3.9401,4.0087,4.0087,4.0087,4.0087,4.0087,4.0121,4.0254,4.0466,4.1168,4.1853,4.2364,1.5825,1.5825,1.5825,1.5825,1.6015,1.7131,1.7867,1.8153,1.9204,1.9875,1.9971,1.9991,2.0576,2.1025,2.1569,2.2306,2.2775,2.296,2.3057,2.3144,2.3144,2.3144,2.3144,2.3144,2.3144,2.3144,2.3144,2.3144,2.3144,2.3144,2.3144,2.3144,2.3144,2.3144,2.3144,2.3144,2.3144,2.3144,2.3144,2.3144,2.3144,2.3144,2.3144,2.3144,2.3144,2.3144,2.3144,2.3144,2.3144,2.3144,2.3144,2.3144,2.3299,2.3387,2.381,2.4372,2.5775,2.7174,2.8138,2.9102,2.9561,2.9779,2.9779,2.9779,2.9779,2.9779,2.9779,2.9779,2.9779,2.9779,2.9779,2.9779,2.9779,2.9985,3.0904,3.1983,3.3393,3.481,3.5198,3.5489,3.5489,3.5489,3.5489,3.5489,3.5489,3.5489,3.5489,3.5489,3.5489,3.5489,3.5489,3.5489,3.5489,3.5489,3.5489,3.5489,3.5489,3.5489,3.5604,3.6477,3.7235,3.7648,3.8318,3.9575,4.0087,4.0104,4.0087,4.0087,4.0087,4.0087,4.0171,4.0336,4.0844,4.149,4.1997,1.5825,1.5825,1.5825,1.5825,1.6015,1.7131,1.8257,1.9271,2.0339,2.1462,2.1906,2.2189,2.2217,2.1382,2.2403,2.296,2.296,2.3144,2.3144,2.3144,2.3144,2.3144,2.3144,2.3144,2.3144,2.3144,2.3144,2.3144,2.3144,2.3144,2.3144,2.3144,2.3144,2.3144,2.3144,2.3144,2.3144,2.3144,2.3144,2.3144,2.3144,2.3144,2.3144,2.3144,2.3144,2.3144,2.3144,2.3144,2.3144,2.3144,2.3135,2.3222,2.3474,2.4049,2.4893,2.5797,2.7128,2.7475,2.8409,2.9213,2.9624,2.9779,2.9779,2.9779,2.9779,2.9779,2.9779,2.9779,2.9779,2.9779,2.9779,2.9779,2.9779,3.0101,3.083,3.2109,3.349,3.4595,3.5424,3.5489,3.5489,3.5489,3.5489,3.5489,3.5489,3.5489,3.5489,3.5489,3.5489,3.5489,3.5489,3.5489,3.5489,3.5489,3.5489,3.5489,3.5489,3.5489,3.5668,3.6368,3.6995,3.7648,3.8502,3.9279,3.9884,4.0088,4.0121,4.0087,4.0087,4.0087,4.0087,4.0254,4.0703,4.1133,4.1639]},{"header":{"parameterUnit":"m.s-1","parameterCategory":1,"la1":31.0,"la2":29.5877,"lo1":-88.7671,"lo2":-86.6584,"dy":0.0162,"dx":0.0185,"nx":115,"ny":88,"refTime":"2024-08-14T06:00:00:Z","depth":0,"parameterNumber":3,"parameterNumberName":"V-component_of_WINDS"},"data":[0.0,0.0,0.0,0.0,0.0,0.0,0.0,0.0,0.0,0.0,0.0,0.0,0.0,0.0,0.0,0.0,0.0,0.0,0.0,0.0,0.0,0.0,0.0,0.0,0.0,0.0,0.0,0.0,0.0,0.0,0.0,0.0,0.0,0.0,0.0,0.0,0.0,0.0,0.0,0.0,0.0,0.0,0.0,0.0,0.0,0.0,0.0,0.0,0.0,0.0,0.0,0.0,0.0,0.0,0.0,0.0,0.0,0.0,0.0,0.0,0.0,0.0,0.0,0.0,0.0,0.0,0.0,0.0,0.0,0.0,0.0,0.0,0.0,0.0,0.0,0.0,0.0,0.0,0.0,0.0,0.0,0.0,0.0,0.0,0.0,0.0,0.0,0.0,0.0,0.0,0.0,0.0,0.0,0.0,0.0,0.0,0.0,0.0,0.0,0.0,0.0,0.0,0.0,0.0,0.0,0.0,0.0,0.0,0.0,0.0,0.0,0.0,0.0,0.0,0.0,0.0,0.0,0.0,0.0,0.0,0.0,0.0,0.0,0.0,0.0,0.0,0.0,0.0,0.0,0.0,0.0,0.0,0.0,0.0,0.0,0.0,0.0,0.0,0.0,0.0,0.0,0.0,0.0,0.0,0.0,0.0,0.0,0.0,0.0,0.0,0.0,0.0,0.0,0.0,0.0,0.0,0.0,0.0,0.0,0.0,0.0,0.0,0.0,0.0,0.0,0.0,0.0,0.0,0.0,0.0,0.0,0.0,0.0,0.0,0.0,0.0,0.0,0.0,0.0,0.0,0.0,0.0,0.0,0.0,0.0,0.0,0.0,0.0,0.0,0.0,0.0,0.0,0.0,0.0,0.0,0.0,0.0,0.0,0.0,0.0,0.0,0.0,0.0,0.0,0.0,0.0,0.0,0.0,0.0,0.0,0.0,0.0,0.0,0.0,0.0,0.0,0.0,0.0,0.0,0.0,0.0,0.0,0.0,0.0,0.0,0.0,0.0,0.0,0.0,0.0,0.0,0.0,0.0,0.0,0.0,0.0,0.0,0.0,0.0,0.0,0.0,0.0,0.0,0.0,0.0,0.0,0.0,0.0,0.0,0.0,0.0,0.0,0.0,0.0,0.0,0.0,0.0,0.0,0.0,0.0,0.0,0.0,0.0,0.0,0.0,0.0,0.0,0.0,0.0,0.0,0.0,0.0,0.0,0.0,0.0,0.0,0.0,0.0,0.0,0.0,0.0,0.0,0.0,0.0,0.0,0.0,0.0,0.0,0.0,0.0,0.0,0.0,0.0,0.0,0.0,0.0,0.0,0.0,0.0,0.0,0.0,0.0,0.0,0.0,0.0,0.0,0.0,0.0,0.0,0.0,0.0,0.0,0.0,0.0,0.0,0.0,0.0,0.0,0.0,0.0,0.0,0.0,0.0,0.0,0.0,0.0,0.0,0.0,0.0,0.0,0.0,0.0,0.0,0.0,0.0,0.0,0.0,0.0,0.0,0.0,0.0,0.0,0.0,0.0,0.0,0.0,0.0,0.0,0.0,0.0,0.0,0.0,0.0,0.0,0.0,0.0,0.0,0.0,0.0,0.0,0.0,0.0,0.0,0.0,0.0,0.0,0.0,0.0,0.0,0.0,0.0,0.0,0.0,0.0,0.0,0.0,0.0,0.0,0.0,0.0,0.0,0.0,0.0,0.0,0.0,0.0,0.0,0.0,0.0,0.0,0.0,0.0,0.0,0.0,0.0,0.0,0.0,0.0,0.0,0.0,0.0,0.0,0.0,0.0,0.0,0.0,0.0,0.0,0.0,0.0,0.0,0.0,0.0,0.0,0.0,0.0,0.0,0.0,0.0,0.0,0.0,0.0,0.0,0.0,0.0,0.0,0.0,0.0,0.0,0.0,0.0,0.0,0.0,0.0,0.0,0.0,0.0,0.0,0.0,0.0,0.0,0.0,0.0,0.0,0.0,0.0,0.0,0.0,0.0,0.0,0.0,0.0,0.0,0.0,0.0,0.0,0.0,0.0,0.0,0.0,0.0,0.0,0.0,0.0,0.0,0.0,0.0,0.0,0.0,0.0,0.0,0.0,0.0,0.0,0.0,0.0,0.0,0.0,0.0,0.0,0.0,0.0,0.0,0.0,0.0,0.0,0.0,0.0,0.0,0.0,0.0,0.0,0.0,0.0,0.0,0.0,0.0,0.0,0.0,0.0,0.0,0.0,0.0,0.0,0.0,0.0,0.0,0.0,0.0,0.0,0.0,0.0,0.0,0.0,0.0,0.0,0.0,0.0,0.0,0.0,0.0,0.0,0.0,0.0,0.0,0.0,0.0,0.0,0.0,0.0,0.0,0.0,0.0,0.0,0.0,0.0,0.0,0.0,0.0,0.0,0.0,0.0,0.0,0.0,0.0,0.0,0.0,0.0,0.0,0.0,0.0,0.0,0.0,0.0,0.0,0.0,0.0,0.0,0.0,0.0,0.0,0.0,0.0,0.0,0.0,0.0,0.0,0.0,0.0,0.0,0.0,0.0,0.0,0.0,0.0,0.0,0.0,0.0,0.0,0.0,0.0,0.0,0.0,0.0,0.0,0.0,0.0,0.0,0.0,0.0,0.0,0.0,0.0,0.0,0.0,0.0,0.0,0.0,0.0,0.0,0.0,0.0,0.0,0.0,0.0,0.0,0.0,0.0,0.0,0.0,0.0,0.0,0.0,0.0,0.0,0.0,0.0,0.0,0.0,0.0,0.0,0.0,0.0,0.0,0.0,0.0,0.0,0.0,0.0,0.0,0.0,0.0,0.0,0.0,0.0,0.0,0.0,0.0,0.0,0.0,0.0,0.0,0.0,0.0,0.0,0.0,0.0,0.0,0.0,0.0,0.0,0.0,0.0,0.0,0.0,0.0,0.0,0.0,0.0,0.0,0.0,0.0,0.0,0.0,0.0,0.0,0.0,0.0,0.0,0.0,0.0,0.0,0.0,0.0,0.0,0.0,0.0,0.0,0.0,0.0,0.0,0.0,0.0,0.0,0.0,0.0,0.0,0.0,0.0,0.0,0.0,0.0,0.0,0.0,0.0,0.0,0.0,0.0,0.0,0.0,0.0,0.0,0.0,0.0,0.0,0.0,0.0,0.0,0.0,0.0,0.0,0.0,0.0,0.0,0.0,0.0,0.0,0.0,0.0,0.0,0.0,0.0,0.0,0.0,0.0,0.0,0.0,0.0,0.0,0.0,0.0,0.0,0.0,0.0,0.0,0.0,0.0,0.0,0.0,0.0,0.0,0.0,0.0,0.0,0.0,0.0,0.0,0.0,0.0,0.0,0.0,0.0,0.0,0.0,0.0,0.0,0.0,0.0,0.0,0.0,0.0,0.0,0.0,0.0,0.0,0.0,0.0,0.0,0.0,0.0,0.0,0.0,0.0,0.0,0.0,0.0,0.0,0.0,0.0,0.0,0.0,0.0,0.0,0.0,0.0,0.0,0.0,0.0,0.0,0.0,0.0,0.0,0.0,0.0,0.0,0.0,0.0,0.0,0.0,0.0,0.0,0.0,0.0,0.0,0.0,0.0,0.0,0.0,0.0,0.0,0.0,0.0,0.0,0.0,0.0,0.0,0.0,0.0,0.0,0.0,0.0,0.0,0.0,0.0,0.0,0.0,0.0,0.0,0.0,0.0,0.0,0.0,0.0,0.0,0.0,0.0,0.0,0.0,0.0,0.0,0.0,0.0,0.0,0.0,0.0,0.0,0.0,0.0,0.0,0.0,0.0,0.0,0.0,0.0,0.0,0.0,0.0,0.0,0.0,0.0,0.0,0.0,0.0,0.0,0.0,0.0,0.0,0.0,0.0,0.0,0.0,0.0,0.0,0.0,0.0,0.0,0.0,0.0,0.0,0.0,0.0,0.0,0.0,0.0,0.0,0.0,0.0,0.0,0.0,0.0,0.0,0.0,0.0,0.0,0.0,0.0,0.0,0.0,0.0,0.0,0.0,0.0,0.0,0.0,0.0,0.0,0.0,0.0,0.0,0.0,0.0,0.0,0.0,0.0,0.0,0.0,0.0,0.0,0.0,0.0,0.0,0.0,0.0,0.0,0.0,0.0,0.0,0.0,0.0,0.0,0.0,0.0,0.0,0.0,0.0,0.0,0.0,0.0,0.0,0.0,0.0,0.0,0.0,0.0,0.0,0.0,0.0,0.0,0.0,0.0,0.0,0.0,0.0,0.0,0.0,0.0,0.0,0.0,0.0,0.0,0.0,0.0,0.0,0.0,0.0,0.0,0.1318,0.0,0.0,0.0,0.0,0.0,0.0,0.0,0.0,0.0,0.0,0.0,0.0,0.0,0.0,0.0,0.0,0.0,0.0,0.0,0.0,0.0,0.0,0.0,0.0,0.0,0.0,0.0,0.0,0.0,0.0,0.0,0.0,0.0,0.0,0.0,0.0,0.0,0.0,0.0,0.0,0.0,0.0,0.0,0.0,0.0,0.0,0.0,0.0,0.0,0.0,0.0,0.0,0.0,0.0,0.0,0.0,0.0,0.0,0.0,0.0,0.0,0.0,0.0,0.0,0.0,0.0,0.0,0.0,0.0,0.0,0.0,0.0,0.0,0.0,0.0,0.0,0.0,0.0,0.0,0.0,0.0,0.0,0.0,0.0,0.0,0.0,0.0,0.0,0.0,0.0,0.0,0.0,0.0,0.0,0.0,0.0,0.0,0.0,0.0,0.0,0.0,0.0,0.0,0.0,0.0,0.0,0.0,0.0,0.0,0.0,0.1335,0.1188,0.1335,0.1356,0.1318,0.0,0.0,0.0,0.0,0.0,0.0,0.0,0.0,0.0,0.0,0.0,0.0,0.0,0.0,0.0,0.0,0.0,0.0,0.0,0.0,0.0,0.0,0.0,0.0,0.0,0.0,0.0,0.0,0.0,0.0,0.0,0.0,0.0,0.0,0.0,0.0,0.0,0.0,0.0,0.0,0.0,0.0,0.0,0.0,0.0,0.0,0.0,0.0,0.0,0.0,0.0,0.0,0.0,0.0,0.0,0.0,0.0,0.0,0.0,0.0,0.0,0.0,0.0,0.0,0.0,0.0,0.0,0.0,0.0,0.0,0.0,0.0,0.0,0.0,0.0,0.0,0.0,0.0,0.0,0.0,0.0,0.0,0.0,0.0,0.0,0.0,0.0,0.0,0.0,0.0,0.0,0.0,0.0,0.0,0.0,0.0,0.0,0.0,0.0,0.0,0.0,0.0,0.0,0.0,0.0,0.0,0.0,0.0,0.0,0.0,0.0,0.0,0.1348,0.1468,0.1502,0.0,0.0,0.0,0.0,0.0,0.0,0.0,0.0,0.0,0.0,0.0,0.0,0.0,0.0,0.0,0.0,0.0,0.0,0.0,0.0,0.0,0.0,0.0,0.0,0.0,0.0,0.0,0.0,0.0,0.0,0.0,0.0,0.0,0.0,0.0,0.0,0.0,0.0,0.0,0.0,0.0,0.0,0.0,0.0,0.0,0.0,0.0,0.0,0.0,0.0,0.0,0.0,0.0,0.0,0.0,0.0,0.0,0.0,0.0,0.0,0.0,0.0,0.0,0.0,0.0,0.0,0.0,0.0,0.0,0.0,0.0,0.0,0.0,0.0,0.0,0.0,0.0,0.0,0.0,0.0,0.0,0.0,0.0,0.0,0.0,0.0,0.0,0.0,0.0,0.0,0.0,0.0,0.0,0.0,0.0,0.0,0.0,0.0,0.0,0.0,0.0,0.0,0.0,0.0,0.0,0.0,0.0,0.0,0.0,0.0,0.118,0.1281,0.1707,0.0,0.2106,0.0,0.0,0.0,0.0,0.0,0.0,0.0,0.0,0.0,0.0,0.0,0.0,0.0,0.0,0.0,0.0,0.0,0.0,0.0,0.0,0.0,0.0,0.0,0.0,0.0,0.0,0.0,0.0,0.0,0.0,0.0,0.0,0.0,0.0,0.0,0.0,0.0,0.0,0.0,0.0,0.0,0.0,0.0,0.0,0.0,0.0,0.0,0.0,0.0,0.0,0.0,0.0,0.0,0.0,0.0,0.0,0.0,0.0,0.0,0.0,0.0,0.0,0.0,0.0,0.0,0.0,0.0,0.0,0.0,0.0,0.0,0.0,0.0,0.0,0.0,0.0,0.0,0.0,0.0,0.0,0.0,0.0,0.0,0.0,0.0,0.0,0.0,0.0,0.0,0.0,0.0,0.0,0.0,0.0,0.0,0.0,0.0,0.0,0.0,0.0,0.0,0.0,0.0,0.0,0.0,0.0,0.0,0.0,0.0,0.0,0.1358,0.141,0.1793,0.2079,0.0,0.0,0.0,0.0,0.0,0.0,0.0,0.0,0.0,0.0,0.0,0.0,0.0,0.0,0.0,0.0,0.0,0.0,0.0,0.0,0.0,0.0,0.0,0.0,0.0,0.0,0.0,0.0,0.0,0.0,0.0,0.0,0.0,0.0,0.0,0.0,0.0,0.0,0.0,0.0,0.0,0.0,0.0,0.0,0.0,0.0,0.0,0.0,0.0,0.0,0.0,0.0,0.0,0.0,0.0,0.0,0.0,0.0,0.0,0.0,0.0,0.0,0.0,0.0,0.0,0.0,0.0,0.0,0.0,0.0,0.0,0.0,0.0,0.0,0.0,0.0,0.0,0.0,0.0,0.0,0.0,0.0,0.0,0.0,0.0,0.0,0.0,0.0,0.0,0.0,0.0,0.0,0.0,0.0,0.0,0.0,0.0,0.0,0.0,0.0,0.0,0.0,0.0,0.0,0.0,0.0,0.0,0.0,0.0,0.0,0.1252,0.0,0.164,0.1891,0.208,0.2138,0.0,0.0,0.0,0.0,0.0,0.0,0.0,0.0,0.0,0.0,0.0,0.0,0.0,0.0,0.0,0.0,0.0,0.0,0.0,0.0,0.0,0.0,0.0,0.0,0.0,0.0,0.0,0.0,0.0,0.0,0.0,0.0,0.0,0.0,0.0,0.0,0.0,0.0,0.0,0.0,0.0,0.0,0.0,0.0,0.0,0.0,0.0,0.0,0.0,0.0,0.0,0.0,0.0,0.0,0.0,0.0,0.0,0.0,0.0,0.0,0.0,0.0,0.0,0.0,0.0,0.0,0.0,0.0,0.0,0.0,0.0,0.0,0.0,0.0,0.0,0.0,0.0,0.0,0.0,0.0,0.0,0.0,0.0,0.0,0.0,0.0,0.0,0.0,0.0,0.0,0.0,0.0,0.0,0.0,0.0,0.0,0.0,0.0,0.0,0.0,0.0,0.0,0.0,0.0,0.0,0.0,0.0,0.0,0.0,0.1151,0.1399,0.194,0.21,0.2124,0.0,0.0,0.0,0.0,0.0,0.0,0.0,0.0,0.0,0.0,0.0,0.0,0.0,0.0,0.0,0.0,0.0,0.0,0.0,0.0,0.0,0.0,0.0,0.0,0.0,0.0,0.0,0.0,0.0,0.0,0.0,0.0,0.0,0.0,0.0,0.0,0.0,0.0,0.0,0.0,0.0,0.0,0.0,0.0,0.0,0.0,0.0,0.0,0.0,0.0,0.0,0.0,0.0,0.0,0.0,0.0,0.0,0.0,0.0,0.0,0.0,0.0,0.0,0.0,0.0,0.0,0.0,0.0,0.0,0.0,0.0,0.0,0.0,0.0,0.0,0.0,0.0,0.0,0.0,0.0,0.0,0.0,0.0,0.0,0.0,0.0,0.0,0.0,0.0,0.0,0.0,0.0,0.0,0.0,0.0,0.0,0.0,0.0,0.0,0.0,0.0,0.0,0.0,0.0,0.0,0.0,0.0,0.0,0.0,0.1012,0.1099,0.1447,0.2045,0.2072,0.2044,0.0,0.0,0.0,0.0,0.0,0.0,0.0,0.0,0.0,0.0,0.0,0.0,0.0,0.0,0.0,0.0,0.0,0.0,0.0,0.0,0.0,0.0,0.0,0.0,0.0,0.0,0.0,0.0,0.0,0.0,0.0,0.0,0.0,0.0,0.0,0.0,0.0,0.0,0.0,0.0,0.0,0.0,0.0,0.0,0.0,0.0,0.0,0.0,0.0,0.0,0.0,0.0,0.0,0.0,0.0,0.0,0.0,0.0,0.0,0.0,0.0,0.0,0.0,0.0,0.0,0.0,0.0,0.0,0.0,0.0,0.0,0.0,0.0,0.0,0.0,0.0,0.0,0.0,0.0,0.0,0.0,0.0,0.0,0.0,0.0,0.0,0.0,0.0,0.0,0.0,0.0,0.0,0.0,0.0,0.0,0.0,0.0,0.0,0.0,0.0,0.0,0.0,0.0,0.0,0.0,0.0,0.0,0.0,0.0,0.0909,0.0,0.1385,0.0,0.1942,0.1861,0.0,0.0,0.0,0.0,0.0,0.0,0.0,0.0,0.0,0.0,0.0,0.0,0.0,0.0,0.0,0.0,0.0,0.0,0.0,0.0,0.0,0.0,0.0,0.0,0.0,0.0,0.0,0.0,0.0,0.0,0.0,0.0,0.0,0.0,0.0,0.0,0.0,0.0,0.0,0.0,0.0,0.0,0.0,0.0,0.0,0.0,0.0,0.0,0.0,0.0,0.0,0.0,0.0,0.0,0.0,0.0,0.0,0.0,0.0,0.0,0.0,0.0,0.0,0.0,0.0,0.0,0.0,0.0,0.0,0.0,0.0,0.0,0.0,0.0,0.0,0.0,0.0,0.0,0.0,0.0,0.0,0.0,0.0,0.0,0.0,0.0,0.0,0.0,0.0,0.0,0.0,0.0,0.0,0.0,0.0,0.0,0.0,0.0,0.0,0.0,0.0,0.0,0.0,0.0,0.0,0.0,0.0,0.0,0.0886,0.0905,0.0914,0.118,0.1596,0.1715,0.1566,0.0,0.0,0.0,0.0,0.0,0.0,0.0,0.0,0.0,0.0,0.0,0.0,0.0,0.0,0.0,0.0,0.0,0.0,0.0,0.0,0.0,0.0,0.0,0.0,0.0,0.0,0.0,0.0,0.0,0.0,0.0,0.0,0.0,0.0,0.0,0.0,0.0,0.0,0.0,0.0,0.0,0.0,0.0,0.0,0.0,0.0,0.0,0.0,0.0,0.0,0.0,0.0,0.0,0.0,0.0,0.0,0.0,0.0,0.0,0.0,0.0,0.0,0.0,0.0,0.0,0.0,0.0,0.0,0.0,0.0,0.0,0.0,0.0,0.0,0.0,0.0,0.0,0.0,0.0,0.0,0.0,0.0,0.0,0.0,0.0,0.0,0.0,0.0,0.0,0.0,0.0,0.0,0.0,0.0,0.0,0.0,0.0,0.0,0.0,0.0,0.0,0.0,0.0,0.0,0.0,0.0,0.0,0.0,0.0,0.091,0.131,0.1573,0.1716,0.1373,0.1201,0.0,0.0,0.0,0.0,0.0,0.0,0.0,0.0,0.0,0.0,0.0,0.0,0.0,0.0,0.0,0.0,0.0,0.0,0.0,0.0,0.0,0.0,0.0,0.0,0.0,0.0,0.0,0.0,0.0,0.0,0.0,0.0,0.0,0.0,0.0,0.0,0.0,0.0,0.0,0.0,0.0,0.0,0.0,0.0,0.0,0.0,0.0,0.0,0.0,0.0,0.0,0.0,0.0,0.0,0.0,0.0,0.0,0.0,0.0,0.0,0.0,0.0,0.0,0.0,0.0,0.0,0.0,0.0,0.0,0.0,0.0,0.0,0.0,0.0,0.0,0.0,0.0,0.0,0.0,0.0,0.0,0.0,0.0,0.0,0.0,0.0,0.0,0.0,0.0,0.0,0.0,0.0,0.0,0.0,0.0,0.0,0.0,0.0,0.0,0.0,0.0,0.0,0.0,0.0,0.0,0.0,0.0,0.0,0.0,0.0565,0.0942,0.1243,0.1474,0.1097,0.0925,0.0971,0.0,0.0,0.0,0.0,0.0,0.0,0.0,0.0,0.0,0.0,0.0,0.0,0.0,0.0,0.0,0.0,0.0,0.0,0.0,0.0,0.0,0.0,0.0,0.0,0.0,0.0,0.0,0.0,0.0,0.0,0.0,0.0,0.0,0.0,0.0,0.0,0.0,0.0,0.0,0.0,0.0,0.0,0.0,0.0,0.0,0.0,0.0,0.0,0.0,0.0,0.0,0.0,0.0,0.0,0.0,0.0,0.0,0.0,0.0,0.0,0.0,0.0,0.0,0.0,0.0,0.0,0.0,0.0,0.0,0.0,0.0,0.0,0.0,0.0,0.0,0.0,0.0,0.0,0.0,0.0,0.0,0.0,0.0,0.0,0.0,0.0,0.0,0.0,0.0,0.0,0.0,0.0,0.0,0.0,0.0,0.0,0.0,0.0,0.0,0.0,0.0,0.0,0.0,0.0,0.0,0.0,0.0,0.0,-0.0229,-0.0083,0.0278,0.0828,0.085,0.0719,0.0,0.0,0.0,0.0,0.0,0.0,0.0,0.0,0.0,0.0,0.0,0.0,0.0,0.0,0.0,0.0,0.0,0.0,0.0,0.0,0.0,0.0,0.0,0.0,0.0,0.0,0.0,0.0,0.0,0.0,0.0,0.0,0.0,0.0,0.0,0.0,0.0,0.0,0.0,0.0,0.0,0.0,0.0,0.0,0.0,0.0,0.0,0.0,0.0,0.0,0.0,0.0,0.0,0.0,0.0,0.0,0.0,0.0,0.0,0.0,0.0,0.0,0.0,0.0,0.0,0.0,0.0,0.0,0.0,0.0,0.0,0.0,0.0,0.0,0.0,0.0,0.0,0.0,0.0,0.0,0.0,0.0,0.0,0.0,0.0,0.0,0.0,0.0,0.0,0.0,0.0,0.0,0.0,0.0,0.0,0.0,0.0,0.0,0.0,0.0,0.0,0.0,0.0,0.0,0.0,0.0,0.0,0.0,0.0,-0.2605,-0.0915,0.0073,0.0234,0.0249,0.0215,0.0,0.0,0.0,0.0,0.0,0.0,0.0,0.0,0.0,0.0,0.0,0.0,0.0,0.0,0.0,0.0,0.0,0.0,0.0,0.0,0.0,0.0,0.0,0.0,0.0,0.0,0.0,0.0,0.0,0.0,0.0,0.0,0.0,0.0,0.0,0.0,0.0,0.0,0.0,0.0,0.0,0.0,0.0,0.0,0.0,0.0,0.0,0.0,0.0,0.0,0.0,0.0,0.0,0.0,0.0,0.0,0.0,0.0,0.0,0.0,0.0,0.0,0.0,0.0,0.0,0.0,0.0,0.0,0.0,0.0,0.0,0.0,0.0,0.0,0.0,0.0,0.0,0.0,0.0,0.0,0.0,0.0,0.0,0.0,0.0,0.0,0.0,0.0,0.0,0.0,0.0,0.0,0.0,0.0,0.0,0.0,0.0,0.0,0.0,0.0,0.0,0.0,0.0,0.0,0.0,0.0,0.0,0.0,-0.2887,-0.3432,-0.1955,-0.0799,0.0,0.0,0.0,0.0,0.0,0.0,0.0,0.0,0.0,0.0,0.0,0.0,0.0,0.0,0.0,0.0,0.0,0.0,0.0,0.0,0.0,0.0,0.0,0.0,0.0,0.0,0.0,0.0,0.0,0.0,0.0,0.0,0.0,0.0,0.0,0.0,0.0,0.0,0.0,0.0,0.0,0.0,0.0,0.0,0.0,0.0,0.0,0.0,0.0,0.0,0.0,0.0,0.0,0.0,0.0,0.0,0.0,0.0,0.0,0.0,0.0,0.0,0.0,0.0,0.0,0.0,0.0,0.0,0.0,0.0,0.0,0.0,0.0,0.0,0.0,0.0,0.0,0.0,0.0,0.0,0.0,0.0,0.0,0.0,0.0,0.0,0.0,0.0,0.0,0.0,0.0,0.0,0.0,0.0,0.0,0.0,0.0,0.0,0.0,0.0,0.0,0.0,0.0,0.0,0.0,0.0,0.0,0.0,0.0,0.0,0.0,-0.2766,-0.3278,-0.299,-0.2071,-0.0555,-0.0173,0.0,0.0,0.0,0.0,0.0,0.0,0.0,0.0,0.0,0.0,0.0,0.0,0.0,0.0,0.0,0.0,0.0,0.0,0.0,0.0,0.0,0.0,0.0,0.0,0.0,0.0,0.0,0.0,0.0,0.0,0.0,0.0,0.0,0.0,0.0,0.0,0.0,0.0,0.0,0.0,0.0,0.0,0.0,0.0,0.0,0.0,0.0,0.0,0.0,0.0,0.0,0.0,0.0,0.0,0.0,0.0,0.0,0.0,0.0,0.0,0.0,0.0,0.0,0.0,0.0,0.0,0.0,0.0,0.0,0.0,0.0,0.0,0.0,0.0,0.0,0.0,0.0,0.0,0.0,0.0,0.0,0.0,0.0,0.0,0.0,0.0,0.0,0.0,0.0,0.0,0.0,0.0,0.0,0.0,0.0,0.0,0.0,0.0,0.0,0.0,0.0,0.0,0.0,0.0,0.0,0.0,0.0,0.0,0.0,-0.2856,-0.3273,-0.3659,-0.3742,-0.3536,-0.1228,0.0,0.0,0.0,0.0,0.0,0.0,0.0,0.0,0.0,0.0,0.0,0.0,0.0,0.0,0.0,0.0,0.0,0.0,0.0,0.0,0.0,0.0,0.0,0.0,0.0,0.0,0.0,0.0,0.0,0.0,0.0,0.0,0.0,0.0,0.0,0.0,0.0,0.0,0.0,0.0,0.0,0.0,0.0,0.0,0.0,0.0,0.0,0.0,0.0,0.2333,0.0,0.0,0.0,0.0,0.0,0.0,0.0,0.0,0.0,0.0,0.0,0.0,0.0,0.0,0.0,0.0,0.0,0.0,0.0,0.0,0.0,0.0,0.0,0.0,0.0,0.0,0.0,0.0,0.0,0.0,0.0,0.0,0.0,0.0,0.0,0.0,0.0,0.0,0.0,0.0,0.0,0.0,0.0,0.0,0.0,0.0,0.0,0.0,0.0,0.0,0.0,0.0,0.0,0.0,0.0,0.0,0.0,0.0,0.0,-0.3152,-0.3906,-0.4235,-0.4365,-0.4409,-0.2258,-0.0713,0.0,0.0,0.0,0.0,0.0,0.0,0.0,0.0,0.0,0.0,0.0,0.0,0.0,0.0,0.0,0.0,0.0,0.0,0.0,0.0,0.0,0.0,0.0,0.0,0.0,0.0,0.0,0.0,0.0,0.0,0.0,0.0,0.0,0.0,0.0,0.0,0.0,0.0,0.0,0.0,0.0,0.0,0.0,0.0,0.0,0.0,0.0,0.0,0.0,0.0,0.0,0.0,0.0,0.0,0.0,0.0,0.0,0.0,0.0,0.0,0.0,0.0,0.0,0.0,0.0,0.0,0.0,0.0,0.0,0.0,0.0,0.0,0.0,0.0,0.0,0.0,0.0,0.0,0.0,0.0,0.0,0.0,0.0,0.0,0.0,0.0,0.0,0.0,0.0,0.0,0.0,0.0,0.0,0.0,0.0,0.0,0.0,0.0,0.0,0.0,0.0,0.0,0.0,0.0,0.0,0.0,0.0,-0.3135,-0.3676,-0.4832,-0.4763,-0.4629,-0.4463,-0.3176,-0.1694,-0.0127,0.0,0.0,0.0,0.0,0.0,0.0,0.0,0.0,0.0,0.0,0.0,0.0,0.0,0.0,0.0,0.0,0.0,0.0,0.0,0.0,0.0,0.0,0.0,0.0,0.0,0.0,0.0,0.0,0.0,0.0,0.0,0.0,0.0,0.0,0.0,0.0,0.0,0.0,-0.1991,-0.1176,0.0,0.0,0.0,0.0,0.0,0.0,0.0,0.0,0.4536,0.0,0.0,0.0,0.0,0.0,0.0,0.0,0.0,0.0,0.0,0.0,0.0,0.0,0.0,0.0,0.0,0.0,0.0,0.0,0.0,0.0,0.0,0.0,0.0,0.0,0.0,0.0,0.0,0.0,0.0,0.0,0.0,0.0,0.0,0.0,0.0,0.0,0.0,0.0,0.0,0.0,0.0,0.0,0.0,0.0,0.0,0.0,0.0,0.0,0.0,0.0,0.0,0.0,0.0,0.0,0.0,-0.3832,-0.3945,-0.4596,-0.575,-0.5497,-0.5046,-0.4535,-0.3926,-0.2575,-0.0502,0.0,0.0,0.0,0.0,0.0,0.0,0.0,0.0,0.0,0.0,0.0,0.0,0.0,0.0,0.0,0.0,0.0,0.0,0.0,0.0,0.0,0.0,0.0,0.0,0.0,0.0,0.0,0.0,0.0,0.0,0.0,0.0,0.0,0.0,0.0,0.0,0.0,0.0,0.0,-0.3129,-0.2534,0.0,0.0,0.0,0.0,0.0,0.0,0.0,0.0,0.4752,0.0,0.0,0.0,0.0,0.0,0.0,0.0,0.0,0.0,0.0,0.0,0.0,0.0,0.0,0.0,0.0,0.0,0.0,0.0,0.0,0.0,0.0,0.0,0.0,0.0,0.0,0.0,0.0,0.0,0.0,0.0,0.0,0.0,0.0,0.0,0.0,0.0,0.0,0.0,0.0,0.0,0.0,0.0,0.0,0.0,0.0,0.0,0.0,0.0,0.0,0.0,0.0,0.0,0.0,0.0,-0.4152,-0.4646,-0.536,-0.6331,-0.582,-0.532,-0.5027,-0.4072,-0.2961,0.0,0.0,0.0,0.0,0.0,0.0,0.0,0.0,0.0,0.0,0.0,0.0,0.0,0.0,0.0,0.0,0.0,0.0,0.0,0.0,0.0,0.0,0.0,0.0,0.0,0.0,0.0,0.0,0.0,0.0,0.0,0.0,0.0,0.0,0.0,0.0,0.0,0.0,0.0,0.0,-0.3464,-0.3373,-0.2229,0.0,0.0,0.0,0.0,0.0,0.0,0.3687,0.4451,0.0,0.0,0.0,0.0,0.0,0.0,0.0,0.0,0.0,0.0,0.0,0.0,0.0,0.0,0.0,0.0,0.0,0.0,0.0,0.0,0.0,0.0,0.0,0.0,0.0,0.0,0.0,0.0,0.0,0.0,0.0,0.0,0.0,0.0,0.0,0.0,0.0,0.0,0.0,0.0,0.0,0.0,0.0,0.0,0.0,0.0,0.0,0.0,0.0,0.0,0.0,0.0,0.0,0.0,0.0,-0.4409,-0.5247,-0.6135,-0.6966,-0.629,-0.5869,-0.5688,-0.4326,-0.3296,0.0,0.0,0.0,0.0,0.0,0.0,0.0,0.0,0.0,0.0,0.0,0.0,0.0,0.0,0.0,0.0,0.0,0.0,0.0,0.0,0.0,0.0,0.0,0.0,0.0,0.0,0.0,0.0,0.0,0.0,0.0,0.0,0.0,0.0,0.0,0.0,0.0,0.0,0.0,0.0,0.0,-0.3773,-0.404,-0.2571,0.0,0.0,0.0,0.0,0.293,0.3768,0.0,0.0,0.0,0.0,0.0,0.0,0.0,0.0,0.0,0.0,0.0,0.0,0.0,0.0,0.0,0.0,0.0,0.0,0.0,0.0,0.0,0.0,0.0,0.0,0.0,0.0,0.0,0.0,0.0,0.0,0.0,0.0,0.0,0.0,0.0,0.0,0.0,0.0,0.0,0.0,0.0,0.0,0.0,0.0,0.0,0.0,0.0,0.0,0.0,0.0,0.0,0.0,0.0,0.0,0.0,0.0,-0.4422,-0.5773,-0.6885,-0.7706,-0.7562,-0.7128,-0.6465,-0.524,-0.3959,0.0,0.0,0.0,0.0,0.0,0.0,0.0,0.0,0.0,0.0,0.0,0.0,0.0,0.0,0.0,0.0,0.0,0.0,0.0,0.0,0.0,0.0,0.0,0.0,0.0,0.0,0.0,0.0,0.0,0.0,0.0,0.0,0.0,0.0,0.0,0.0,0.0,0.0,0.0,0.0,0.0,-0.4018,-0.4404,-0.2903,-0.122,0.0,0.0,0.262,0.2727,0.3293,0.0,0.0,0.0,0.0,0.0,0.0,0.0,0.0,0.0,0.0,0.0,0.0,0.0,0.0,0.0,0.0,0.0,0.0,0.0,0.0,0.0,0.0,0.0,0.0,0.0,0.0,0.0,0.0,0.0,0.0,0.0,0.0,0.0,0.0,0.0,0.0,0.0,0.0,0.0,0.0,0.0,0.0,0.0,0.0,0.0,0.0,0.0,0.0,0.0,0.0,0.0,0.0,0.0,0.0,0.0,-0.4138,-0.4456,-0.6346,-0.7497,-0.7882,-0.7768,-0.7494,-0.6979,-0.5331,-0.3976,0.0,0.0,0.0,0.0,0.0,0.0,0.0,0.0,0.0,0.0,0.0,0.0,0.0,0.0,0.0,0.0,0.0,0.0,0.0,0.0,0.0,0.0,0.0,0.0,0.0,0.0,0.0,0.0,0.0,0.0,0.0,0.0,0.0,0.0,0.0,0.0,0.0,0.0,0.0,0.0,0.0,0.0,-0.3941,-0.2855,0.0,0.0,0.0,0.1644,0.3012,0.0,0.0,0.0,0.0,0.0,0.0,0.0,0.0,0.0,0.0,0.0,0.0,0.0,0.0,0.0,0.0,0.0,0.0,0.0,0.0,0.0,0.0,0.0,0.0,0.0,0.0,0.0,0.0,0.0,0.0,0.0,0.0,0.0,0.0,0.0,0.0,0.0,0.0,0.0,0.0,0.0,0.0,0.0,0.0,0.0,0.0,0.0,0.0,0.0,0.0,0.0,0.0,0.0,0.0,0.0,0.0,0.0,-0.4549,-0.6726,-0.7969,-0.8001,-0.7959,-0.7793,-0.7372,-0.5595,0.0,0.0,0.0,0.0,0.0,0.0,0.0,0.0,0.0,0.0,0.0,0.0,0.0,0.0,0.0,0.0,0.0,0.0,0.0,0.0,0.0,0.0,0.0,0.0,0.0,0.0,0.0,-0.0886,0.0,0.0,0.0,0.0,0.0,0.0,0.0,0.0,0.0,0.0,0.0,0.0,0.0,0.0,-0.339,-0.3989,-0.298,-0.1689,0.0,0.0,0.0649,0.2434,0.3079,0.3406,0.0,0.0,0.0,0.0,0.0,0.0,0.0,0.0,0.0,0.0,0.0,0.0,0.0,0.0,0.0,0.0,0.0,0.0,0.0,0.0,0.0,0.0,0.0,0.0,0.0,0.0,0.0,0.0,0.0,0.0,0.0,0.0,0.0,0.0,0.0,0.0,0.0,0.0,0.0,0.0,0.0,0.0,0.0,0.0,0.0,0.0,0.0,0.0,0.0,0.0,0.0,0.0,0.0,0.0,0.0,-0.4841,-0.6826,-0.8063,-0.8343,-0.8592,-0.8362,-0.7682,-0.6529,-0.523,0.0,0.0,0.0,0.0,0.0,0.0,0.0,0.0,0.0,0.0,0.0,0.0,0.0,0.0,0.0,0.0,0.0,0.0,0.0,0.0,0.0,0.0,0.0,0.0,0.0,0.0,0.0,0.0,0.0,0.0,0.0,0.0,0.0,0.0,0.0,0.0,0.0,0.0,0.0,0.0,0.0,-0.3381,-0.5018,-0.3528,-0.167,0.0,0.0,0.0047,0.0,0.0,0.1067,0.3215,0.0,0.0,0.0,0.0,0.0,0.0,0.0,0.0,0.0,0.0,0.0,0.0,0.0,0.0,0.0,0.0,0.0,0.0,0.0,0.0,0.0,0.0,0.0,0.0,0.0,0.0,0.0,0.0,0.0,0.0,0.0,0.0,0.0,0.0,0.0,0.0,0.0,0.0,0.0,0.0,0.0,0.0,0.0,0.0,0.0,0.0,0.0,0.0,0.0,0.0,0.0,0.0,0.0,-0.4549,-0.4827,-0.6839,-0.8076,-0.842,-0.8657,-0.8561,-0.812,-0.6752,-0.5459,0.0,0.0,0.0,0.0,0.0,0.0,0.0,0.0,0.0,0.0,0.0,0.0,0.0,0.0,0.0,0.0,0.0,0.0,0.0,0.0,0.0,0.0,0.0,0.0,0.0,0.0,0.0,0.0,-0.1481,-0.1427,-0.1316,0.0,0.0,0.0,0.0,0.0,0.0,0.0,0.0,0.0,0.0,-0.3971,-0.5206,-0.4515,0.0,0.0,0.0,0.0,0.0,0.0,0.033,0.1249,0.3147,0.0,0.0,0.0,0.0,0.0,0.0,0.0,0.0,0.0,0.0,0.0,0.0,0.0,0.0,0.0,0.0,0.0,0.0,0.0,0.0,0.0,0.0,0.0,0.0,0.0,0.0,0.0,0.0,0.0,0.0,0.0,0.0,0.0,0.0,0.0,0.0,0.0,0.0,0.0,0.0,0.0,0.0,0.0,0.0,0.0,0.0,0.0,0.0,0.0,0.0,0.0,0.0,-0.4629,-0.5073,-0.6926,-0.8116,-0.8497,-0.8704,-0.8711,-0.8497,-0.6981,-0.5696,0.0,0.0,0.0,0.0,0.0,0.0,0.0,0.0,0.0,0.0,0.0,0.0,0.0,0.0,0.0,0.0,0.0,0.0,0.0,0.0,0.0,0.0,0.0,0.0,0.0,0.0,0.0,0.0,-0.1552,-0.1458,-0.1316,0.0,0.0,0.0,0.0,0.0,0.0,0.0,0.0,0.0,0.0,-0.4167,-0.3857,-0.449,-0.4207,-0.1964,-0.0701,0.0,0.0,0.0,0.0211,0.0947,0.0,0.0,0.0,0.0,0.0,0.0,0.0,0.0,0.0,0.0,0.0,0.0,0.0,0.0,0.0,0.0,0.0,0.0,0.0,0.0,0.0,0.0,0.0,0.0,0.0,0.0,0.0,-0.3013,0.0,0.0,-0.2637,0.0,0.0,0.0,0.0,0.0,0.0,0.0,0.0,0.0,0.0,0.0,0.0,0.0,0.0,0.0,0.0,0.0,0.0,0.0,0.0,0.0,0.0,-0.483,-0.5691,-0.7174,-0.8216,-0.8771,-0.8804,-0.8804,-0.8732,-0.7241,-0.6102,-0.5431,0.0,0.0,0.0,0.0,0.0,0.0,0.0,0.0,0.0,0.0,0.0,0.0,0.0,0.0,0.0,0.0,0.0,0.0,0.0,0.0,0.0,0.0,0.0,0.0,0.0,0.0,-0.133,-0.1315,-0.1313,0.0,0.0,0.0,0.0,0.0,0.0,0.0,0.0,0.0,-0.3361,-0.4321,-0.3698,-0.0644,-0.3125,-0.5173,-0.5197,-0.2326,0.0,0.0,0.0,0.0811,0.0,0.0,0.0,0.0,0.0,0.0,0.0,0.0,0.0,0.0,0.0,0.0,0.0,0.0,0.0,0.0,0.0,0.0,0.0,0.0,0.0,0.0,0.0,0.0,0.0,0.0,0.0,-0.6063,-0.5462,0.0,0.0,0.0,0.0,0.0,0.0,0.0,0.0,0.0,0.0,0.0,-0.7605,-0.7366,0.0,0.0,0.0,0.0,0.0,0.0,0.0,0.0,0.0,0.0,0.0,0.0,-0.5,-0.5752,-0.7787,-0.8848,-0.8798,-0.9263,-0.9256,-0.8804,-0.7729,-0.6332,-0.4655,0.0,0.0,0.0,0.0,0.0,0.0,0.0,0.0,0.0,0.0,0.0,0.0,0.0,0.0,0.0,0.0,0.0,0.0,0.0,0.0,0.0,0.0,0.0,0.0,0.0,-0.1405,0.0,0.0,0.0,0.0,0.0,0.0,0.0,0.0,0.0,0.0,0.0,-0.3367,-0.4126,-0.3393,-0.2174,-0.0234,-0.1035,-0.2641,0.0,0.0,0.0,0.0,0.0,0.0,0.0,0.0,0.0,0.0,0.0,0.0,0.0,0.0,1.3296,1.0662,1.0532,1.1628,1.4284,0.0,0.0,0.0,0.0,0.0,0.0,0.0,0.0,0.0,0.0,0.0,0.0,0.0,0.0,-0.8783,-0.8165,-0.7774,0.0,0.0,0.0,0.0,0.0,0.0,0.0,0.0,-0.9096,-0.9774,-1.0034,-0.9858,-0.9665,-0.9355,-0.8732,-0.7156,0.0,0.0,0.0,0.0,0.0,0.0,0.0,0.0,-0.57,-0.6569,-0.8416,-0.9442,-0.9496,-0.9718,-0.9562,-0.9159,-0.7825,-0.6309,-0.4577,-0.3513,-0.2719,0.0,0.0,0.0,0.0,0.0,0.0,0.0,0.0,0.0,0.0,0.0,0.0,0.0,0.0,0.0,0.0,0.0,0.0,0.0,0.0,0.0,0.0,0.0,-0.1632,0.0,0.0,0.0,0.0,0.0,0.0,0.0,0.0,0.0,-0.33,-0.3598,-0.3973,-0.4465,-0.3009,-0.1454,-0.0179,0.0,0.0,0.0,0.0,0.0,0.0,0.0,0.2958,0.532,0.6348,0.7234,0.8307,0.9997,1.1533,1.2438,0.0,0.0,1.3878,1.4075,1.5314,1.7972,2.0339,2.2157,2.3034,2.4761,2.6451,0.0,0.0,0.0,0.0,-1.1091,0.0,0.0,0.0,-1.2049,-1.1649,0.0,-1.1089,0.0,0.0,0.0,0.0,-0.7375,-0.8973,0.0,0.0,-1.2498,-1.3506,-1.3426,-1.2936,-1.2351,-1.1649,-1.1027,-1.0038,-0.8747,-0.7521,0.0,0.0,0.0,0.0,0.0,0.0,-0.6956,-0.8103,-0.9028,-0.9891,-1.0754,-1.021,-0.9865,-0.9755,-0.7614,-0.6056,-0.5135,-0.4091,-0.3319,-0.2937,-0.2364,0.0,0.0,0.0,0.0,0.0,0.0,0.0,0.0,0.0,0.0,0.0,0.0,0.0,0.0,0.0,0.0,0.0,0.0,0.0,0.0,-0.1902,0.0,0.0,0.0,0.0,0.0,0.0,0.0,0.0,0.0,0.0,-0.4398,-0.4338,-0.4271,-0.4454,0.0,0.0,0.0,0.0,0.0,0.0,0.0,0.0,0.0,0.3495,0.6208,0.625,0.0,0.0,0.8728,1.0461,1.1824,1.2619,1.455,1.5998,1.6332,1.7386,1.9396,2.2893,2.5597,2.7287,2.73,2.8126,2.9034,-2.0314,0.0,0.0,0.0,0.0,-1.6712,-1.6943,-1.7695,-1.6842,-1.5794,-1.4655,-1.3785,0.0,0.0,0.0,0.0,0.0,0.0,-1.2735,-1.2979,-1.3865,-1.4145,-1.3955,-1.3787,-1.3609,-1.3368,-1.3204,-1.2906,-1.2472,-1.1859,-0.9801,-0.6403,0.0,0.0,0.0,0.0,-0.8221,-0.9106,-1.0441,-1.1005,-1.0813,-1.1065,-1.0762,-0.9806,-0.8214,-0.6911,-0.6061,-0.5237,-0.4361,-0.3444,-0.3012,0.0,0.0,0.0,0.0,0.0,0.0,0.0,0.0,0.0,0.0,0.0,0.0,0.0,0.0,0.0,0.0,0.0,0.0,0.0,-0.4131,-0.4283,-0.3874,0.0,0.0,0.0,0.0,0.0,0.0,0.0,0.0,0.0,-0.4498,-0.4619,-0.4613,0.0,0.0,-0.2897,-0.037,0.0,0.0,0.0,0.0,0.0,0.0,0.3554,0.6312,0.6252,0.679,0.7948,0.9935,1.0942,1.2277,1.4712,1.6184,1.7142,1.7564,1.9195,2.1865,2.5575,2.8576,3.0849,3.2282,3.3004,3.3581,-2.6727,-2.4986,-2.1196,-2.005,-2.077,-2.038,-2.0609,-2.1186,-2.0509,-1.9681,-1.88,-1.8067,-1.682,-1.5167,-1.4456,0.0,0.0,0.0,-1.5461,-1.58,-1.6085,-1.6063,-1.5862,-1.5818,-1.5621,-1.5225,-1.4958,-1.4707,-1.4536,-1.3805,-1.2027,-0.9102,0.0,-0.8131,-0.7945,-0.8838,-0.9593,-1.0268,-1.1277,-1.1724,-1.1642,-1.1724,-1.1166,-0.9865,-0.8705,-0.7735,-0.6916,-0.5887,-0.4972,-0.4321,-0.3563,-0.2995,0.0,0.0,0.0,0.0,0.0,0.0,0.0,0.0,0.0,0.0,0.0,-0.2096,-0.1712,0.0,0.0,0.0,-0.2358,-0.3773,-0.5177,-0.5311,0.0,0.0,0.0,0.0,0.0,0.0,0.0,-0.3715,-0.4131,-0.4611,-0.4852,-0.5237,-0.5406,-0.5242,-0.4579,-0.3113,-0.0389,0.0,0.0,0.0,0.0,0.0,0.0,0.2849,0.5312,0.6315,0.7238,0.8458,1.0081,1.1044,1.2409,1.4911,1.6338,1.7311,1.8302,2.027,2.3369,2.8144,3.0881,3.3113,3.5352,3.5805,3.6066,-3.2496,-3.1884,-2.53,-2.2569,-2.263,-2.3065,-2.3259,-2.3273,-2.3245,-2.3126,-2.3035,-2.2993,-2.1746,-1.9546,-1.784,0.0,-1.7689,-1.7702,-1.8086,-1.8737,-1.8737,-1.8646,-1.8566,-1.8554,-1.8092,-1.7148,-1.645,-1.5881,-1.5468,-1.4368,-1.358,-1.3057,-1.2351,-1.1417,-1.0328,-1.0596,-1.104,-1.1573,-1.1798,-1.2236,-1.2881,-1.2187,-1.1216,-1.0012,-0.9259,-0.8534,-0.7759,-0.6383,-0.5501,-0.5379,-0.4165,-0.3509,-0.3615,0.0,0.0,0.0,0.0,0.0,0.0,0.0,0.0,0.0,0.0,0.0,0.0,0.0,0.0,0.0,-0.39,0.0,-0.5529,-0.5473,0.0,0.0,0.0,-0.7367,-0.7189,-0.6613,-0.5768,-0.4629,0.0,0.0,-0.5428,-0.5915,-0.6315,-0.6252,-0.4844,-0.3006,-0.0841,0.0,0.0,0.0,0.0,0.0,0.0,0.1619,0.3726,0.6241,0.7396,0.8324,0.9671,1.073,1.2185,1.4445,1.5559,1.686,1.9008,2.0807,2.391,2.9686,3.2189,3.4121,3.6439,3.6738,3.6767,-3.2496,-3.2335,-3.0154,-2.8983,-2.8483,-2.813,-2.738,-2.6375,-2.5888,-2.5142,-2.4107,-2.3701,-2.3192,-2.2592,-2.1637,-2.1238,-2.1316,-2.0803,-2.0341,-1.9979,-1.9991,-1.9645,-1.9132,-1.9132,-1.9007,-1.8701,-1.8159,-1.7801,-1.7668,-1.6983,-1.5935,-1.4747,-1.4956,-1.3963,-1.1782,-1.211,-1.258,-1.2984,-1.2782,-1.2715,-1.2881,-1.2187,-1.1657,-1.1316,-1.0653,-0.9725,-0.8534,-0.809,-0.7378,-0.6333,-0.5242,-0.4439,-0.3945,-0.2784,0.0,0.0,0.0,0.0,0.0,0.0,0.0,0.0,0.0,-0.279,-0.2527,0.0,-0.3775,0.0,-0.5363,-0.7829,-0.755,-0.6946,0.0,0.0,-0.9206,-0.9686,-0.7943,-0.7759,-0.7026,-0.5019,-0.5203,-0.5623,-0.6,-0.6173,-0.6314,-0.6311,-0.5928,-0.5415,-0.4784,-0.1917,0.0,0.0,0.0,0.0,0.0,0.0398,0.2128,0.6093,0.685,0.7835,0.9937,1.059,1.1798,1.4714,1.5627,1.6982,1.9601,2.0711,2.2535,2.6793,2.994,3.3072,3.6423,3.6822,3.7068,-3.3896,-3.3851,-3.3499,-3.2997,-3.2269,-3.0707,-2.9582,-2.8823,-2.8178,-2.7506,-2.673,-2.6076,-2.5813,-2.576,-2.5039,-2.4361,-2.3742,-2.3345,-2.2584,-2.1614,-2.1614,-2.1245,-2.0653,-2.0594,-2.0534,-2.0238,-1.9656,-1.9356,-1.9287,-1.8669,-1.779,-1.6667,-1.7055,-1.6236,-1.4416,-1.393,-1.3686,-1.3629,-1.3941,-1.4066,-1.4056,-1.3675,-1.3065,-1.2311,-1.1718,-1.0751,-0.9467,-0.8884,-0.8084,-0.6934,-0.5939,-0.5,-0.4041,-0.3491,-0.3065,0.0,0.0,0.0,0.0,0.0,0.0,0.0,0.0,0.0,0.0,0.0,-0.6028,-0.452,-0.7573,-0.9311,-0.8521,-0.8564,-0.8851,-0.9532,-1.0909,-1.1209,-0.9829,-0.9464,-0.9023,-0.8271,-0.7703,-0.797,-0.9547,-0.9787,-0.9151,-0.7789,-0.7594,-0.7275,-0.6329,-0.3513,-0.1108,0.0,0.0,0.0,0.0,0.0,0.0779,0.328,0.5448,0.7289,0.8687,0.9909,1.1375,1.3672,1.5018,1.6026,1.7488,1.9432,2.1375,2.3554,2.6806,3.0367,3.3877,3.5197,3.6282,-3.5955,-3.591,-3.591,-3.5555,-3.4822,-3.2347,-3.1111,-3.0803,-3.0228,-2.9909,-2.9672,-2.8969,-2.8621,-2.8523,-2.7752,-2.6758,-2.5633,-2.5501,-2.4734,-2.3419,-2.3346,-2.3009,-2.2422,-2.241,-2.2171,-2.1707,-2.097,-2.0646,-2.0634,-1.9936,-1.9286,-1.8692,-1.8726,-1.818,-1.6999,-1.5907,-1.4911,-1.4063,-1.5041,-1.5541,-1.5485,-1.5409,-1.4625,-1.311,-1.2558,-1.1756,-1.0561,-0.9455,-0.8458,-0.7616,-0.6712,-0.5663,-0.4453,-0.4529,-0.4575,0.0,-0.3705,0.0,0.0,0.0,0.0,0.0,0.0,0.0,0.0,-0.6899,-0.7889,-0.8459,-1.007,-1.061,-0.9568,-1.0336,-1.1203,-1.1985,-1.2334,-1.2458,-1.2134,-1.1291,-1.1095,-1.2204,-1.072,-1.0806,-1.3419,-1.4069,-1.2845,-0.9952,-0.9087,-0.8371,-0.6831,-0.4879,-0.2831,0.0,0.0,0.0,0.0,0.0,0.0,0.0,0.3527,0.6474,0.7155,0.8935,1.0778,1.2151,1.3924,1.4956,1.4166,1.7245,1.9756,2.0692,2.3565,2.6886,3.0454,3.3086,3.4976,-3.7888,-3.7483,-3.7466,-3.7371,-3.7127,-3.5432,-3.3793,-3.2235,-3.2101,-3.1448,-3.0438,-3.0253,-2.9917,-2.9332,-2.8523,-2.8026,-2.774,-2.7148,-2.614,-2.4833,-2.4833,-2.4128,-2.2987,-2.2915,-2.2924,-2.2739,-2.2197,-2.1915,-2.1902,-2.1341,-2.0555,-1.9523,-2.0031,-1.9215,-1.7347,0.0,0.0,0.0,-1.5796,-1.5901,-1.5522,-1.4982,-1.4378,-1.3718,-1.351,0.0,-1.1757,-1.1063,-1.0472,-0.9709,-0.8444,0.0,0.0,0.0,0.0,0.0,0.0,0.0,0.0,0.0,0.0,0.0,-0.7652,-0.7898,-0.6681,-0.7328,-0.8525,-1.0091,-1.2278,-1.3394,-1.2891,-1.2661,-1.2957,-1.398,-1.3958,-1.3692,-1.341,-1.2709,-1.2362,-1.2244,-1.1929,-1.2293,-1.3854,-1.4105,-1.3199,-1.0841,-0.9427,-0.8307,-0.702,-0.6354,-0.4527,0.0,0.0,0.0,0.0,0.0,0.0,0.0,0.2232,0.4877,0.6825,0.8249,1.0009,1.1809,1.2668,1.3269,1.3906,1.4824,1.6601,1.9904,2.1231,2.3279,2.837,3.1521,3.4197,-3.8996,-3.8729,-3.8747,-3.8747,0.0,-3.7621,-3.6595,-3.5496,-3.3827,-3.2695,-3.2073,-3.2073,-3.169,-3.1058,-3.0669,-2.9888,-2.8857,-2.8496,-2.7572,-2.624,-2.5835,-2.5292,-2.4532,-2.3862,-2.3552,-2.354,-2.2987,-2.2711,-2.2698,-2.2828,-2.2437,-2.1516,-2.2242,-2.1825,-2.0463,-2.1023,-2.0258,-1.8206,-1.8425,-1.8425,-1.8181,-1.7849,-1.7145,-1.6115,-1.5734,0.0,0.0,0.0,0.0,0.0,0.0,0.0,0.0,0.0,0.0,-0.8667,-0.6907,-0.5853,-0.5927,-0.523,-0.6156,-0.9264,-1.053,-1.0394,-0.8774,-0.8728,-0.9681,-1.1776,-1.4495,-1.5451,-1.3884,-1.2588,-1.277,-1.5041,-1.6166,-1.6258,-1.4976,-1.4628,-1.444,-1.3954,-1.3258,-1.3485,-1.542,-1.4657,-1.373,-1.2431,-1.0781,-0.9253,-0.806,-0.7329,-0.5284,0.0,0.0,0.0,0.0,0.0,0.0,0.0,0.1968,0.437,0.6691,0.8101,0.9488,1.1123,1.1895,1.2674,1.3822,1.4088,1.4824,1.6846,1.8221,2.0304,2.4785,2.8395,3.1751,-4.0077,-3.9979,-3.9979,-3.9979,-3.9939,-3.9326,-3.8929,-3.8503,-3.5644,0.0,0.0,-3.4156,-3.373,-3.2975,-3.2882,-3.1749,-2.9972,-2.9813,-2.8986,-2.7673,-2.6971,-2.658,-2.6276,-2.5117,-2.4564,-2.4387,-2.3901,-2.362,-2.3531,-2.4176,-2.4256,-2.3846,-2.4354,-2.4465,-2.4021,-2.3356,-2.2622,-2.1735,-2.1202,-2.09,-2.09,-2.0768,-2.0004,-1.8486,-1.8014,-1.6834,-1.4911,-1.4714,-1.4181,-1.3198,-1.2762,-1.1894,-1.0496,-1.0656,-1.0695,-1.0316,-0.9267,-0.8531,-0.8096,-0.8707,-1.0147,-1.2509,-1.2746,-1.2265,-1.1059,-1.0544,-1.1219,-1.3532,-1.6318,-1.698,-1.4591,-1.3059,-1.3233,-1.6315,-1.8061,-1.8193,-1.6465,-1.633,-1.6308,-1.5944,-1.4877,-1.4554,-1.6188,-1.5144,-1.4088,-1.3828,-1.2431,-1.0539,-0.9152,-0.7841,-0.5888,0.0,0.0,0.0,0.0,0.0,0.0,0.0,0.1611,0.3842,0.6453,0.7959,0.8978,1.0096,1.1209,1.2339,1.3476,1.3919,1.4088,1.4088,1.547,1.7629,2.0727,2.4489,2.8339,-4.1944,-4.1474,-4.1474,-4.1474,-4.1421,-4.0707,-3.9761,-3.8633,-3.7678,-3.6952,-3.6319,-3.6335,-3.5633,-3.4404,-3.3826,-3.3067,-3.2118,-3.1516,-3.0455,-2.9145,-2.897,-2.8319,-2.7166,-2.6951,-2.6603,-2.6092,-2.5983,-2.5611,-2.516,-2.5189,-2.5176,-2.5108,-2.5205,-2.528,-2.522,-2.4704,-2.4573,-2.4858,-2.2246,-2.09,-2.0886,-2.0359,-1.9774,-1.9221,-1.8992,-1.8096,-1.6451,-1.6359,-1.6214,-1.5915,-1.466,-1.3851,-1.3788,-1.2962,-1.2657,-1.2928,-1.1525,-1.0065,-0.8829,-0.9695,-1.1696,-1.4533,-1.4039,-1.3277,-1.2887,-1.2639,-1.3405,-1.5528,-1.7082,-1.788,-1.7409,-1.7441,-1.7716,-1.8307,-1.8294,-1.7906,-1.762,-1.7251,-1.7149,-1.7492,-1.7121,-1.597,-1.5032,-1.4412,-1.4088,-1.4095,-1.343,-1.2416,-0.951,-0.786,-0.6989,-0.5733,-0.2509,0.0,0.0,0.0,0.0,0.0,0.0,0.2145,0.6103,0.7173,0.786,0.8978,1.0096,1.1225,1.2369,1.3404,1.3997,1.4088,1.458,1.5591,1.7821,2.0724,2.459,-4.2958,-4.2734,-4.2734,-4.2716,-4.2659,-4.2067,-4.125,-4.0367,-3.9779,-3.8724,-3.7451,-3.7385,-3.6804,-3.5815,-3.5114,-3.4409,-3.3698,-3.2998,-3.23,-3.1634,-3.0839,-3.0104,-2.9392,-2.8341,-2.7644,-2.7381,-2.7034,-2.6576,-2.6035,-2.6343,-2.6353,-2.6042,-2.639,-2.6614,-2.6615,-2.6046,-2.5883,-2.6093,-2.4007,-2.2931,-2.2917,-2.2277,-2.1659,-2.1172,-2.1098,-2.0548,-1.9477,-1.9115,-1.9063,-1.9296,-1.8099,-1.7148,-1.6527,-1.5855,-1.5207,-1.4532,-1.4023,-1.296,-1.1303,-1.2743,-1.4364,-1.5937,-1.5613,-1.535,-1.545,-1.434,-1.4603,-1.659,-1.7543,-1.8007,-1.8066,-1.9058,-1.9846,-1.98,-1.9506,-1.922,-1.907,-1.8982,-1.9031,-1.9235,-1.9187,-1.8221,-1.6116,-1.4817,-1.4088,-1.4088,-1.36,-1.2032,-0.9414,-0.8464,-0.7863,-0.6989,-0.4202,-0.161,0.0,0.0,0.0,0.0,0.0,0.0,0.4652,0.6088,0.7514,0.8636,0.9405,1.0366,1.186,1.3319,1.3919,1.4088,1.4088,1.4629,1.5782,1.8734,2.3595,-4.3479,-4.3479,-4.3479,-4.3479,-4.3444,-4.3069,-4.2559,-4.1997,-4.149,-4.0279,-3.867,-3.8427,-3.8017,-3.7269,-3.6521,-3.574,-3.492,-3.4182,-3.3742,-3.3463,-3.2392,-3.184,-3.1667,-3.0148,-2.9361,-2.9189,-2.8699,-2.8194,-2.7729,-2.8135,-2.8001,-2.7321,-2.7619,-2.776,-2.756,-2.7066,-2.6811,-2.6737,-2.5659,-2.4955,-2.4791,-2.4193,-2.3595,-2.3161,-2.2951,-2.2652,-2.2143,-2.1583,-2.1574,-2.2005,-2.0968,-1.9814,-1.8871,-1.8208,-1.7347,-1.6289,-1.6365,-1.5719,-1.4072,-1.595,-1.7338,-1.7574,-1.7502,-1.7557,-1.7795,-1.6262,-1.5836,-1.7398,-1.79,-1.8075,-1.8471,-1.9664,-2.0592,-2.0585,-2.0567,-2.0374,-2.0193,-2.0361,-2.0576,-2.0576,-2.0576,-1.9835,-1.8221,-1.6601,-1.5289,-1.4266,-1.3093,-1.1552,-1.0009,-0.9492,-0.8807,-0.7499,-0.5714,-0.3212,0.0,0.0,0.0,0.0,0.0,0.0,0.3395,0.5636,0.716,0.8288,0.8715,0.951,1.1267,1.2979,1.3913,1.4088,1.4088,1.4237,1.4866,1.8373,2.3201,-4.3479,-4.3479,-4.3479,-4.3479,-4.3497,-4.3444,-4.3087,-4.2655,-4.2519,-4.1842,-4.0579,-4.0131,-3.9462,-3.8772,-3.8068,-3.6999,-3.5695,-3.4888,-3.4258,-3.3713,-3.3463,-3.336,-3.336,-3.3108,-3.276,-3.2171,-3.1962,-3.1517,-3.0887,-3.1036,-3.0525,-2.9345,-2.8724,-2.814,-2.7645,-2.7535,-2.752,-2.752,-2.6767,-2.6123,-2.5525,-2.4836,-2.4507,-2.4448,-2.3849,-2.349,-2.3327,-2.285,-2.284,-2.3247,-2.1777,-2.0809,-2.0557,-1.9271,-1.8495,-1.8573,-1.8334,-1.7323,-1.5682,-1.8324,-2.0095,-2.0167,-1.9733,-1.9548,-1.9585,-1.844,-1.7842,-1.8438,-1.8272,-1.8453,-1.9142,-2.0052,-2.0595,-2.0584,-2.0613,-2.0595,-2.0488,-2.0615,-2.0576,-2.0576,-2.0576,-2.0479,-2.0079,-1.9678,-1.8231,-1.4918,-1.3717,-1.2735,-1.2054,-1.1203,-1.0173,-0.8973,-0.757,-0.49,0.0,0.0,0.0,0.0,0.0,0.0,0.295,0.528,0.718,0.7507,0.8189,0.8903,0.9892,1.1618,1.3743,1.3685,1.3848,1.4321,1.565,1.8288,2.2423,-4.3479,-4.3479,-4.3479,-4.3479,-4.3479,-4.3479,-4.3375,-4.3178,-4.2826,-4.2382,-4.1895,-4.0967,-4.0229,-3.9597,-3.8908,-3.8204,-3.7585,-3.6471,-3.576,-3.5429,-3.4611,-3.4186,-3.4137,-3.3786,-3.3422,-3.3233,-3.3217,-3.2848,-3.2256,-3.1791,-3.1086,-3.0196,-2.9706,-2.9265,-2.8638,-2.7959,-2.7765,-2.8125,-2.7489,-2.7036,-2.6692,-2.5749,-2.5211,-2.5181,-2.4926,-2.4372,-2.3775,-2.4089,-2.4149,-2.3657,-2.323,-2.2922,-2.2582,-2.1891,-2.1564,-2.1649,-2.0765,-1.9877,-1.9091,-1.9815,-2.0729,-2.1971,-2.0938,-2.0351,-2.0288,-1.9836,-1.9849,-2.0413,-1.9929,-1.949,-1.9505,-2.0091,-2.0576,-2.0576,-2.0576,-2.0576,-2.0576,-2.0576,-2.0576,-2.0576,-2.0576,-2.0576,-2.0576,-2.0576,-1.9511,-1.7058,-1.5764,-1.4906,-1.4296,-1.3296,-1.2202,-1.0823,-0.8769,-0.6602,-0.4196,-0.1519,0.0,0.0,0.0,0.0,0.0,0.0,0.7094,0.7074,0.7588,0.8212,0.8874,0.9104,1.0193,1.1451,1.3515,1.4237,1.4678,1.6565,1.973,-4.3479,-4.3479,-4.3479,-4.3479,-4.3479,-4.3479,-4.3479,-4.3444,-4.3105,-4.2936,-4.2835,-4.1803,-4.0967,-4.03,-3.9595,-3.9208,-3.887,-3.7872,-3.7263,-3.6962,-3.5766,-3.521,-3.5146,-3.448,-3.4153,-3.4153,-3.4186,-3.3925,-3.3372,-3.2751,-3.2022,-3.1396,-3.0854,-3.0328,-2.9665,-2.8701,-2.8388,-2.867,-2.8319,-2.8091,-2.7939,-2.7003,-2.6238,-2.5884,-2.5689,-2.5129,-2.4206,-2.5067,-2.5329,-2.4745,-2.4821,-2.4698,-2.4282,-2.4178,-2.4336,-2.4518,-2.3031,-2.1855,-2.1542,-2.1081,-2.1459,-2.2788,-2.1949,-2.136,-2.1441,-2.1371,-2.1606,-2.2218,-2.2277,-2.185,-2.0472,-2.1394,-2.1942,-2.1517,-2.1245,-2.1051,-2.0644,-2.0576,-2.0576,-2.0576,-2.0576,-2.0576,-2.0576,-2.0566,-1.9942,-1.8531,-1.7619,-1.7074,-1.6308,-1.5448,-1.4657,-1.3271,-1.0859,-0.8836,-0.7234,-0.4634,-0.2141,0.0,0.0,0.0,0.0,0.0,0.6462,0.6171,0.6704,0.7241,0.7875,0.7687,0.7944,1.0008,1.183,1.2997,1.2942,1.4534,1.6652,-4.3479,-4.3479,-4.3479,-4.3479,-4.3479,-4.3479,-4.3479,-4.3479,-4.3444,-4.3451,-4.3371,-4.2817,-4.1937,-4.092,-4.0331,-3.9681,-3.9056,-3.887,-3.843,-3.7821,-3.7013,-3.6658,-3.6624,-3.5886,-3.5487,-3.5417,-3.5333,-3.5328,-3.5273,-3.4644,-3.4035,-3.3416,-3.22,-3.1164,-3.0583,-3.0174,-2.9747,-2.9553,-2.9366,-2.9303,-2.9241,-2.867,-2.7714,-2.6687,-2.5959,-2.5612,-2.5553,-2.5553,-2.6103,-2.7333,-2.618,-2.5508,-2.5508,-2.5493,-2.6045,-2.684,-2.4815,-2.2828,-2.1944,-2.2401,-2.2992,-2.3115,-2.3032,-2.3193,-2.3467,-2.317,-2.3038,-2.3292,-2.4831,-2.485,-2.3039,-2.4288,-2.49,-2.3329,-2.2703,-2.1828,-2.0779,-2.0779,-2.0634,-2.0634,-2.0644,-2.0566,-2.0576,-2.0576,-1.9991,-1.8868,-1.79,-1.7465,-1.7638,-1.7664,-1.6984,-1.5914,-1.4535,-1.2766,-0.8428,-0.611,-0.6151,-0.5466,0.0,0.0,0.0,0.0713,0.3212,0.5366,0.6447,0.6982,0.7146,0.7584,0.8204,0.9284,0.9929,1.0629,1.1321,1.349,1.5348,-4.3479,-4.3479,-4.3479,-4.3479,-4.3479,-4.3479,-4.3479,-4.3479,-4.3479,-4.3483,-4.3415,-4.2918,-4.248,-4.2038,-4.1464,-4.0629,-3.9697,-3.9208,-3.8853,-3.8497,-3.7489,-3.7152,-3.7364,-3.6211,-3.5891,-3.6248,-3.5859,-3.5639,-3.5605,-3.5334,-3.4857,-3.4337,-3.4185,-3.3533,-3.2536,-3.2237,-3.1909,-3.1348,-3.0593,-3.0108,-3.006,-2.9418,-2.8638,-2.7852,-2.7221,-2.6871,-2.6871,-2.6871,-2.7127,-2.7573,-2.6705,-2.6243,-2.6273,-2.6632,-2.7051,-2.7369,-2.6213,-2.4832,-2.375,-2.372,-2.4164,-2.4666,-2.4035,-2.3929,-2.4356,-2.4368,-2.4352,-2.4821,-2.5741,-2.5857,-2.5591,-2.6,-2.5684,-2.3841,-2.2914,-2.2434,-2.188,-2.1662,-2.1593,-2.1603,-2.1155,-2.0566,-2.0615,-2.0576,-2.0508,-2.0245,-1.9901,-1.9859,-2.0008,-1.985,-1.9146,-1.8674,-1.7953,-1.6284,-1.2351,-0.8698,-0.6974,-0.6773,0.0,0.0,0.0,-0.1247,0.1156,0.2404,0.4192,0.6624,0.6609,0.7228,0.7944,0.82,0.8747,0.9354,0.9857,1.1822,1.3403,-4.3479,-4.3479,-4.3479,-4.3479,-4.3479,-4.3479,-4.3479,-4.3479,-4.3479,-4.3479,-4.341,-4.3105,-4.2864,-4.2655,-4.2244,-4.1464,-4.0414,-3.9856,-3.9506,-3.9225,-3.8147,-3.7843,-3.7993,-3.7084,-3.6629,-3.6654,-3.5994,-3.5639,-3.5639,-3.5639,-3.5334,-3.4928,-3.5382,-3.5009,-3.3921,-3.3722,-3.3351,-3.2719,-3.1896,-3.1426,-3.1328,-3.0502,-2.9862,-2.9343,-2.8442,-2.7795,-2.7625,-2.756,-2.76,-2.7554,-2.715,-2.6901,-2.6961,-2.737,-2.756,-2.7509,-2.6864,-2.6283,-2.5577,-2.4929,-2.4879,-2.5542,-2.488,-2.4494,-2.4983,-2.4921,-2.5109,-2.5649,-2.6181,-2.6521,-2.6521,-2.6465,-2.591,-2.4669,-2.4059,-2.3795,-2.374,-2.3032,-2.2339,-2.1745,-2.1088,-2.0752,-2.0928,-2.0996,-2.1152,-2.1426,-2.1445,-2.1592,-2.1724,-2.1473,-2.0857,-2.0782,-2.0585,-1.9405,-1.7211,-1.4531,-1.1277,-1.0489,-0.9275,-0.7753,-0.5343,-0.3198,-0.1511,-0.0356,0.1779,0.4636,0.634,0.6874,0.7258,0.7434,0.7984,0.8676,0.9239,0.9978,1.1531,-4.3479,-4.3479,-4.3479,-4.3479,-4.3479,-4.3479,-4.3479,-4.3479,-4.3479,-4.3479,-4.3497,-4.3444,-4.3178,-4.2826,-4.275,-4.2062,-4.1115,-4.0863,-4.0504,-3.9918,-3.9057,-3.8753,-3.8954,-3.8628,-3.778,-3.6772,-3.5994,-3.5639,-3.5639,-3.5639,-3.5571,-3.5588,-3.5554,-3.5233,-3.4489,-3.4317,-3.3997,-3.3575,-3.3304,-3.3262,-3.322,-3.2064,-3.1364,-3.1106,-2.9593,-2.8411,-2.7755,-2.764,-2.761,-2.7595,-2.758,-2.7545,-2.7485,-2.7545,-2.756,-2.7509,-2.693,-2.691,-2.7273,-2.6045,-2.5507,-2.5949,-2.5303,-2.5163,-2.562,-2.53,-2.5372,-2.6138,-2.6471,-2.6521,-2.6521,-2.6521,-2.6427,-2.6411,-2.6042,-2.5996,-2.5865,-2.4707,-2.285,-2.1415,-2.0937,-2.1085,-2.1774,-2.204,-2.1987,-2.1855,-2.1875,-2.1943,-2.209,-2.2155,-2.222,-2.2123,-2.2044,-2.1474,-2.1237,-2.0809,-1.768,-1.5027,-1.3487,-1.176,-0.8345,-0.5843,-0.4345,-0.3014,-0.0267,0.2497,0.4559,0.5193,0.6753,0.7181,0.767,0.8097,0.8568,0.9196,0.9661,-4.3479,-4.3479,-4.3479,-4.3479,-4.3479,-4.3479,-4.3479,-4.3479,-4.3479,-4.3479,-4.3479,-4.3479,-4.341,-4.3304,-4.325,-4.2828,-4.2121,-4.1707,-4.103,-4.0203,-3.9766,-3.9648,-3.9714,-3.9627,-3.8639,-3.6954,-3.5994,-3.5639,-3.5656,-3.5639,-3.5639,-3.5639,-3.5639,-3.552,-3.525,-3.5172,-3.5036,-3.4895,-3.4421,-3.415,-3.4083,-3.3237,-3.2577,-3.2083,-3.1087,-3.0202,-2.958,-2.832,-2.7625,-2.7625,-2.756,-2.756,-2.756,-2.756,-2.756,-2.7575,-2.7408,-2.7587,-2.8054,-2.7391,-2.7143,-2.7652,-2.6961,-2.6557,-2.6854,-2.6337,-2.6131,-2.6508,-2.6521,-2.6521,-2.6521,-2.6521,-2.6515,-2.6477,-2.6489,-2.6482,-2.6528,-2.6296,-2.5154,-2.3112,-2.2452,-2.3763,-2.5739,-2.5174,-2.2699,-2.2256,-2.2256,-2.2383,-2.2676,-2.2783,-2.293,-2.2822,-2.3066,-2.3086,-2.2529,-2.1681,-1.963,-1.6668,-1.4884,-1.3608,-1.0497,-0.8495,-0.7082,-0.5147,-0.2403,0.0,0.2055,0.3694,0.5031,0.674,0.7344,0.7677,0.7919,0.8347,0.8905,-4.3479,-4.3479,-4.3479,-4.3479,-4.3479,-4.3479,-4.3479,-4.3479,-4.3479,-4.3479,-4.3479,-4.3479,-4.3479,-4.3479,-4.3479,-4.3214,-4.2711,-4.2302,-4.1508,-4.0514,-4.0171,-4.0121,-4.0053,-3.9781,-3.9101,-3.7699,-3.6535,-3.6045,-3.6045,-3.5774,-3.5639,-3.5639,-3.5639,-3.5622,-3.5639,-3.5639,-3.5639,-3.5554,-3.5148,-3.4912,-3.4759,-3.4184,-3.3624,-3.3184,-3.2315,-3.1659,-3.117,-2.9815,-2.8728,-2.805,-2.776,-2.761,-2.756,-2.7625,-2.7835,-2.8203,-2.8143,-2.8263,-2.8808,-2.8469,-2.844,-2.8954,-2.8312,-2.7816,-2.7919,-2.7217,-2.6521,-2.6521,-2.6521,-2.6521,-2.6521,-2.6521,-2.6521,-2.6521,-2.6465,-2.6553,-2.6753,-2.7238,-2.7011,-2.5515,-2.5284,-2.6783,-2.7968,-2.6625,-2.368,-2.2857,-2.2685,-2.2783,-2.2989,-2.3115,-2.3135,-2.3135,-2.3125,-2.3125,-2.3135,-2.2242,-2.1137,-1.8264,-1.5453,-1.3883,-1.1619,-1.0453,-0.926,-0.7085,-0.453,-0.2144,-0.0089,0.1255,0.272,0.4564,0.6314,0.765,0.7987,0.8021,0.8403,-4.3479,-4.3479,-4.3479,-4.3479,-4.3479,-4.3479,-4.3479,-4.3479,-4.3479,-4.3479,-4.3479,-4.3479,-4.3479,-4.3479,-4.3479,-4.325,-4.2808,-4.2655,-4.2021,-4.1059,-4.0497,-4.0204,-4.0053,-3.946,-3.902,-3.8633,-3.7364,-3.6755,-3.6603,-3.596,-3.5639,-3.5639,-3.5639,-3.5639,-3.5639,-3.5639,-3.5639,-3.5605,-3.5571,-3.5554,-3.552,-3.4928,-3.4556,-3.4462,-3.3334,-3.2652,-3.2529,-3.1783,-3.0545,-2.8885,-2.8182,-2.7865,-2.7634,-2.7619,-2.8368,-2.931,-2.8951,-2.9056,-2.9456,-2.9427,-2.9435,-2.9594,-2.9275,-2.9066,-2.8862,-2.792,-2.6905,-2.6589,-2.6726,-2.6731,-2.6612,-2.6483,-2.6521,-2.6584,-2.6672,-2.6804,-2.7243,-2.7419,-2.7488,-2.7863,-2.8399,-2.9013,-2.9639,-2.7221,-2.5083,-2.3477,-2.3142,-2.3327,-2.3037,-2.3144,-2.3125,-2.3135,-2.3135,-2.3144,-2.3125,-2.2058,-2.1062,-1.9742,-1.6978,-1.5136,-1.3144,-1.1997,-1.0585,-0.8408,-0.6593,-0.4287,-0.2793,-0.1722,-0.0182,0.1574,0.3908,0.6597,0.7505,0.703,0.7447,-4.3479,-4.3479,-4.3479,-4.3479,-4.3479,-4.3479,-4.3479,-4.3479,-4.3479,-4.3479,-4.3479,-4.3479,-4.3479,-4.3479,-4.3479,-4.341,-4.3214,-4.2902,-4.2342,-4.1578,-4.0949,-4.0449,-4.0018,-3.936,-3.9022,-3.8819,-3.7652,-3.6789,-3.6705,-3.6062,-3.5673,-3.5639,-3.5639,-3.5639,-3.5639,-3.5639,-3.5639,-3.5639,-3.5639,-3.5639,-3.5605,-3.5453,-3.5334,-3.5205,-3.4398,-3.3984,-3.3856,-3.2867,-3.1628,-3.0161,-2.9431,-2.8614,-2.788,-2.8472,-2.9175,-2.952,-2.9505,-2.9594,-3.0078,-3.0179,-3.0377,-3.0777,-3.0274,-2.995,-2.995,-2.9366,-2.8168,-2.7297,-2.7471,-2.7824,-2.6883,-2.6531,-2.6716,-2.6992,-2.7175,-2.7318,-2.7808,-2.8247,-2.8436,-2.826,-2.8938,-2.9478,-2.9291,-2.8187,-2.6046,-2.4284,-2.3914,-2.417,-2.3861,-2.3461,-2.3637,-2.3222,-2.3135,-2.3135,-2.2822,-2.1787,-2.0947,-2.048,-1.8802,-1.7204,-1.4933,-1.2843,-1.1089,-0.9043,-0.8059,-0.6112,-0.5968,-0.5588,-0.3635,-0.1402,0.0578,0.2784,0.4497,0.4816,0.5929,-4.3479,-4.3479,-4.3479,-4.3479,-4.3479,-4.3479,-4.3479,-4.3479,-4.3479,-4.3479,-4.3479,-4.3479,-4.3479,-4.3479,-4.3479,-4.3479,-4.3444,-4.3178,-4.2714,-4.2121,-4.1268,-4.0625,-4.0102,-3.958,-3.9462,-3.9326,-3.8261,-3.7618,-3.7195,-3.6485,-3.5977,-3.5673,-3.5639,-3.5639,-3.5639,-3.5639,-3.5639,-3.5639,-3.5639,-3.5639,-3.5639,-3.5639,-3.5622,-3.5554,-3.5165,-3.4962,-3.4806,-3.368,-3.224,-3.092,-3.0201,-2.9531,-2.8659,-2.9116,-2.9819,-3.0268,-3.0148,-3.0253,-3.0791,-3.0926,-3.1106,-3.1319,-3.1029,-3.0837,-3.0777,-3.0629,-2.9752,-2.9129,-2.8989,-2.8801,-2.8606,-2.7842,-2.7554,-2.8049,-2.8037,-2.8097,-2.8436,-2.8712,-2.8888,-2.8976,-2.9352,-2.9779,-2.9779,-2.8621,-2.7415,-2.63,-2.5661,-2.5626,-2.5241,-2.4702,-2.4221,-2.3973,-2.3387,-2.3222,-2.2783,-2.1855,-2.1279,-2.079,-2.015,-1.858,-1.6587,-1.4183,-1.2319,-1.0619,-0.954,-0.8551,-0.8132,-0.7633,-0.6323,-0.4348,-0.267,-0.0895,0.0996,0.2304,0.351,-4.3479,-4.3479,-4.3479,-4.3479,-4.3479,-4.3479,-4.3479,-4.3479,-4.3479,-4.3479,-4.3479,-4.3479,-4.3479,-4.3479,-4.3479,-4.3479,-4.3479,-4.3444,-4.3142,-4.2422,-4.149,-4.0655,-4.0319,-4.0036,-4.0002,-3.9834,-3.9309,-3.8616,-3.7905,-3.7178,-3.6434,-3.5943,-3.574,-3.5639,-3.5639,-3.5639,-3.5639,-3.5639,-3.5639,-3.5639,-3.5639,-3.5639,-3.5639,-3.5605,-3.5588,-3.5504,-3.5215,-3.4299,-3.2873,-3.1029,-3.0778,-3.038,-2.9843,-2.9819,-3.0313,-3.1076,-3.0911,-3.0896,-3.1317,-3.1362,-3.1422,-3.1467,-3.1467,-3.1467,-3.1394,-3.1278,-3.1146,-3.0896,-3.0072,-3.0207,-3.0984,-2.9793,-2.9171,-2.9421,-2.9215,-2.9176,-2.9013,-2.9026,-2.9227,-2.9691,-2.9779,-2.9779,-2.9534,-2.9106,-2.8493,-2.8064,-2.7452,-2.671,-2.6427,-2.5953,-2.5473,-2.5052,-2.4307,-2.3309,-2.2703,-2.1963,-2.1592,-2.1153,-2.075,-1.9575,-1.7938,-1.5792,-1.3963,-1.2418,-1.142,-1.0093,-0.8677,-0.814,-0.7835,-0.6902,-0.5187,-0.3375,-0.168,-0.0798,0.03,-4.3479,-4.3479,-4.3479,-4.3479,-4.3479,-4.3479,-4.3479,-4.3479,-4.3479,-4.3479,-4.3479,-4.3479,-4.3479,-4.3479,-4.3479,-4.3479,-4.3479,-4.3479,-4.3214,-4.2598,-4.1446,-4.0903,-4.0607,-4.0385,-4.0121,-3.9918,-3.9343,-3.8903,-3.8464,-3.7499,-3.6705,-3.6485,-3.5876,-3.5639,-3.5639,-3.5639,-3.5639,-3.5639,-3.5639,-3.5639,-3.5639,-3.5639,-3.5639,-3.5639,-3.5639,-3.5639,-3.547,-3.4847,-3.3941,-3.2958,-3.1913,-3.1207,-3.1012,-3.1001,-3.118,-3.1345,-3.1362,-3.136,-3.1437,-3.1467,-3.1467,-3.1467,-3.1467,-3.1467,-3.1467,-3.1467,-3.1467,-3.1467,-3.119,-3.144,-3.2535,-3.264,-3.1467,-3.061,-3.038,-3.025,-2.9796,-2.9591,-2.9641,-2.9729,-2.9779,-2.9779,-2.9779,-2.9611,-2.9456,-2.9624,-2.8949,-2.7924,-2.7522,-2.7209,-2.6707,-2.6284,-2.5221,-2.4231,-2.3026,-2.2461,-2.2236,-2.1934,-2.1512,-2.1137,-1.9444,-1.7834,-1.6075,-1.4636,-1.3422,-1.1982,-1.0641,-0.969,-0.9563,-0.8565,-0.7434,-0.6101,-0.479,-0.3909,-0.2912,-4.3479,-4.3479,-4.3479,-4.3479,-4.3479,-4.3479,-4.3479,-4.3479,-4.3479,-4.3479,-4.3479,-4.3479,-4.3479,-4.3479,-4.3479,-4.3479,-4.3479,-4.3479,-4.3356,-4.2921,-4.2144,-4.1621,-4.1206,-4.0767,-4.0368,-4.0086,-3.9715,-3.936,-3.8768,-3.7939,-3.7144,-3.6738,-3.6028,-3.5673,-3.5639,-3.5639,-3.5639,-3.5639,-3.5639,-3.5639,-3.5639,-3.5639,-3.5639,-3.5639,-3.5639,-3.5639,-3.5577,-3.4925,-3.4284,-3.3531,-3.2571,-3.1853,-3.1524,-3.1467,-3.1467,-3.1467,-3.1467,-3.1467,-3.1467,-3.1467,-3.1467,-3.1467,-3.1467,-3.1467,-3.1467,-3.1467,-3.1467,-3.1467,-3.1571,-3.1989,-3.3274,-3.3122,-3.226,-3.133,-3.0716,-3.033,-2.9934,-2.9779,-2.9779,-2.9779,-2.9779,-2.9779,-2.9779,-2.9779,-2.9779,-2.9702,-2.9702,-2.8846,-2.8846,-2.8542,-2.7947,-2.736,-2.6295,-2.5147,-2.3637,-2.3008,-2.2959,-2.2668,-2.2371,-2.2271,-2.1581,-1.9922,-1.825,-1.681,-1.5294,-1.4582,-1.3387,-1.242,-1.0719,-0.8799,-0.7842,-0.7962,-0.7156,-0.5122,-0.4732,-4.3479,-4.3479,-4.3479,-4.3479,-4.3479,-4.3479,-4.3479,-4.3479,-4.3479,-4.3479,-4.3479,-4.3479,-4.3479,-4.3479,-4.3479,-4.3479,-4.3479,-4.3479,-4.341,-4.3321,-4.2808,-4.2302,-4.1853,-4.1223,-4.0655,-4.0254,-4.0036,-3.9681,-3.9157,-3.843,-3.7736,-3.6992,-3.6214,-3.5825,-3.569,-3.5639,-3.5639,-3.5639,-3.5639,-3.5639,-3.5639,-3.5639,-3.5639,-3.5639,-3.5639,-3.5639,-3.547,-3.4958,-3.4333,-3.3735,-3.3055,-3.2272,-3.1682,-3.1467,-3.1467,-3.1467,-3.1467,-3.1467,-3.1467,-3.1467,-3.1467,-3.1467,-3.1467,-3.1467,-3.1467,-3.1467,-3.1467,-3.1779,-3.2048,-3.2901,-3.36,-3.3695,-3.2908,-3.1873,-3.0708,-3.0126,-2.9869,-2.9779,-2.9779,-2.9779,-2.9779,-2.9779,-2.9779,-2.9779,-2.9779,-2.9779,-2.9779,-2.9779,-2.9779,-2.9624,-2.8949,-2.8359,-2.7452,-2.5389,-2.3724,-2.3144,-2.3144,-2.3038,-2.2911,-2.2902,-2.2882,-2.1826,-2.0157,-1.8556,-1.7249,-1.6353,-1.5342,-1.4127,-1.2083,-0.9296,-0.8041,-0.7952,-0.7144,-0.6032,-0.6155,-4.3479,-4.3479,-4.3479,-4.3479,-4.3479,-4.3479,-4.3479,-4.3479,-4.3479,-4.3479,-4.3479,-4.3479,-4.3479,-4.3479,-4.3479,-4.3479,-4.3479,-4.3479,-4.3479,-4.341,-4.3032,-4.2598,-4.2302,-4.149,-4.092,-4.0638,-4.0368,-3.9952,-3.9715,-3.9174,-3.8362,-3.7669,-3.6891,-3.6282,-3.591,-3.5639,-3.5673,-3.5757,-3.569,-3.5639,-3.5639,-3.5639,-3.5639,-3.5639,-3.5639,-3.5639,-3.547,-3.5005,-3.4528,-3.4333,-3.3251,-3.2327,-3.1682,-3.1467,-3.1467,-3.1467,-3.1467,-3.1467,-3.1467,-3.1467,-3.1467,-3.1467,-3.1467,-3.1467,-3.1467,-3.1526,-3.1646,-3.2303,-3.3529,-3.4831,-3.51,-3.4792,-3.4008,-3.2863,-3.1591,-3.0734,-3.0075,-2.9779,-2.9779,-2.9779,-2.9779,-2.9779,-2.9779,-2.9779,-2.9779,-2.9779,-2.9779,-2.9779,-2.9779,-2.9779,-2.9534,-2.9028,-2.8518,-2.6119,-2.3724,-2.3309,-2.3144,-2.3144,-2.3028,-2.3028,-2.3028,-2.3038,-2.1891,-2.0333,-1.8627,-1.7323,-1.6406,-1.5461,-1.3454,-1.0765,-0.9406,-0.8137,-0.7437,-0.6736,-0.6132,-4.3479,-4.3479,-4.3479,-4.3479,-4.3479,-4.3479,-4.3479,-4.3479,-4.3479,-4.3479,-4.3479,-4.3479,-4.3479,-4.3479,-4.3479,-4.3479,-4.3479,-4.3479,-4.3479,-4.341,-4.3214,-4.2939,-4.2693,-4.1768,-4.1223,-4.0827,-4.0368,-4.0121,-4.0003,-3.9326,-3.8819,-3.8294,-3.7381,-3.6755,-3.6586,-3.6028,-3.596,-3.6028,-3.5859,-3.5639,-3.5639,-3.5639,-3.5639,-3.5639,-3.5639,-3.5639,-3.5532,-3.5362,-3.4941,-3.4479,-3.3617,-3.2625,-3.1894,-3.1467,-3.1467,-3.1467,-3.1467,-3.1467,-3.1467,-3.1467,-3.1467,-3.1467,-3.1482,-3.1467,-3.1467,-3.1556,-3.2138,-3.3514,-3.4233,-3.5489,-3.5444,-3.5469,-3.4525,-3.2905,-3.155,-3.0542,-3.0025,-2.9831,-2.9779,-2.9779,-2.9779,-2.9779,-2.9779,-2.9779,-2.9779,-2.9779,-2.9779,-2.9779,-2.9779,-2.9779,-2.9779,-2.9534,-2.9015,-2.7197,-2.4723,-2.3551,-2.3135,-2.3144,-2.3144,-2.3144,-2.3144,-2.3047,-2.296,-2.2133,-2.0477,-1.8764,-1.6835,-1.5596,-1.3866,-1.2134,-1.0284,-0.8722,-0.8237,-0.764,-0.6939,-4.3479,-4.3479,-4.3479,-4.3479,-4.3479,-4.3479,-4.3479,-4.3479,-4.3479,-4.3479,-4.3479,-4.3479,-4.3479,-4.3479,-4.3479,-4.3479,-4.3479,-4.3479,-4.3479,-4.3479,-4.3444,-4.3214,-4.2808,-4.2244,-4.1707,-4.1178,-4.0559,-4.0204,-4.0053,-3.958,-3.9208,-3.8717,-3.7669,-3.7347,-3.7499,-3.6535,-3.6485,-3.6315,-3.6045,-3.5656,-3.5639,-3.5639,-3.5639,-3.5639,-3.5639,-3.5639,-3.5577,-3.5577,-3.5299,-3.4752,-3.3987,-3.3077,-3.2089,-3.164,-3.1539,-3.1467,-3.1467,-3.1467,-3.1467,-3.1467,-3.1467,-3.1467,-3.1616,-3.1661,-3.1839,-3.2198,-3.2916,-3.4921,-3.5489,-3.5489,-3.5469,-3.5474,-3.451,-3.2834,-3.1036,-2.9776,-2.9796,-2.9779,-2.9779,-2.9779,-2.9779,-2.9779,-2.9779,-2.9779,-2.9779,-2.9779,-2.9779,-2.9779,-2.9779,-2.9779,-2.9779,-2.9779,-2.9197,-2.8039,-2.6047,-2.3973,-2.3474,-2.3144,-2.3144,-2.3144,-2.3144,-2.3144,-2.296,-2.2862,-2.2403,-2.0576,-1.8211,-1.6197,-1.4949,-1.3295,-1.0863,-0.9213,-0.8432,-0.8045,-0.7547,-4.3479,-4.3479,-4.3479,-4.3479,-4.3479,-4.3479,-4.3479,-4.3479,-4.3479,-4.3479,-4.3479,-4.3479,-4.3479,-4.3479,-4.3479,-4.3479,-4.3479,-4.3479,-4.3479,-4.3479,-4.3479,-4.3444,-4.3304,-4.2864,-4.2162,-4.1534,-4.0995,-4.0528,-4.017,-3.9935,-3.958,-3.9039,-3.8768,-3.8531,-3.8091,-3.7161,-3.6738,-3.6671,-3.6079,-3.5656,-3.5639,-3.5639,-3.5639,-3.5639,-3.5639,-3.5639,-3.5639,-3.5639,-3.547,-3.5316,-3.4252,-3.3582,-3.3166,-3.2089,-3.1625,-3.1467,-3.1467,-3.1467,-3.1467,-3.1629,-3.1659,-3.1779,-3.2093,-3.2317,-3.2542,-3.2901,-3.3709,-3.5205,-3.5489,-3.5489,-3.5489,-3.5499,-3.4452,-3.2849,-3.1057,-3.0173,-2.9897,-2.9779,-2.9779,-2.9779,-2.9779,-2.9779,-2.9779,-2.9779,-2.9779,-2.9779,-2.9779,-2.9779,-2.9779,-2.9779,-2.9779,-2.9779,-2.9779,-2.87,-2.7545,-2.5389,-2.38,-2.3309,-2.3135,-2.3135,-2.3144,-2.3144,-2.3144,-2.296,-2.2677,-2.258,-2.0944,-1.894,-1.6835,-1.4752,-1.2813,-1.048,-0.8333,-0.8144,-0.8347,-4.3479,-4.3479,-4.3479,-4.3479,-4.3479,-4.3479,-4.3479,-4.3479,-4.3479,-4.3479,-4.3479,-4.3479,-4.3479,-4.3479,-4.3479,-4.3479,-4.3479,-4.3479,-4.3479,-4.3479,-4.3479,-4.3479,-4.3356,-4.2939,-4.2382,-4.181,-4.1161,-4.0577,-4.0237,-4.0054,-3.9851,-3.9597,-3.9225,-3.9123,-3.8819,-3.7956,-3.7821,-3.7601,-3.6975,-3.6096,-3.5757,-3.5639,-3.5639,-3.5639,-3.5639,-3.5639,-3.5639,-3.5639,-3.5639,-3.5362,-3.4301,-3.3633,-3.3271,-3.2351,-3.1467,-3.1467,-3.1467,-3.1467,-3.1569,-3.1928,-3.2063,-3.2258,-3.2691,-3.3155,-3.338,-3.3544,-3.4113,-3.537,-3.5489,-3.5489,-3.5489,-3.5489,-3.4691,-3.3277,-3.1273,-3.0652,-3.0149,-2.9872,-2.9779,-2.9779,-2.9779,-2.9779,-2.9779,-2.9779,-2.9779,-2.9779,-2.9779,-2.9779,-2.9779,-2.9779,-2.9779,-2.9779,-2.9779,-2.9534,-2.8542,-2.7046,-2.4638,-2.381,-2.3115,-2.3115,-2.3135,-2.3144,-2.3144,-2.3144,-2.296,-2.2862,-2.2862,-2.1587,-1.9397,-1.7181,-1.486,-1.2716,-1.0578,-0.9312,-0.9221,-4.3479,-4.3479,-4.3479,-4.3479,-4.3479,-4.3479,-4.3479,-4.3479,-4.3479,-4.3479,-4.3479,-4.3479,-4.3479,-4.3479,-4.3479,-4.3479,-4.3479,-4.3479,-4.3479,-4.3479,-4.3479,-4.3479,-4.3321,-4.2939,-4.24,-4.1768,-4.1161,-4.0607,-4.0237,-4.007,-4.007,-4.0054,-3.9597,-3.958,-3.958,-3.8886,-3.8311,-3.8261,-3.7297,-3.6502,-3.6045,-3.5723,-3.5656,-3.5639,-3.5639,-3.5639,-3.5639,-3.5639,-3.5639,-3.5362,-3.4544,-3.3887,-3.3479,-3.2555,-3.1739,-3.1597,-3.1483,-3.1498,-3.1603,-3.1945,-3.2542,-3.3021,-3.338,-3.3948,-3.4397,-3.4203,-3.4262,-3.5459,-3.5489,-3.5489,-3.5489,-3.5489,-3.4691,-3.3417,-3.1844,-3.1261,-3.0712,-3.0139,-2.9779,-2.9779,-2.9779,-2.9779,-2.9779,-2.9779,-2.9779,-2.9779,-2.9779,-2.9779,-2.9779,-2.9779,-2.9779,-2.9779,-2.9779,-2.9779,-2.9287,-2.7959,-2.5808,-2.4286,-2.3597,-2.3193,-2.3202,-2.3135,-2.3144,-2.3144,-2.3144,-2.3047,-2.296,-2.2501,-2.1676,-1.8195,-1.5248,-1.4663,-1.3204,-1.1648,-1.0194,-4.3479,-4.3479,-4.3479,-4.3479,-4.3479,-4.3479,-4.3479,-4.3479,-4.3479,-4.3479,-4.3479,-4.3479,-4.3479,-4.3479,-4.3479,-4.3479,-4.3479,-4.3479,-4.3479,-4.3479,-4.3479,-4.3444,-4.325,-4.2902,-4.236,-4.1707,-4.1178,-4.0607,-4.0204,-4.0087,-4.0087,-4.0037,-3.9884,-3.9986,-3.9868,-3.9343,-3.8616,-3.8345,-3.7466,-3.7009,-3.6552,-3.6163,-3.5774,-3.5757,-3.569,-3.5639,-3.5639,-3.5656,-3.5622,-3.5577,-3.48,-3.435,-3.3836,-3.3005,-3.2313,-3.2095,-3.1589,-3.1649,-3.1857,-3.2258,-3.2646,-3.3591,-3.4328,-3.4637,-3.5085,-3.531,-3.5459,-3.5459,-3.5489,-3.5489,-3.5489,-3.5344,-3.4706,-3.3665,-3.2361,-3.1406,-3.0786,-3.0152,-2.9869,-2.9779,-2.9779,-2.9779,-2.9779,-2.9779,-2.9779,-2.9779,-2.9779,-2.9779,-2.9779,-2.9779,-2.9779,-2.9779,-2.9779,-2.9779,-2.9779,-2.8542,-2.7383,-2.5659,-2.4364,-2.373,-2.3357,-2.328,-2.3135,-2.3144,-2.3144,-2.3144,-2.3047,-2.2775,-2.14,-1.7747,-1.5534,-1.4949,-1.4274,-1.2909,-1.1458,-4.3479,-4.3479,-4.3479,-4.3479,-4.3479,-4.3479,-4.3479,-4.3479,-4.3479,-4.3479,-4.3479,-4.3479,-4.3479,-4.3479,-4.3479,-4.3479,-4.3479,-4.3479,-4.3479,-4.3479,-4.3479,-4.3286,-4.305,-4.2675,-4.2203,-4.1402,-4.0949,-4.0625,-4.0171,-4.0138,-4.0087,-4.0087,-4.0087,-4.007,-3.9918,-3.9749,-3.9259,-3.8717,-3.8244,-3.7956,-3.733,-3.6806,-3.6552,-3.6992,-3.5876,-3.5994,-3.618,-3.5825,-3.5707,-3.5503,-3.5008,-3.4851,-3.4628,-3.3789,-3.3262,-3.2894,-3.2273,-3.2003,-3.2764,-3.3333,-3.4328,-3.4607,-3.5105,-3.5205,-3.5489,-3.5489,-3.5489,-3.5489,-3.5489,-3.5489,-3.5489,-3.5504,-3.5052,-3.3965,-3.2779,-3.1577,-3.0935,-3.0317,-2.9869,-2.9779,-2.9779,-2.9779,-2.9779,-2.9779,-2.9779,-2.9779,-2.9779,-2.9779,-2.9779,-2.9779,-2.9779,-2.9779,-2.9779,-2.9779,-2.9779,-2.9456,-2.904,-2.7221,-2.5155,-2.4544,-2.3856,-2.3202,-2.3144,-2.3144,-2.3144,-2.3144,-2.3144,-2.3144,-2.1311,-1.8295,-1.6365,-1.5337,-1.4561,-1.3884,-1.2716,-4.3479,-4.3479,-4.3479,-4.3479,-4.3479,-4.3479,-4.3479,-4.3479,-4.3479,-4.3479,-4.3479,-4.3479,-4.3479,-4.3479,-4.3479,-4.3479,-4.3479,-4.3479,-4.3479,-4.3479,-4.3444,-4.3178,-4.2808,-4.2382,-4.1895,-4.1041,-4.0672,-4.0385,-4.0121,-4.007,-4.0087,-4.0087,-4.0087,-4.0087,-4.0087,-4.0037,-3.9817,-3.9428,-3.9005,-3.8819,-3.8142,-3.755,-3.7263,-3.7686,-3.6857,-3.654,-3.676,-3.6574,-3.6388,-3.6211,-3.5941,-3.5827,-3.5527,-3.5065,-3.4478,-3.397,-3.335,-3.2679,-3.3702,-3.4681,-3.5443,-3.5404,-3.54,-3.5444,-3.5489,-3.5489,-3.5489,-3.5489,-3.5489,-3.5489,-3.5489,-3.5504,-3.5457,-3.4607,-3.2403,-3.1159,-3.0995,-3.0558,-3.0139,-2.9779,-2.9779,-2.9779,-2.9779,-2.9779,-2.9779,-2.9779,-2.9779,-2.9779,-2.9779,-2.9779,-2.9779,-2.9779,-2.9779,-2.9779,-2.9779,-2.9534,-2.9209,-2.7867,-2.6146,-2.5241,-2.4617,-2.38,-2.3222,-2.3144,-2.3144,-2.3144,-2.3144,-2.3144,-2.14,-1.9123,-1.7331,-1.551,-1.5343,-1.4663,-1.3974,-4.3479,-4.3479,-4.3479,-4.3479,-4.3479,-4.3479,-4.3479,-4.3479,-4.3479,-4.3479,-4.3479,-4.3479,-4.3479,-4.3479,-4.3479,-4.3479,-4.3479,-4.3479,-4.3479,-4.3479,-4.3479,-4.3178,-4.2637,-4.2121,-4.1578,-4.092,-4.0497,-4.0204,-4.0087,-4.0087,-4.0087,-4.0087,-4.0087,-4.0087,-4.0087,-4.0087,-4.0054,-4.0002,-3.9343,-3.9106,-3.8853,-3.8261,-3.8058,-3.8125,-3.7719,-3.7368,-3.7354,-3.7385,-3.7233,-3.7071,-3.7253,-3.7152,-3.6838,-3.6141,-3.5701,-3.5565,-3.4288,-3.3824,-3.4185,-3.504,-3.54,-3.5489,-3.5489,-3.5489,-3.5489,-3.5489,-3.5489,-3.5489,-3.5489,-3.5489,-3.5489,-3.5519,-3.5466,-3.4428,-3.2263,-3.1231,-3.1082,-3.0558,-3.0075,-2.9779,-2.9779,-2.9779,-2.9779,-2.9779,-2.9779,-2.9779,-2.9779,-2.9779,-2.9779,-2.9779,-2.9779,-2.9779,-2.9779,-2.9779,-2.9779,-2.9779,-2.9287,-2.8131,-2.7128,-2.6284,-2.5199,-2.4211,-2.3724,-2.3309,-2.3144,-2.3144,-2.3144,-2.3144,-2.1765,-2.0369,-1.7437,-1.5758,-1.5712,-1.5439,-1.4752,-4.3479,-4.3479,-4.3479,-4.3479,-4.3479,-4.3479,-4.3479,-4.3479,-4.3479,-4.3479,-4.3479,-4.3479,-4.3479,-4.3479,-4.3479,-4.3479,-4.3479,-4.3479,-4.3479,-4.3479,-4.341,-4.2847,-4.2284,-4.181,-4.1268,-4.0546,-4.0121,-4.0087,-4.0087,-4.0087,-4.0087,-4.0087,-4.0087,-4.0087,-4.0087,-4.0087,-4.007,-4.0104,-3.9817,-3.9698,-3.9614,-3.9056,-3.8819,-3.9174,-3.8464,-3.806,-3.8048,-3.8145,-3.8075,-3.8058,-3.8258,-3.7939,-3.7643,-3.7036,-3.6861,-3.6702,-3.567,-3.4902,-3.507,-3.5415,-3.5474,-3.5489,-3.5489,-3.5489,-3.5489,-3.5489,-3.5489,-3.5489,-3.5489,-3.5489,-3.5489,-3.5489,-3.5177,-3.3604,-3.2013,-3.1451,-3.1148,-3.038,-2.9779,-2.9779,-2.9779,-2.9779,-2.9779,-2.9779,-2.9779,-2.9779,-2.9779,-2.9779,-2.9779,-2.9779,-2.9779,-2.9779,-2.9779,-2.9779,-2.9779,-2.9779,-2.9779,-2.904,-2.8119,-2.7186,-2.6119,-2.4798,-2.3877,-2.3299,-2.3222,-2.3144,-2.3144,-2.3144,-2.3144,-2.1682,-1.8691,-1.6778,-1.6678,-1.6292,-1.5534,-4.3479,-4.3479,-4.3479,-4.3479,-4.3479,-4.3479,-4.3479,-4.3479,-4.3479,-4.3479,-4.3479,-4.3479,-4.3479,-4.3479,-4.3479,-4.3479,-4.3479,-4.3286,-4.3214,-4.316,-4.294,-4.2306,-4.175,-4.1464,-4.0938,-4.0303,-4.0087,-4.0087,-4.0087,-4.0087,-4.0087,-4.0087,-4.0087,-4.0087,-4.0087,-4.0087,-4.0087,-4.007,-3.9986,-4.0003,-3.9884,-3.9681,-3.9597,-3.9648,-3.9326,-3.887,-3.8939,-3.8903,-3.8783,-3.8933,-3.8817,-3.8616,-3.8504,-3.8405,-3.8121,-3.7806,-3.6814,-3.5928,-3.5589,-3.5459,-3.5489,-3.5489,-3.5489,-3.5489,-3.5489,-3.5489,-3.5489,-3.5489,-3.5489,-3.5489,-3.5489,-3.5489,-3.4868,-3.3393,-3.2528,-3.2041,-3.1443,-3.0683,-2.9779,-2.9779,-2.9779,-2.9779,-2.9779,-2.9779,-2.9779,-2.9779,-2.9779,-2.9779,-2.9779,-2.9779,-2.9779,-2.9779,-2.9779,-2.9779,-2.9779,-2.9779,-2.9779,-2.9779,-2.8924,-2.7832,-2.6614,-2.5221,-2.4296,-2.3464,-2.3212,-2.3135,-2.3135,-2.3144,-2.3144,-2.2064,-1.9838,-1.8522,-1.794,-1.7037,-1.6103,-4.3479,-4.3479,-4.3479,-4.3479,-4.3479,-4.3479,-4.3479,-4.3479,-4.3479,-4.3479,-4.3479,-4.3479,-4.3479,-4.3497,-4.3444,-4.341,-4.3286,-4.2884,-4.2714,-4.2541,-4.2284,-4.1578,-4.1223,-4.0949,-4.0672,-4.0336,-4.0087,-4.0087,-4.0087,-4.0087,-4.0087,-4.0087,-4.0087,-4.0087,-4.0087,-4.0087,-4.0087,-4.0087,-4.0087,-4.0087,-4.0003,-4.002,-3.9952,-3.9952,-3.9817,-3.9732,-3.98,-3.9766,-3.9817,-3.9935,-3.9918,-3.9952,-4.0003,-4.0054,-3.9594,-3.8674,-3.7306,-3.6585,-3.5619,-3.5489,-3.5489,-3.5489,-3.5489,-3.5489,-3.5489,-3.5489,-3.5489,-3.5489,-3.5489,-3.5489,-3.5489,-3.5519,-3.5454,-3.4283,-3.3338,-3.2678,-3.2019,-3.1193,-3.0139,-2.9779,-2.9779,-2.9779,-2.9779,-2.9779,-2.9779,-2.9779,-2.9779,-2.9779,-2.9779,-2.9779,-2.9779,-2.9779,-2.9779,-2.9779,-2.9779,-2.9779,-2.9779,-2.9779,-2.9057,-2.8036,-2.6837,-2.5808,-2.4882,-2.4049,-2.3387,-2.3135,-2.3135,-2.3144,-2.3144,-2.1859,-2.0704,-1.9562,-1.8764,-1.7397,-1.6567,-4.3479,-4.3479,-4.3479,-4.3479,-4.3479,-4.3479,-4.3479,-4.3479,-4.3479,-4.3479,-4.3479,-4.3479,-4.3479,-4.3479,-4.3087,-4.2976,-4.2732,-4.2422,-4.2162,-4.1937,-4.1768,-4.1358,-4.1087,-4.0827,-4.0528,-4.0286,-4.0087,-4.0087,-4.0087,-4.0087,-4.0087,-4.0087,-4.0087,-4.0087,-4.0087,-4.0087,-4.0087,-4.0087,-4.0087,-4.0087,-4.0087,-4.0087,-4.0087,-4.0087,-4.0087,-4.0087,-4.0087,-4.0087,-4.0087,-4.0087,-4.0087,-4.0087,-4.0087,-4.002,-3.961,-3.8351,-3.7748,-3.7414,-3.5906,-3.5489,-3.5489,-3.5489,-3.5489,-3.5489,-3.5489,-3.5489,-3.5489,-3.5489,-3.5489,-3.5489,-3.5489,-3.5504,-3.5463,-3.4949,-3.3813,-3.272,-3.1988,-3.0895,-2.9985,-2.9779,-2.9779,-2.9779,-2.9779,-2.9779,-2.9779,-2.9779,-2.9779,-2.9779,-2.9779,-2.9779,-2.9779,-2.9779,-2.9779,-2.9779,-2.9779,-2.9779,-2.9779,-2.9689,-2.9057,-2.8457,-2.7579,-2.6625,-2.5546,-2.4553,-2.3551,-2.3222,-2.3135,-2.3144,-2.3144,-2.3047,-2.2082,-2.0828,-1.9571,-1.8211,-1.6842,-4.3479,-4.3479,-4.3479,-4.3479,-4.3479,-4.3479,-4.3479,-4.3479,-4.3479,-4.3479,-4.3479,-4.3479,-4.3356,-4.3124,-4.2846,-4.2559,-4.2284,-4.175,-4.1429,-4.1402,-4.1286,-4.0891,-4.0655,-4.0577,-4.0368,-4.0171,-4.0087,-4.0087,-4.0087,-4.0087,-4.0087,-4.0087,-4.0087,-4.0087,-4.0087,-4.0087,-4.0087,-4.0087,-4.0087,-4.0087,-4.0087,-4.0087,-4.0087,-4.0087,-4.0087,-4.0087,-4.0087,-4.0087,-4.0087,-4.0087,-4.0087,-4.0087,-4.0087,-4.002,-3.9401,-3.8254,-3.7934,-3.7167,-3.5876,-3.5489,-3.5489,-3.5489,-3.5489,-3.5489,-3.5489,-3.5489,-3.5489,-3.5489,-3.5489,-3.5489,-3.5489,-3.5519,-3.5487,-3.5452,-3.4066,-3.2618,-3.1576,-3.0456,-3.0037,-2.9844,-2.9779,-2.9779,-2.9779,-2.9779,-2.9779,-2.9779,-2.9779,-2.9779,-2.9779,-2.9779,-2.9779,-2.9779,-2.9779,-2.9779,-2.9779,-2.9779,-2.9779,-2.9779,-2.9611,-2.9003,-2.8267,-2.7035,-2.5714,-2.4553,-2.3551,-2.3299,-2.3144,-2.3144,-2.3144,-2.3047,-2.2589,-2.1033,-1.9761,-1.894,-1.7576,-4.3479,-4.3479,-4.3479,-4.3479,-4.3479,-4.3444,-4.3446,-4.3481,-4.3339,-4.341,-4.3444,-4.3444,-4.3142,-4.2808,-4.248,-4.208,-4.1664,-4.1133,-4.0827,-4.0827,-4.0546,-4.0286,-4.0254,-4.0121,-4.0171,-4.0121,-4.0087,-4.0087,-4.0087,-4.0087,-4.0087,-4.0087,-4.0087,-4.0087,-4.0087,-4.0087,-4.0087,-4.0087,-4.0087,-4.0087,-4.0087,-4.0087,-4.0087,-4.0087,-4.0087,-4.0087,-4.0087,-4.0087,-4.0087,-4.0087,-4.0087,-4.0087,-4.0087,-4.007,-3.9172,-3.8437,-3.8019,-3.6886,-3.5978,-3.5479,-3.5489,-3.5489,-3.5489,-3.5489,-3.5489,-3.5489,-3.5489,-3.5489,-3.5489,-3.5489,-3.5489,-3.5489,-3.5478,-3.5185,-3.4218,-3.2904,-3.1712,-3.069,-2.9908,-2.9779,-2.9779,-2.9779,-2.9779,-2.9779,-2.9779,-2.9779,-2.9779,-2.9779,-2.9779,-2.9779,-2.9779,-2.9779,-2.9779,-2.9779,-2.9779,-2.9779,-2.9779,-2.9779,-2.9779,-2.9534,-2.8858,-2.7371,-2.5724,-2.4467,-2.3299,-2.3222,-2.3144,-2.3144,-2.3047,-2.296,-2.2315,-2.0854,-1.9852,-1.9214,-1.794,-4.3479,-4.3479,-4.3479,-4.3479,-4.3444,-4.3069,-4.3139,-4.3393,-4.2548,-4.2716,-4.3286,-4.305,-4.277,-4.2519,-4.1768,-4.1313,-4.1041,-4.0672,-4.0368,-4.0336,-4.0121,-4.0121,-4.0087,-4.0087,-4.0087,-4.0087,-4.0087,-4.0087,-4.0087,-4.0087,-4.0087,-4.0087,-4.0087,-4.0087,-4.0087,-4.0087,-4.0087,-4.0087,-4.0087,-4.0087,-4.0087,-4.0087,-4.0087,-4.0087,-4.0087,-4.0087,-4.0087,-4.0087,-4.0087,-4.0087,-4.0087,-4.0087,-4.0087,-4.0087,-3.9952,-3.9404,-3.8051,-3.677,-3.5875,-3.5473,-3.5474,-3.5489,-3.5489,-3.5489,-3.5489,-3.5489,-3.5489,-3.5489,-3.5489,-3.5489,-3.5489,-3.5489,-3.5439,-3.4919,-3.4355,-3.3087,-3.1867,-3.0847,-2.9908,-2.9779,-2.9779,-2.9779,-2.9779,-2.9779,-2.9779,-2.9779,-2.9779,-2.9779,-2.9779,-2.9779,-2.9779,-2.9779,-2.9779,-2.9779,-2.9779,-2.9779,-2.9779,-2.9779,-2.9779,-2.9534,-2.9197,-2.7626,-2.5808,-2.4221,-2.3135,-2.3144,-2.3144,-2.3144,-2.3047,-2.296,-2.2589,-2.1489,-2.0034,-1.9222,-1.7848,-4.3479,-4.3479,-4.3479,-4.3479,-4.341,-4.2957,-4.3003,-4.3235,-4.2317,-4.2055,-4.242,-4.2332,-4.2162,-4.1937,-4.1178,-4.0685,-4.0577,-4.0303,-4.0171,-4.0121,-4.0087,-4.007,-4.0087,-4.0087,-4.0087,-4.0087,-4.0087,-4.0087,-4.0087,-4.0087,-4.0087,-4.0087,-4.0087,-4.0087,-4.0087,-4.0087,-4.0087,-4.0087,-4.0087,-4.0087,-4.0087,-4.0087,-4.0087,-4.0087,-4.0087,-4.0087,-4.0087,-4.0087,-4.0087,-4.0087,-4.0087,-4.0087,-4.0087,-4.0087,-4.0087,-3.9577,-3.8417,-3.681,-3.5922,-3.5498,-3.5474,-3.5489,-3.5489,-3.5489,-3.5489,-3.5489,-3.5489,-3.5489,-3.5489,-3.5489,-3.5489,-3.5489,-3.5489,-3.5207,-3.4235,-3.3031,-3.1771,-3.0605,-2.9985,-2.9779,-2.9779,-2.9779,-2.9779,-2.9779,-2.9779,-2.9779,-2.9779,-2.9779,-2.9779,-2.9779,-2.9779,-2.9779,-2.9779,-2.9779,-2.9779,-2.9779,-2.9779,-2.9779,-2.9779,-2.8949,-2.8211,-2.7221,-2.5891,-2.4145,-2.3144,-2.3144,-2.3144,-2.3144,-2.3144,-2.3047,-2.2775,-2.2315,-2.0863,-1.9405,-1.8311,-4.3479,-4.3479,-4.3479,-4.3479,-4.341,-4.2939,-4.2871,-4.3026,-4.2139,-4.1437,-4.1174,-4.1446,-4.1268,-4.1041,-4.078,-4.0449,-4.0254,-4.0171,-4.0138,-4.0087,-4.0087,-4.0087,-4.0087,-4.0087,-4.0087,-4.0087,-4.0087,-4.0087,-4.0087,-4.0087,-4.0087,-4.0087,-4.0087,-4.0087,-4.0087,-4.0087,-4.0087,-4.0087,-4.0087,-4.0087,-4.0087,-4.0087,-4.0087,-4.0087,-4.0087,-4.0087,-4.0087,-4.0087,-4.0087,-4.0087,-4.0087,-4.0087,-3.9952,-3.9901,-3.9627,-3.9193,-3.8213,-3.6892,-3.6014,-3.5619,-3.5544,-3.5489,-3.5489,-3.5489,-3.5489,-3.5489,-3.5489,-3.5489,-3.5489,-3.5489,-3.5489,-3.5489,-3.5489,-3.5264,-3.4172,-3.2975,-3.1688,-3.0393,-3.0062,-2.9779,-2.9779,-2.9779,-2.9779,-2.9779,-2.9779,-2.9779,-2.9779,-2.9779,-2.9779,-2.9779,-2.9779,-2.9779,-2.9779,-2.9779,-2.9779,-2.9779,-2.9779,-2.9779,-2.9611,-2.8371,-2.7302,-2.673,-2.5724,-2.3897,-2.3144,-2.3154,-2.3144,-2.3144,-2.3144,-2.3144,-2.296,-2.2589,-2.1489,-2.0124,-1.9139,-4.3479,-4.3479,-4.3479,-4.3479,-4.341,-4.2939,-4.2494,-4.2044,-4.1472,-4.0792,-4.0556,-4.0446,-4.0497,-4.0856,-4.0417,-4.0171,-4.0171,-4.0087,-4.0087,-4.0087,-4.0087,-4.0087,-4.0087,-4.0087,-4.0087,-4.0087,-4.0087,-4.0087,-4.0087,-4.0087,-4.0087,-4.0087,-4.0087,-4.0087,-4.0087,-4.0087,-4.0087,-4.0087,-4.0087,-4.0087,-4.0087,-4.0087,-4.0087,-4.0087,-4.0087,-4.0087,-4.0087,-4.0087,-4.0087,-4.0087,-4.007,-4.002,-3.985,-3.9437,-3.8887,-3.8246,-3.7338,-3.6961,-3.6199,-3.5755,-3.5619,-3.5489,-3.5489,-3.5489,-3.5489,-3.5489,-3.5489,-3.5489,-3.5489,-3.5489,-3.5489,-3.5489,-3.5489,-3.5088,-3.424,-3.2961,-3.1642,-3.0607,-2.9856,-2.9779,-2.9779,-2.9779,-2.9779,-2.9779,-2.9779,-2.9779,-2.9779,-2.9779,-2.9779,-2.9779,-2.9779,-2.9779,-2.9779,-2.9779,-2.9779,-2.9779,-2.9779,-2.9779,-2.9534,-2.8542,-2.7626,-2.673,-2.5484,-2.4307,-2.3493,-2.3261,-2.3164,-2.3144,-2.3144,-2.3144,-2.3144,-2.2775,-2.1756,-2.0845,-1.9861]}]]